<?xml version="1.0" encoding="UTF-8" standalone="no" ?>
<gpx xmlns="http://www.topografix.com/GPX/1/1" xmlns:xsi="http://www.w3.org/2001/XMLSchema-instance" xsi:schemaLocation="http://www.topografix.com/GPX/1/1 http://www.topografix.com/GPX/1/1/gpx.xsd" version="1.1" creator="VisuGPX - https://www.visugpx.com">
  <metadata>
    <name>ASCVTT - 05/02/2011 - Courmes</name>
    <desc><![CDATA[Courmes - St Martin - St Barnabé - Bramafan - Courmes]]></desc>
  </metadata>
  <trk>
    <name><![CDATA[Courmes-StMartin-StBarnabe-Bramafan]]></name>
    <trkseg>
      <trkpt lat="43.7436" lon="7.00888">
        <ele>502.9067383</ele>
        <time>2011-02-05T08:03:35Z</time>
      </trkpt>
      <trkpt lat="43.74361" lon="7.00881">
        <ele>501.9455566</ele>
        <time>2011-02-05T08:03:39Z</time>
      </trkpt>
      <trkpt lat="43.7436" lon="7.00884">
        <ele>504.8294678</ele>
        <time>2011-02-05T08:04:40Z</time>
      </trkpt>
      <trkpt lat="43.74359" lon="7.00888">
        <ele>508.1940918</ele>
        <time>2011-02-05T08:05:26Z</time>
      </trkpt>
      <trkpt lat="43.74359" lon="7.00888">
        <ele>512.0394287</ele>
        <time>2011-02-05T08:06:06Z</time>
      </trkpt>
      <trkpt lat="43.74359" lon="7.00888">
        <ele>512.0394287</ele>
        <time>2011-02-05T08:06:17Z</time>
      </trkpt>
      <trkpt lat="43.74358" lon="7.00888">
        <ele>512.0394287</ele>
        <time>2011-02-05T08:06:35Z</time>
      </trkpt>
      <trkpt lat="43.74358" lon="7.00888">
        <ele>513.4814453</ele>
        <time>2011-02-05T08:06:51Z</time>
      </trkpt>
      <trkpt lat="43.74357" lon="7.00888">
        <ele>516.8459473</ele>
        <time>2011-02-05T08:07:49Z</time>
      </trkpt>
      <trkpt lat="43.74357" lon="7.00887">
        <ele>519.7298584</ele>
        <time>2011-02-05T08:08:40Z</time>
      </trkpt>
      <trkpt lat="43.74357" lon="7.00887">
        <ele>522.6138916</ele>
        <time>2011-02-05T08:09:28Z</time>
      </trkpt>
      <trkpt lat="43.74357" lon="7.00886">
        <ele>525.9783936</ele>
        <time>2011-02-05T08:10:23Z</time>
      </trkpt>
      <trkpt lat="43.74357" lon="7.00885">
        <ele>528.8625488</ele>
        <time>2011-02-05T08:11:20Z</time>
      </trkpt>
      <trkpt lat="43.74357" lon="7.00884">
        <ele>532.2270508</ele>
        <time>2011-02-05T08:12:12Z</time>
      </trkpt>
      <trkpt lat="43.74357" lon="7.00884">
        <ele>535.1109619</ele>
        <time>2011-02-05T08:12:46Z</time>
      </trkpt>
      <trkpt lat="43.74358" lon="7.00885">
        <ele>537.0336914</ele>
        <time>2011-02-05T08:13:08Z</time>
      </trkpt>
      <trkpt lat="43.74357" lon="7.00884">
        <ele>540.3983154</ele>
        <time>2011-02-05T08:14:16Z</time>
      </trkpt>
      <trkpt lat="43.74356" lon="7.00884">
        <ele>539.9176025</ele>
        <time>2011-02-05T08:14:19Z</time>
      </trkpt>
      <trkpt lat="43.74358" lon="7.00879">
        <ele>540.3983154</ele>
        <time>2011-02-05T08:14:30Z</time>
      </trkpt>
      <trkpt lat="43.74357" lon="7.0088">
        <ele>541.3594971</ele>
        <time>2011-02-05T08:14:43Z</time>
      </trkpt>
      <trkpt lat="43.74358" lon="7.00884">
        <ele>541.84021</ele>
        <time>2011-02-05T08:14:59Z</time>
      </trkpt>
      <trkpt lat="43.74358" lon="7.00884">
        <ele>542.8015137</ele>
        <time>2011-02-05T08:15:26Z</time>
      </trkpt>
      <trkpt lat="43.74357" lon="7.00909">
        <ele>544.2436523</ele>
        <time>2011-02-05T08:15:34Z</time>
      </trkpt>
      <trkpt lat="43.7435" lon="7.00909">
        <ele>544.7242432</ele>
        <time>2011-02-05T08:15:40Z</time>
      </trkpt>
      <trkpt lat="43.74342" lon="7.00891">
        <ele>544.2436523</ele>
        <time>2011-02-05T08:15:49Z</time>
      </trkpt>
      <trkpt lat="43.74344" lon="7.00876">
        <ele>544.7242432</ele>
        <time>2011-02-05T08:16:03Z</time>
      </trkpt>
      <trkpt lat="43.74355" lon="7.00873">
        <ele>545.204834</ele>
        <time>2011-02-05T08:16:15Z</time>
      </trkpt>
      <trkpt lat="43.74355" lon="7.00873">
        <ele>547.1274414</ele>
        <time>2011-02-05T08:16:59Z</time>
      </trkpt>
      <trkpt lat="43.74358" lon="7.00876">
        <ele>547.6081543</ele>
        <time>2011-02-05T08:17:02Z</time>
      </trkpt>
      <trkpt lat="43.7436" lon="7.00884">
        <ele>547.6081543</ele>
        <time>2011-02-05T08:17:20Z</time>
      </trkpt>
      <trkpt lat="43.74359" lon="7.00885">
        <ele>548.0888672</ele>
        <time>2011-02-05T08:17:24Z</time>
      </trkpt>
      <trkpt lat="43.74358" lon="7.00899">
        <ele>548.5693359</ele>
        <time>2011-02-05T08:17:39Z</time>
      </trkpt>
      <trkpt lat="43.74358" lon="7.009">
        <ele>549.5307617</ele>
        <time>2011-02-05T08:17:41Z</time>
      </trkpt>
      <trkpt lat="43.74355" lon="7.00903">
        <ele>550.0114746</ele>
        <time>2011-02-05T08:17:46Z</time>
      </trkpt>
      <trkpt lat="43.74356" lon="7.00909">
        <ele>550.0114746</ele>
        <time>2011-02-05T08:18:05Z</time>
      </trkpt>
      <trkpt lat="43.74356" lon="7.00909">
        <ele>552.4145508</ele>
        <time>2011-02-05T08:19:03Z</time>
      </trkpt>
      <trkpt lat="43.74356" lon="7.00909">
        <ele>553.8566895</ele>
        <time>2011-02-05T08:19:36Z</time>
      </trkpt>
      <trkpt lat="43.74366" lon="7.00907">
        <ele>553.8566895</ele>
        <time>2011-02-05T08:19:44Z</time>
      </trkpt>
      <trkpt lat="43.74367" lon="7.00911">
        <ele>553.8566895</ele>
        <time>2011-02-05T08:19:47Z</time>
      </trkpt>
      <trkpt lat="43.74359" lon="7.00912">
        <ele>554.8178711</ele>
        <time>2011-02-05T08:19:54Z</time>
      </trkpt>
      <trkpt lat="43.74354" lon="7.00912">
        <ele>555.298584</ele>
        <time>2011-02-05T08:19:59Z</time>
      </trkpt>
      <trkpt lat="43.74354" lon="7.0091">
        <ele>555.7792969</ele>
        <time>2011-02-05T08:20:11Z</time>
      </trkpt>
      <trkpt lat="43.74354" lon="7.00911">
        <ele>555.7792969</ele>
        <time>2011-02-05T08:20:15Z</time>
      </trkpt>
      <trkpt lat="43.74355" lon="7.00912">
        <ele>555.7792969</ele>
        <time>2011-02-05T08:20:17Z</time>
      </trkpt>
      <trkpt lat="43.74358" lon="7.00907">
        <ele>555.7792969</ele>
        <time>2011-02-05T08:20:25Z</time>
      </trkpt>
      <trkpt lat="43.74348" lon="7.00909">
        <ele>556.7407227</ele>
        <time>2011-02-05T08:20:34Z</time>
      </trkpt>
      <trkpt lat="43.74358" lon="7.00911">
        <ele>557.2214355</ele>
        <time>2011-02-05T08:20:39Z</time>
      </trkpt>
      <trkpt lat="43.74364" lon="7.00909">
        <ele>557.2214355</ele>
        <time>2011-02-05T08:20:41Z</time>
      </trkpt>
      <trkpt lat="43.74383" lon="7.00911">
        <ele>555.298584</ele>
        <time>2011-02-05T08:20:46Z</time>
      </trkpt>
      <trkpt lat="43.7439" lon="7.00932">
        <ele>556.2600098</ele>
        <time>2011-02-05T08:20:55Z</time>
      </trkpt>
      <trkpt lat="43.74392" lon="7.00938">
        <ele>556.7407227</ele>
        <time>2011-02-05T08:21:04Z</time>
      </trkpt>
      <trkpt lat="43.74391" lon="7.00948">
        <ele>558.1828613</ele>
        <time>2011-02-05T08:21:18Z</time>
      </trkpt>
      <trkpt lat="43.74382" lon="7.00957">
        <ele>560.1052246</ele>
        <time>2011-02-05T08:21:27Z</time>
      </trkpt>
      <trkpt lat="43.74377" lon="7.00959">
        <ele>561.0666504</ele>
        <time>2011-02-05T08:21:31Z</time>
      </trkpt>
      <trkpt lat="43.74372" lon="7.00971">
        <ele>562.9892578</ele>
        <time>2011-02-05T08:21:37Z</time>
      </trkpt>
      <trkpt lat="43.7437" lon="7.00977">
        <ele>563.4699707</ele>
        <time>2011-02-05T08:21:40Z</time>
      </trkpt>
      <trkpt lat="43.74358" lon="7.00996">
        <ele>567.3151855</ele>
        <time>2011-02-05T08:21:51Z</time>
      </trkpt>
      <trkpt lat="43.74352" lon="7.01004">
        <ele>569.237793</ele>
        <time>2011-02-05T08:21:57Z</time>
      </trkpt>
      <trkpt lat="43.74341" lon="7.01012">
        <ele>571.6408691</ele>
        <time>2011-02-05T08:22:06Z</time>
      </trkpt>
      <trkpt lat="43.7434" lon="7.01016">
        <ele>572.6025391</ele>
        <time>2011-02-05T08:22:09Z</time>
      </trkpt>
      <trkpt lat="43.74335" lon="7.01019">
        <ele>574.0444336</ele>
        <time>2011-02-05T08:22:13Z</time>
      </trkpt>
      <trkpt lat="43.74328" lon="7.01032">
        <ele>577.8896484</ele>
        <time>2011-02-05T08:22:23Z</time>
      </trkpt>
      <trkpt lat="43.74324" lon="7.01038">
        <ele>578.8510742</ele>
        <time>2011-02-05T08:22:27Z</time>
      </trkpt>
      <trkpt lat="43.7432" lon="7.01043">
        <ele>580.2929688</ele>
        <time>2011-02-05T08:22:31Z</time>
      </trkpt>
      <trkpt lat="43.74318" lon="7.01046">
        <ele>581.2543945</ele>
        <time>2011-02-05T08:22:33Z</time>
      </trkpt>
      <trkpt lat="43.74307" lon="7.01055">
        <ele>584.6188965</ele>
        <time>2011-02-05T08:22:40Z</time>
      </trkpt>
      <trkpt lat="43.74305" lon="7.01056">
        <ele>584.6188965</ele>
        <time>2011-02-05T08:22:41Z</time>
      </trkpt>
      <trkpt lat="43.74299" lon="7.01063">
        <ele>586.5415039</ele>
        <time>2011-02-05T08:22:47Z</time>
      </trkpt>
      <trkpt lat="43.74294" lon="7.0107">
        <ele>587.9833984</ele>
        <time>2011-02-05T08:22:52Z</time>
      </trkpt>
      <trkpt lat="43.74283" lon="7.01089">
        <ele>591.3481445</ele>
        <time>2011-02-05T08:23:05Z</time>
      </trkpt>
      <trkpt lat="43.74274" lon="7.01106">
        <ele>594.2321777</ele>
        <time>2011-02-05T08:23:18Z</time>
      </trkpt>
      <trkpt lat="43.74268" lon="7.01113">
        <ele>595.6740723</ele>
        <time>2011-02-05T08:23:26Z</time>
      </trkpt>
      <trkpt lat="43.74265" lon="7.01113">
        <ele>596.1547852</ele>
        <time>2011-02-05T08:23:30Z</time>
      </trkpt>
      <trkpt lat="43.74262" lon="7.01119">
        <ele>596.635498</ele>
        <time>2011-02-05T08:23:38Z</time>
      </trkpt>
      <trkpt lat="43.74258" lon="7.01119">
        <ele>598.5578613</ele>
        <time>2011-02-05T08:23:42Z</time>
      </trkpt>
      <trkpt lat="43.74252" lon="7.01123">
        <ele>600</ele>
        <time>2011-02-05T08:23:48Z</time>
      </trkpt>
      <trkpt lat="43.74247" lon="7.01125">
        <ele>600</ele>
        <time>2011-02-05T08:23:52Z</time>
      </trkpt>
      <trkpt lat="43.74244" lon="7.01131">
        <ele>600.9611816</ele>
        <time>2011-02-05T08:24:14Z</time>
      </trkpt>
      <trkpt lat="43.74244" lon="7.01131">
        <ele>600.9611816</ele>
        <time>2011-02-05T08:24:16Z</time>
      </trkpt>
      <trkpt lat="43.74232" lon="7.01139">
        <ele>603.8452148</ele>
        <time>2011-02-05T08:24:30Z</time>
      </trkpt>
      <trkpt lat="43.74215" lon="7.01148">
        <ele>607.2099609</ele>
        <time>2011-02-05T08:24:47Z</time>
      </trkpt>
      <trkpt lat="43.74203" lon="7.01154">
        <ele>610.09375</ele>
        <time>2011-02-05T08:24:56Z</time>
      </trkpt>
      <trkpt lat="43.7419" lon="7.01162">
        <ele>613.9389648</ele>
        <time>2011-02-05T08:25:08Z</time>
      </trkpt>
      <trkpt lat="43.74172" lon="7.01176">
        <ele>617.3037109</ele>
        <time>2011-02-05T08:25:24Z</time>
      </trkpt>
      <trkpt lat="43.74163" lon="7.01186">
        <ele>619.7070313</ele>
        <time>2011-02-05T08:25:32Z</time>
      </trkpt>
      <trkpt lat="43.74162" lon="7.01187">
        <ele>620.1877441</ele>
        <time>2011-02-05T08:25:33Z</time>
      </trkpt>
      <trkpt lat="43.74152" lon="7.01195">
        <ele>624.032959</ele>
        <time>2011-02-05T08:25:41Z</time>
      </trkpt>
      <trkpt lat="43.74151" lon="7.01197">
        <ele>624.032959</ele>
        <time>2011-02-05T08:25:42Z</time>
      </trkpt>
      <trkpt lat="43.74142" lon="7.01205">
        <ele>626.4362793</ele>
        <time>2011-02-05T08:25:50Z</time>
      </trkpt>
      <trkpt lat="43.74135" lon="7.01205">
        <ele>627.3977051</ele>
        <time>2011-02-05T08:25:55Z</time>
      </trkpt>
      <trkpt lat="43.74127" lon="7.01194">
        <ele>627.8781738</ele>
        <time>2011-02-05T08:26:06Z</time>
      </trkpt>
      <trkpt lat="43.74123" lon="7.01171">
        <ele>630.2814941</ele>
        <time>2011-02-05T08:26:19Z</time>
      </trkpt>
      <trkpt lat="43.74115" lon="7.01179">
        <ele>632.6848145</ele>
        <time>2011-02-05T08:26:30Z</time>
      </trkpt>
      <trkpt lat="43.74119" lon="7.01215">
        <ele>636.0495605</ele>
        <time>2011-02-05T08:26:51Z</time>
      </trkpt>
      <trkpt lat="43.74133" lon="7.01238">
        <ele>638.9335938</ele>
        <time>2011-02-05T08:27:07Z</time>
      </trkpt>
      <trkpt lat="43.74133" lon="7.01238">
        <ele>639.4140625</ele>
        <time>2011-02-05T08:27:08Z</time>
      </trkpt>
      <trkpt lat="43.74151" lon="7.0125">
        <ele>641.3366699</ele>
        <time>2011-02-05T08:27:28Z</time>
      </trkpt>
      <trkpt lat="43.74169" lon="7.01271">
        <ele>644.7011719</ele>
        <time>2011-02-05T08:27:44Z</time>
      </trkpt>
      <trkpt lat="43.74176" lon="7.01293">
        <ele>648.5463867</ele>
        <time>2011-02-05T08:27:58Z</time>
      </trkpt>
      <trkpt lat="43.74174" lon="7.01295">
        <ele>649.5078125</ele>
        <time>2011-02-05T08:27:59Z</time>
      </trkpt>
      <trkpt lat="43.74158" lon="7.01298">
        <ele>651.4304199</ele>
        <time>2011-02-05T08:28:17Z</time>
      </trkpt>
      <trkpt lat="43.74139" lon="7.01304">
        <ele>652.8725586</ele>
        <time>2011-02-05T08:28:33Z</time>
      </trkpt>
      <trkpt lat="43.74134" lon="7.01308">
        <ele>655.2758789</ele>
        <time>2011-02-05T08:28:38Z</time>
      </trkpt>
      <trkpt lat="43.74116" lon="7.0131">
        <ele>658.1599121</ele>
        <time>2011-02-05T08:28:52Z</time>
      </trkpt>
      <trkpt lat="43.74114" lon="7.01304">
        <ele>659.1210938</ele>
        <time>2011-02-05T08:29:17Z</time>
      </trkpt>
      <trkpt lat="43.74112" lon="7.01303">
        <ele>660.0822754</ele>
        <time>2011-02-05T08:30:23Z</time>
      </trkpt>
      <trkpt lat="43.74114" lon="7.01302">
        <ele>662.005127</ele>
        <time>2011-02-05T08:31:10Z</time>
      </trkpt>
      <trkpt lat="43.74114" lon="7.01302">
        <ele>663.9274902</ele>
        <time>2011-02-05T08:31:56Z</time>
      </trkpt>
      <trkpt lat="43.74115" lon="7.01302">
        <ele>664.888916</ele>
        <time>2011-02-05T08:32:46Z</time>
      </trkpt>
      <trkpt lat="43.74115" lon="7.01302">
        <ele>666.8115234</ele>
        <time>2011-02-05T08:33:47Z</time>
      </trkpt>
      <trkpt lat="43.74116" lon="7.01302">
        <ele>667.7727051</ele>
        <time>2011-02-05T08:34:28Z</time>
      </trkpt>
      <trkpt lat="43.74115" lon="7.01301">
        <ele>669.6958008</ele>
        <time>2011-02-05T08:35:48Z</time>
      </trkpt>
      <trkpt lat="43.74114" lon="7.01303">
        <ele>669.6958008</ele>
        <time>2011-02-05T08:35:54Z</time>
      </trkpt>
      <trkpt lat="43.7409" lon="7.01283">
        <ele>670.1762695</ele>
        <time>2011-02-05T08:36:09Z</time>
      </trkpt>
      <trkpt lat="43.74059" lon="7.01263">
        <ele>670.6569824</ele>
        <time>2011-02-05T08:36:27Z</time>
      </trkpt>
      <trkpt lat="43.74048" lon="7.01255">
        <ele>672.098877</ele>
        <time>2011-02-05T08:36:34Z</time>
      </trkpt>
      <trkpt lat="43.74024" lon="7.01259">
        <ele>674.0214844</ele>
        <time>2011-02-05T08:36:47Z</time>
      </trkpt>
      <trkpt lat="43.74018" lon="7.01264">
        <ele>674.9829102</ele>
        <time>2011-02-05T08:36:51Z</time>
      </trkpt>
      <trkpt lat="43.73985" lon="7.01288">
        <ele>677.3862305</ele>
        <time>2011-02-05T08:37:16Z</time>
      </trkpt>
      <trkpt lat="43.73969" lon="7.01287">
        <ele>678.828125</ele>
        <time>2011-02-05T08:37:29Z</time>
      </trkpt>
      <trkpt lat="43.73955" lon="7.01294">
        <ele>682.6733398</ele>
        <time>2011-02-05T08:37:41Z</time>
      </trkpt>
      <trkpt lat="43.73943" lon="7.01305">
        <ele>686.0380859</ele>
        <time>2011-02-05T08:37:54Z</time>
      </trkpt>
      <trkpt lat="43.73942" lon="7.01306">
        <ele>686.0380859</ele>
        <time>2011-02-05T08:37:55Z</time>
      </trkpt>
      <trkpt lat="43.7392" lon="7.01309">
        <ele>688.4414063</ele>
        <time>2011-02-05T08:38:14Z</time>
      </trkpt>
      <trkpt lat="43.73895" lon="7.01312">
        <ele>690.8444824</ele>
        <time>2011-02-05T08:38:35Z</time>
      </trkpt>
      <trkpt lat="43.7388" lon="7.01312">
        <ele>694.6896973</ele>
        <time>2011-02-05T08:38:48Z</time>
      </trkpt>
      <trkpt lat="43.73858" lon="7.01305">
        <ele>697.5737305</ele>
        <time>2011-02-05T08:39:02Z</time>
      </trkpt>
      <trkpt lat="43.73852" lon="7.01302">
        <ele>698.5349121</ele>
        <time>2011-02-05T08:39:06Z</time>
      </trkpt>
      <trkpt lat="43.73836" lon="7.01308">
        <ele>697.0930176</ele>
        <time>2011-02-05T08:39:20Z</time>
      </trkpt>
      <trkpt lat="43.73823" lon="7.01325">
        <ele>699.015625</ele>
        <time>2011-02-05T08:41:15Z</time>
      </trkpt>
      <trkpt lat="43.7381" lon="7.01361">
        <ele>698.5349121</ele>
        <time>2011-02-05T08:41:27Z</time>
      </trkpt>
      <trkpt lat="43.73806" lon="7.01372">
        <ele>699.9770508</ele>
        <time>2011-02-05T08:41:31Z</time>
      </trkpt>
      <trkpt lat="43.73803" lon="7.01377">
        <ele>701.4191895</ele>
        <time>2011-02-05T08:41:34Z</time>
      </trkpt>
      <trkpt lat="43.73799" lon="7.0138">
        <ele>701.8999023</ele>
        <time>2011-02-05T08:41:36Z</time>
      </trkpt>
      <trkpt lat="43.73795" lon="7.01385">
        <ele>704.7836914</ele>
        <time>2011-02-05T08:41:42Z</time>
      </trkpt>
      <trkpt lat="43.73786" lon="7.01386">
        <ele>707.6677246</ele>
        <time>2011-02-05T08:41:50Z</time>
      </trkpt>
      <trkpt lat="43.7378" lon="7.01385">
        <ele>709.590332</ele>
        <time>2011-02-05T08:41:54Z</time>
      </trkpt>
      <trkpt lat="43.73778" lon="7.01384">
        <ele>710.5515137</ele>
        <time>2011-02-05T08:41:56Z</time>
      </trkpt>
      <trkpt lat="43.73772" lon="7.0138">
        <ele>712.4741211</ele>
        <time>2011-02-05T08:42:12Z</time>
      </trkpt>
      <trkpt lat="43.7376" lon="7.01383">
        <ele>716.3195801</ele>
        <time>2011-02-05T08:42:24Z</time>
      </trkpt>
      <trkpt lat="43.73753" lon="7.01392">
        <ele>719.2036133</ele>
        <time>2011-02-05T08:42:36Z</time>
      </trkpt>
      <trkpt lat="43.73746" lon="7.01395">
        <ele>720.1647949</ele>
        <time>2011-02-05T08:42:52Z</time>
      </trkpt>
      <trkpt lat="43.73741" lon="7.01397">
        <ele>720.6455078</ele>
        <time>2011-02-05T08:42:55Z</time>
      </trkpt>
      <trkpt lat="43.73735" lon="7.01396">
        <ele>722.5681152</ele>
        <time>2011-02-05T08:43:04Z</time>
      </trkpt>
      <trkpt lat="43.73724" lon="7.01398">
        <ele>724.4907227</ele>
        <time>2011-02-05T08:43:15Z</time>
      </trkpt>
      <trkpt lat="43.73721" lon="7.01398">
        <ele>725.4519043</ele>
        <time>2011-02-05T08:43:18Z</time>
      </trkpt>
      <trkpt lat="43.73714" lon="7.01404">
        <ele>727.3747559</ele>
        <time>2011-02-05T08:43:24Z</time>
      </trkpt>
      <trkpt lat="43.7371" lon="7.01407">
        <ele>728.3359375</ele>
        <time>2011-02-05T08:43:30Z</time>
      </trkpt>
      <trkpt lat="43.73707" lon="7.0141">
        <ele>728.3359375</ele>
        <time>2011-02-05T08:43:34Z</time>
      </trkpt>
      <trkpt lat="43.737" lon="7.01405">
        <ele>730.2585449</ele>
        <time>2011-02-05T08:43:48Z</time>
      </trkpt>
      <trkpt lat="43.73699" lon="7.01406">
        <ele>730.2585449</ele>
        <time>2011-02-05T08:43:53Z</time>
      </trkpt>
      <trkpt lat="43.73696" lon="7.0141">
        <ele>731.7004395</ele>
        <time>2011-02-05T08:43:58Z</time>
      </trkpt>
      <trkpt lat="43.73692" lon="7.01417">
        <ele>733.623291</ele>
        <time>2011-02-05T08:44:14Z</time>
      </trkpt>
      <trkpt lat="43.73691" lon="7.01418">
        <ele>735.0654297</ele>
        <time>2011-02-05T08:44:16Z</time>
      </trkpt>
      <trkpt lat="43.73686" lon="7.01416">
        <ele>736.5073242</ele>
        <time>2011-02-05T08:44:22Z</time>
      </trkpt>
      <trkpt lat="43.73683" lon="7.01406">
        <ele>737.9492188</ele>
        <time>2011-02-05T08:44:37Z</time>
      </trkpt>
      <trkpt lat="43.73681" lon="7.01398">
        <ele>738.4299316</ele>
        <time>2011-02-05T08:44:41Z</time>
      </trkpt>
      <trkpt lat="43.73673" lon="7.01391">
        <ele>739.8718262</ele>
        <time>2011-02-05T08:44:46Z</time>
      </trkpt>
      <trkpt lat="43.73663" lon="7.01376">
        <ele>742.7558594</ele>
        <time>2011-02-05T08:44:54Z</time>
      </trkpt>
      <trkpt lat="43.73661" lon="7.01374">
        <ele>742.7558594</ele>
        <time>2011-02-05T08:44:55Z</time>
      </trkpt>
      <trkpt lat="43.73652" lon="7.01365">
        <ele>744.1977539</ele>
        <time>2011-02-05T08:45:02Z</time>
      </trkpt>
      <trkpt lat="43.73649" lon="7.01363">
        <ele>744.6782227</ele>
        <time>2011-02-05T08:45:08Z</time>
      </trkpt>
      <trkpt lat="43.73658" lon="7.01364">
        <ele>743.717041</ele>
        <time>2011-02-05T08:45:24Z</time>
      </trkpt>
      <trkpt lat="43.73658" lon="7.01363">
        <ele>744.1977539</ele>
        <time>2011-02-05T08:45:58Z</time>
      </trkpt>
      <trkpt lat="43.73658" lon="7.01371">
        <ele>744.1977539</ele>
        <time>2011-02-05T08:46:10Z</time>
      </trkpt>
      <trkpt lat="43.73657" lon="7.01366">
        <ele>744.6782227</ele>
        <time>2011-02-05T08:46:34Z</time>
      </trkpt>
      <trkpt lat="43.73656" lon="7.01365">
        <ele>745.1589355</ele>
        <time>2011-02-05T08:46:39Z</time>
      </trkpt>
      <trkpt lat="43.73653" lon="7.01361">
        <ele>745.1589355</ele>
        <time>2011-02-05T08:46:43Z</time>
      </trkpt>
      <trkpt lat="43.73652" lon="7.01357">
        <ele>746.6010742</ele>
        <time>2011-02-05T08:46:58Z</time>
      </trkpt>
      <trkpt lat="43.73656" lon="7.01363">
        <ele>746.1203613</ele>
        <time>2011-02-05T08:47:20Z</time>
      </trkpt>
      <trkpt lat="43.73649" lon="7.01362">
        <ele>746.6010742</ele>
        <time>2011-02-05T08:47:33Z</time>
      </trkpt>
      <trkpt lat="43.73647" lon="7.01357">
        <ele>747.5622559</ele>
        <time>2011-02-05T08:47:46Z</time>
      </trkpt>
      <trkpt lat="43.73643" lon="7.01365">
        <ele>748.5236816</ele>
        <time>2011-02-05T08:48:04Z</time>
      </trkpt>
      <trkpt lat="43.73644" lon="7.01367">
        <ele>748.5236816</ele>
        <time>2011-02-05T08:48:25Z</time>
      </trkpt>
      <trkpt lat="43.73644" lon="7.01366">
        <ele>749.0043945</ele>
        <time>2011-02-05T08:49:05Z</time>
      </trkpt>
      <trkpt lat="43.73642" lon="7.01368">
        <ele>750.4465332</ele>
        <time>2011-02-05T08:50:01Z</time>
      </trkpt>
      <trkpt lat="43.73641" lon="7.01369">
        <ele>750.4465332</ele>
        <time>2011-02-05T08:50:13Z</time>
      </trkpt>
      <trkpt lat="43.73633" lon="7.01369">
        <ele>751.4077148</ele>
        <time>2011-02-05T08:50:17Z</time>
      </trkpt>
      <trkpt lat="43.7362" lon="7.01366">
        <ele>751.4077148</ele>
        <time>2011-02-05T08:50:24Z</time>
      </trkpt>
      <trkpt lat="43.73617" lon="7.01355">
        <ele>752.3688965</ele>
        <time>2011-02-05T08:50:29Z</time>
      </trkpt>
      <trkpt lat="43.73613" lon="7.01337">
        <ele>755.7336426</ele>
        <time>2011-02-05T08:50:38Z</time>
      </trkpt>
      <trkpt lat="43.73612" lon="7.01332">
        <ele>756.2141113</ele>
        <time>2011-02-05T08:50:41Z</time>
      </trkpt>
      <trkpt lat="43.73609" lon="7.01321">
        <ele>758.1369629</ele>
        <time>2011-02-05T08:50:47Z</time>
      </trkpt>
      <trkpt lat="43.73608" lon="7.01315">
        <ele>758.6174316</ele>
        <time>2011-02-05T08:50:51Z</time>
      </trkpt>
      <trkpt lat="43.73603" lon="7.01318">
        <ele>759.5788574</ele>
        <time>2011-02-05T08:50:56Z</time>
      </trkpt>
      <trkpt lat="43.73601" lon="7.0132">
        <ele>761.020752</ele>
        <time>2011-02-05T08:50:58Z</time>
      </trkpt>
      <trkpt lat="43.73585" lon="7.01329">
        <ele>763.904541</ele>
        <time>2011-02-05T08:51:11Z</time>
      </trkpt>
      <trkpt lat="43.73579" lon="7.01333">
        <ele>765.3469238</ele>
        <time>2011-02-05T08:51:18Z</time>
      </trkpt>
      <trkpt lat="43.7357" lon="7.0134">
        <ele>768.7114258</ele>
        <time>2011-02-05T08:51:30Z</time>
      </trkpt>
      <trkpt lat="43.73569" lon="7.01341">
        <ele>768.7114258</ele>
        <time>2011-02-05T08:51:31Z</time>
      </trkpt>
      <trkpt lat="43.73568" lon="7.01342">
        <ele>768.2307129</ele>
        <time>2011-02-05T08:51:32Z</time>
      </trkpt>
      <trkpt lat="43.73564" lon="7.01344">
        <ele>769.1921387</ele>
        <time>2011-02-05T08:51:36Z</time>
      </trkpt>
      <trkpt lat="43.73561" lon="7.01341">
        <ele>770.1533203</ele>
        <time>2011-02-05T08:51:46Z</time>
      </trkpt>
      <trkpt lat="43.73561" lon="7.01342">
        <ele>768.7114258</ele>
        <time>2011-02-05T08:51:53Z</time>
      </trkpt>
      <trkpt lat="43.73561" lon="7.01341">
        <ele>770.1533203</ele>
        <time>2011-02-05T08:52:14Z</time>
      </trkpt>
      <trkpt lat="43.73559" lon="7.01336">
        <ele>770.6340332</ele>
        <time>2011-02-05T08:52:28Z</time>
      </trkpt>
      <trkpt lat="43.73559" lon="7.01336">
        <ele>771.1147461</ele>
        <time>2011-02-05T08:52:31Z</time>
      </trkpt>
      <trkpt lat="43.73554" lon="7.01315">
        <ele>773.5180664</ele>
        <time>2011-02-05T08:52:41Z</time>
      </trkpt>
      <trkpt lat="43.73551" lon="7.01308">
        <ele>774.9599609</ele>
        <time>2011-02-05T08:52:46Z</time>
      </trkpt>
      <trkpt lat="43.73546" lon="7.01301">
        <ele>775.9211426</ele>
        <time>2011-02-05T08:52:51Z</time>
      </trkpt>
      <trkpt lat="43.73536" lon="7.01295">
        <ele>777.3632813</ele>
        <time>2011-02-05T08:52:59Z</time>
      </trkpt>
      <trkpt lat="43.73521" lon="7.01283">
        <ele>779.7663574</ele>
        <time>2011-02-05T08:53:10Z</time>
      </trkpt>
      <trkpt lat="43.73511" lon="7.01275">
        <ele>781.2087402</ele>
        <time>2011-02-05T08:53:19Z</time>
      </trkpt>
      <trkpt lat="43.735" lon="7.0127">
        <ele>782.6506348</ele>
        <time>2011-02-05T08:53:27Z</time>
      </trkpt>
      <trkpt lat="43.73489" lon="7.01272">
        <ele>784.0925293</ele>
        <time>2011-02-05T08:53:43Z</time>
      </trkpt>
      <trkpt lat="43.73488" lon="7.01271">
        <ele>784.0925293</ele>
        <time>2011-02-05T08:53:44Z</time>
      </trkpt>
      <trkpt lat="43.73488" lon="7.01267">
        <ele>784.5732422</ele>
        <time>2011-02-05T08:53:55Z</time>
      </trkpt>
      <trkpt lat="43.73489" lon="7.01266">
        <ele>787.4570313</ele>
        <time>2011-02-05T08:56:49Z</time>
      </trkpt>
      <trkpt lat="43.73488" lon="7.01267">
        <ele>788.418457</ele>
        <time>2011-02-05T08:57:45Z</time>
      </trkpt>
      <trkpt lat="43.73473" lon="7.0127">
        <ele>790.8215332</ele>
        <time>2011-02-05T08:57:54Z</time>
      </trkpt>
      <trkpt lat="43.7347" lon="7.01273">
        <ele>792.2636719</ele>
        <time>2011-02-05T08:57:58Z</time>
      </trkpt>
      <trkpt lat="43.73459" lon="7.01273">
        <ele>793.7055664</ele>
        <time>2011-02-05T08:58:05Z</time>
      </trkpt>
      <trkpt lat="43.73451" lon="7.01256">
        <ele>796.1091309</ele>
        <time>2011-02-05T08:58:15Z</time>
      </trkpt>
      <trkpt lat="43.73444" lon="7.01249">
        <ele>797.0703125</ele>
        <time>2011-02-05T08:58:22Z</time>
      </trkpt>
      <trkpt lat="43.73435" lon="7.01239">
        <ele>797.5510254</ele>
        <time>2011-02-05T08:58:30Z</time>
      </trkpt>
      <trkpt lat="43.73427" lon="7.01223">
        <ele>798.9929199</ele>
        <time>2011-02-05T08:58:39Z</time>
      </trkpt>
      <trkpt lat="43.7342" lon="7.01213">
        <ele>799.9543457</ele>
        <time>2011-02-05T08:58:46Z</time>
      </trkpt>
      <trkpt lat="43.73394" lon="7.01187">
        <ele>798.9929199</ele>
        <time>2011-02-05T08:59:00Z</time>
      </trkpt>
      <trkpt lat="43.73388" lon="7.01166">
        <ele>799.9543457</ele>
        <time>2011-02-05T08:59:11Z</time>
      </trkpt>
      <trkpt lat="43.73388" lon="7.01163">
        <ele>800.9155273</ele>
        <time>2011-02-05T08:59:23Z</time>
      </trkpt>
      <trkpt lat="43.73387" lon="7.01158">
        <ele>802.8381348</ele>
        <time>2011-02-05T09:01:39Z</time>
      </trkpt>
      <trkpt lat="43.73381" lon="7.01154">
        <ele>804.2802734</ele>
        <time>2011-02-05T09:01:44Z</time>
      </trkpt>
      <trkpt lat="43.73377" lon="7.01158">
        <ele>804.7607422</ele>
        <time>2011-02-05T09:01:50Z</time>
      </trkpt>
      <trkpt lat="43.73373" lon="7.0116">
        <ele>805.722168</ele>
        <time>2011-02-05T09:01:57Z</time>
      </trkpt>
      <trkpt lat="43.73369" lon="7.01155">
        <ele>806.6833496</ele>
        <time>2011-02-05T09:02:01Z</time>
      </trkpt>
      <trkpt lat="43.73366" lon="7.01146">
        <ele>807.6447754</ele>
        <time>2011-02-05T09:02:05Z</time>
      </trkpt>
      <trkpt lat="43.73362" lon="7.01141">
        <ele>809.5673828</ele>
        <time>2011-02-05T09:02:09Z</time>
      </trkpt>
      <trkpt lat="43.73359" lon="7.01136">
        <ele>810.0478516</ele>
        <time>2011-02-05T09:02:13Z</time>
      </trkpt>
      <trkpt lat="43.73352" lon="7.01108">
        <ele>812.9321289</ele>
        <time>2011-02-05T09:02:27Z</time>
      </trkpt>
      <trkpt lat="43.73351" lon="7.01102">
        <ele>813.4128418</ele>
        <time>2011-02-05T09:02:30Z</time>
      </trkpt>
      <trkpt lat="43.73351" lon="7.01082">
        <ele>815.8161621</ele>
        <time>2011-02-05T09:02:40Z</time>
      </trkpt>
      <trkpt lat="43.7335" lon="7.01056">
        <ele>817.7385254</ele>
        <time>2011-02-05T09:02:51Z</time>
      </trkpt>
      <trkpt lat="43.73347" lon="7.01049">
        <ele>820.1418457</ele>
        <time>2011-02-05T09:02:55Z</time>
      </trkpt>
      <trkpt lat="43.73341" lon="7.01023">
        <ele>822.545166</ele>
        <time>2011-02-05T09:03:09Z</time>
      </trkpt>
      <trkpt lat="43.73332" lon="7.01013">
        <ele>824.4677734</ele>
        <time>2011-02-05T09:03:17Z</time>
      </trkpt>
      <trkpt lat="43.73324" lon="7.01001">
        <ele>825.4289551</ele>
        <time>2011-02-05T09:03:24Z</time>
      </trkpt>
      <trkpt lat="43.73317" lon="7.00996">
        <ele>825.909668</ele>
        <time>2011-02-05T09:03:30Z</time>
      </trkpt>
      <trkpt lat="43.73315" lon="7.00996">
        <ele>826.3903809</ele>
        <time>2011-02-05T09:03:32Z</time>
      </trkpt>
      <trkpt lat="43.73308" lon="7.00993">
        <ele>827.3518066</ele>
        <time>2011-02-05T09:03:37Z</time>
      </trkpt>
      <trkpt lat="43.73305" lon="7.00993">
        <ele>827.8322754</ele>
        <time>2011-02-05T09:03:39Z</time>
      </trkpt>
      <trkpt lat="43.73297" lon="7.00991">
        <ele>828.3132324</ele>
        <time>2011-02-05T09:03:44Z</time>
      </trkpt>
      <trkpt lat="43.73296" lon="7.00989">
        <ele>829.2744141</ele>
        <time>2011-02-05T09:03:46Z</time>
      </trkpt>
      <trkpt lat="43.73288" lon="7.00987">
        <ele>829.755127</ele>
        <time>2011-02-05T09:03:51Z</time>
      </trkpt>
      <trkpt lat="43.73281" lon="7.00983">
        <ele>830.7165527</ele>
        <time>2011-02-05T09:03:56Z</time>
      </trkpt>
      <trkpt lat="43.73273" lon="7.00976">
        <ele>832.6391602</ele>
        <time>2011-02-05T09:04:03Z</time>
      </trkpt>
      <trkpt lat="43.73247" lon="7.00968">
        <ele>833.6003418</ele>
        <time>2011-02-05T09:04:18Z</time>
      </trkpt>
      <trkpt lat="43.73238" lon="7.0096">
        <ele>834.5617676</ele>
        <time>2011-02-05T09:04:26Z</time>
      </trkpt>
      <trkpt lat="43.73223" lon="7.0096">
        <ele>836.0036621</ele>
        <time>2011-02-05T09:04:40Z</time>
      </trkpt>
      <trkpt lat="43.73222" lon="7.0096">
        <ele>836.0036621</ele>
        <time>2011-02-05T09:04:41Z</time>
      </trkpt>
      <trkpt lat="43.7321" lon="7.00965">
        <ele>837.9262695</ele>
        <time>2011-02-05T09:04:47Z</time>
      </trkpt>
      <trkpt lat="43.73192" lon="7.00963">
        <ele>840.3295898</ele>
        <time>2011-02-05T09:04:54Z</time>
      </trkpt>
      <trkpt lat="43.73173" lon="7.00961">
        <ele>842.2521973</ele>
        <time>2011-02-05T09:05:03Z</time>
      </trkpt>
      <trkpt lat="43.73172" lon="7.00961">
        <ele>842.7329102</ele>
        <time>2011-02-05T09:05:05Z</time>
      </trkpt>
      <trkpt lat="43.73163" lon="7.0096">
        <ele>844.6555176</ele>
        <time>2011-02-05T09:05:10Z</time>
      </trkpt>
      <trkpt lat="43.73153" lon="7.00958">
        <ele>844.6555176</ele>
        <time>2011-02-05T09:05:15Z</time>
      </trkpt>
      <trkpt lat="43.73144" lon="7.00956">
        <ele>845.1362305</ele>
        <time>2011-02-05T09:05:27Z</time>
      </trkpt>
      <trkpt lat="43.73141" lon="7.00951">
        <ele>845.1362305</ele>
        <time>2011-02-05T09:05:44Z</time>
      </trkpt>
      <trkpt lat="43.73141" lon="7.00951">
        <ele>847.0588379</ele>
        <time>2011-02-05T09:08:32Z</time>
      </trkpt>
      <trkpt lat="43.73141" lon="7.00951">
        <ele>847.0588379</ele>
        <time>2011-02-05T09:08:49Z</time>
      </trkpt>
      <trkpt lat="43.7314" lon="7.00948">
        <ele>846.5783691</ele>
        <time>2011-02-05T09:09:20Z</time>
      </trkpt>
      <trkpt lat="43.73139" lon="7.00948">
        <ele>848.0202637</ele>
        <time>2011-02-05T09:10:20Z</time>
      </trkpt>
      <trkpt lat="43.73139" lon="7.00949">
        <ele>848.9814453</ele>
        <time>2011-02-05T09:10:56Z</time>
      </trkpt>
      <trkpt lat="43.73138" lon="7.00951">
        <ele>848.9814453</ele>
        <time>2011-02-05T09:11:20Z</time>
      </trkpt>
      <trkpt lat="43.73131" lon="7.00956">
        <ele>850.423584</ele>
        <time>2011-02-05T09:11:36Z</time>
      </trkpt>
      <trkpt lat="43.73129" lon="7.00955">
        <ele>850.423584</ele>
        <time>2011-02-05T09:11:46Z</time>
      </trkpt>
      <trkpt lat="43.73127" lon="7.00954">
        <ele>850.9040527</ele>
        <time>2011-02-05T09:11:48Z</time>
      </trkpt>
      <trkpt lat="43.73124" lon="7.00956">
        <ele>851.3847656</ele>
        <time>2011-02-05T09:11:50Z</time>
      </trkpt>
      <trkpt lat="43.73107" lon="7.00954">
        <ele>853.7880859</ele>
        <time>2011-02-05T09:12:01Z</time>
      </trkpt>
      <trkpt lat="43.73101" lon="7.00955">
        <ele>854.7492676</ele>
        <time>2011-02-05T09:12:14Z</time>
      </trkpt>
      <trkpt lat="43.73101" lon="7.00953">
        <ele>853.7880859</ele>
        <time>2011-02-05T09:12:17Z</time>
      </trkpt>
      <trkpt lat="43.73092" lon="7.00951">
        <ele>854.2687988</ele>
        <time>2011-02-05T09:12:23Z</time>
      </trkpt>
      <trkpt lat="43.73088" lon="7.00949">
        <ele>854.7492676</ele>
        <time>2011-02-05T09:12:25Z</time>
      </trkpt>
      <trkpt lat="43.73077" lon="7.00948">
        <ele>856.671875</ele>
        <time>2011-02-05T09:12:32Z</time>
      </trkpt>
      <trkpt lat="43.73067" lon="7.0095">
        <ele>857.1525879</ele>
        <time>2011-02-05T09:12:38Z</time>
      </trkpt>
      <trkpt lat="43.73062" lon="7.00952">
        <ele>858.5944824</ele>
        <time>2011-02-05T09:12:41Z</time>
      </trkpt>
      <trkpt lat="43.73044" lon="7.00957">
        <ele>861.4787598</ele>
        <time>2011-02-05T09:12:54Z</time>
      </trkpt>
      <trkpt lat="43.73028" lon="7.00961">
        <ele>862.4399414</ele>
        <time>2011-02-05T09:13:03Z</time>
      </trkpt>
      <trkpt lat="43.73013" lon="7.00962">
        <ele>864.8432617</ele>
        <time>2011-02-05T09:13:11Z</time>
      </trkpt>
      <trkpt lat="43.72995" lon="7.00963">
        <ele>867.246582</ele>
        <time>2011-02-05T09:13:20Z</time>
      </trkpt>
      <trkpt lat="43.72989" lon="7.00954">
        <ele>868.2077637</ele>
        <time>2011-02-05T09:13:31Z</time>
      </trkpt>
      <trkpt lat="43.72989" lon="7.00956">
        <ele>868.6884766</ele>
        <time>2011-02-05T09:13:49Z</time>
      </trkpt>
      <trkpt lat="43.72991" lon="7.00956">
        <ele>868.2077637</ele>
        <time>2011-02-05T09:14:03Z</time>
      </trkpt>
      <trkpt lat="43.72992" lon="7.00954">
        <ele>868.6884766</ele>
        <time>2011-02-05T09:14:34Z</time>
      </trkpt>
      <trkpt lat="43.72993" lon="7.00955">
        <ele>868.2077637</ele>
        <time>2011-02-05T09:15:05Z</time>
      </trkpt>
      <trkpt lat="43.72993" lon="7.00955">
        <ele>869.1691895</ele>
        <time>2011-02-05T09:16:40Z</time>
      </trkpt>
      <trkpt lat="43.72993" lon="7.00954">
        <ele>869.1691895</ele>
        <time>2011-02-05T09:17:06Z</time>
      </trkpt>
      <trkpt lat="43.7299" lon="7.00955">
        <ele>869.6499023</ele>
        <time>2011-02-05T09:18:13Z</time>
      </trkpt>
      <trkpt lat="43.72989" lon="7.00954">
        <ele>870.1303711</ele>
        <time>2011-02-05T09:18:18Z</time>
      </trkpt>
      <trkpt lat="43.72983" lon="7.0095">
        <ele>871.5722656</ele>
        <time>2011-02-05T09:18:23Z</time>
      </trkpt>
      <trkpt lat="43.7298" lon="7.0095">
        <ele>871.5722656</ele>
        <time>2011-02-05T09:18:25Z</time>
      </trkpt>
      <trkpt lat="43.72967" lon="7.00947">
        <ele>873.4951172</ele>
        <time>2011-02-05T09:18:32Z</time>
      </trkpt>
      <trkpt lat="43.72956" lon="7.00975">
        <ele>875.8981934</ele>
        <time>2011-02-05T09:18:48Z</time>
      </trkpt>
      <trkpt lat="43.7295" lon="7.00989">
        <ele>876.3791504</ele>
        <time>2011-02-05T09:18:57Z</time>
      </trkpt>
      <trkpt lat="43.72949" lon="7.00993">
        <ele>877.3405762</ele>
        <time>2011-02-05T09:19:01Z</time>
      </trkpt>
      <trkpt lat="43.72926" lon="7.01028">
        <ele>878.7824707</ele>
        <time>2011-02-05T09:19:21Z</time>
      </trkpt>
      <trkpt lat="43.72918" lon="7.0105">
        <ele>880.2243652</ele>
        <time>2011-02-05T09:19:30Z</time>
      </trkpt>
      <trkpt lat="43.72914" lon="7.01059">
        <ele>880.7050781</ele>
        <time>2011-02-05T09:19:37Z</time>
      </trkpt>
      <trkpt lat="43.72911" lon="7.01064">
        <ele>881.185791</ele>
        <time>2011-02-05T09:19:40Z</time>
      </trkpt>
      <trkpt lat="43.72902" lon="7.01107">
        <ele>883.1081543</ele>
        <time>2011-02-05T09:20:00Z</time>
      </trkpt>
      <trkpt lat="43.72885" lon="7.01139">
        <ele>885.0310059</ele>
        <time>2011-02-05T09:20:15Z</time>
      </trkpt>
      <trkpt lat="43.7286" lon="7.01168">
        <ele>888.3955078</ele>
        <time>2011-02-05T09:20:32Z</time>
      </trkpt>
      <trkpt lat="43.72844" lon="7.01197">
        <ele>890.798584</ele>
        <time>2011-02-05T09:20:44Z</time>
      </trkpt>
      <trkpt lat="43.72846" lon="7.01245">
        <ele>894.1635742</ele>
        <time>2011-02-05T09:21:01Z</time>
      </trkpt>
      <trkpt lat="43.72854" lon="7.01267">
        <ele>895.6054688</ele>
        <time>2011-02-05T09:21:11Z</time>
      </trkpt>
      <trkpt lat="43.72858" lon="7.01296">
        <ele>897.5280762</ele>
        <time>2011-02-05T09:21:25Z</time>
      </trkpt>
      <trkpt lat="43.72859" lon="7.01301">
        <ele>897.5280762</ele>
        <time>2011-02-05T09:21:37Z</time>
      </trkpt>
      <trkpt lat="43.72858" lon="7.01305">
        <ele>898.4892578</ele>
        <time>2011-02-05T09:21:45Z</time>
      </trkpt>
      <trkpt lat="43.72853" lon="7.01335">
        <ele>900.8925781</ele>
        <time>2011-02-05T09:22:00Z</time>
      </trkpt>
      <trkpt lat="43.7285" lon="7.0135">
        <ele>902.3344727</ele>
        <time>2011-02-05T09:22:08Z</time>
      </trkpt>
      <trkpt lat="43.7285" lon="7.01355">
        <ele>903.2958984</ele>
        <time>2011-02-05T09:22:11Z</time>
      </trkpt>
      <trkpt lat="43.7285" lon="7.0136">
        <ele>903.7766113</ele>
        <time>2011-02-05T09:22:15Z</time>
      </trkpt>
      <trkpt lat="43.72851" lon="7.01363">
        <ele>903.7766113</ele>
        <time>2011-02-05T09:22:19Z</time>
      </trkpt>
      <trkpt lat="43.72852" lon="7.01365">
        <ele>904.2573242</ele>
        <time>2011-02-05T09:22:21Z</time>
      </trkpt>
      <trkpt lat="43.72855" lon="7.01373">
        <ele>905.2185059</ele>
        <time>2011-02-05T09:22:29Z</time>
      </trkpt>
      <trkpt lat="43.72855" lon="7.01377">
        <ele>906.1796875</ele>
        <time>2011-02-05T09:22:32Z</time>
      </trkpt>
      <trkpt lat="43.7284" lon="7.01385">
        <ele>908.1027832</ele>
        <time>2011-02-05T09:22:52Z</time>
      </trkpt>
      <trkpt lat="43.72834" lon="7.01378">
        <ele>909.0639648</ele>
        <time>2011-02-05T09:22:59Z</time>
      </trkpt>
      <trkpt lat="43.72833" lon="7.0137">
        <ele>909.5446777</ele>
        <time>2011-02-05T09:23:15Z</time>
      </trkpt>
      <trkpt lat="43.72833" lon="7.0137">
        <ele>910.0251465</ele>
        <time>2011-02-05T09:23:33Z</time>
      </trkpt>
      <trkpt lat="43.72834" lon="7.0137">
        <ele>910.0251465</ele>
        <time>2011-02-05T09:24:31Z</time>
      </trkpt>
      <trkpt lat="43.72834" lon="7.0137">
        <ele>910.0251465</ele>
        <time>2011-02-05T09:24:48Z</time>
      </trkpt>
      <trkpt lat="43.72833" lon="7.01368">
        <ele>910.9865723</ele>
        <time>2011-02-05T09:25:14Z</time>
      </trkpt>
      <trkpt lat="43.72832" lon="7.01368">
        <ele>910.9865723</ele>
        <time>2011-02-05T09:25:27Z</time>
      </trkpt>
      <trkpt lat="43.72831" lon="7.01367">
        <ele>911.4672852</ele>
        <time>2011-02-05T09:26:00Z</time>
      </trkpt>
      <trkpt lat="43.72809" lon="7.01356">
        <ele>914.8317871</ele>
        <time>2011-02-05T09:26:14Z</time>
      </trkpt>
      <trkpt lat="43.72807" lon="7.01355">
        <ele>914.8317871</ele>
        <time>2011-02-05T09:26:15Z</time>
      </trkpt>
      <trkpt lat="43.72784" lon="7.01339">
        <ele>918.1962891</ele>
        <time>2011-02-05T09:26:28Z</time>
      </trkpt>
      <trkpt lat="43.72775" lon="7.0133">
        <ele>921.0803223</ele>
        <time>2011-02-05T09:26:34Z</time>
      </trkpt>
      <trkpt lat="43.72768" lon="7.01319">
        <ele>922.0415039</ele>
        <time>2011-02-05T09:26:47Z</time>
      </trkpt>
      <trkpt lat="43.72764" lon="7.0131">
        <ele>923.4836426</ele>
        <time>2011-02-05T09:27:05Z</time>
      </trkpt>
      <trkpt lat="43.7276" lon="7.01305">
        <ele>924.4450684</ele>
        <time>2011-02-05T09:27:18Z</time>
      </trkpt>
      <trkpt lat="43.72754" lon="7.013">
        <ele>925.40625</ele>
        <time>2011-02-05T09:27:36Z</time>
      </trkpt>
      <trkpt lat="43.72748" lon="7.01287">
        <ele>927.3291016</ele>
        <time>2011-02-05T09:27:53Z</time>
      </trkpt>
      <trkpt lat="43.7274" lon="7.01269">
        <ele>929.7321777</ele>
        <time>2011-02-05T09:28:04Z</time>
      </trkpt>
      <trkpt lat="43.72734" lon="7.01259">
        <ele>931.1743164</ele>
        <time>2011-02-05T09:28:15Z</time>
      </trkpt>
      <trkpt lat="43.72725" lon="7.01247">
        <ele>933.0966797</ele>
        <time>2011-02-05T09:28:30Z</time>
      </trkpt>
      <trkpt lat="43.72716" lon="7.01235">
        <ele>934.0581055</ele>
        <time>2011-02-05T09:28:44Z</time>
      </trkpt>
      <trkpt lat="43.72699" lon="7.01211">
        <ele>937.4226074</ele>
        <time>2011-02-05T09:28:56Z</time>
      </trkpt>
      <trkpt lat="43.72677" lon="7.01197">
        <ele>937.9033203</ele>
        <time>2011-02-05T09:29:13Z</time>
      </trkpt>
      <trkpt lat="43.72676" lon="7.01202">
        <ele>937.9033203</ele>
        <time>2011-02-05T09:29:23Z</time>
      </trkpt>
      <trkpt lat="43.72677" lon="7.01202">
        <ele>938.3840332</ele>
        <time>2011-02-05T09:29:47Z</time>
      </trkpt>
      <trkpt lat="43.72679" lon="7.01199">
        <ele>937.9033203</ele>
        <time>2011-02-05T09:30:03Z</time>
      </trkpt>
      <trkpt lat="43.72681" lon="7.01198">
        <ele>938.3840332</ele>
        <time>2011-02-05T09:31:11Z</time>
      </trkpt>
      <trkpt lat="43.72679" lon="7.01199">
        <ele>938.8647461</ele>
        <time>2011-02-05T09:31:20Z</time>
      </trkpt>
      <trkpt lat="43.72658" lon="7.01198">
        <ele>938.8647461</ele>
        <time>2011-02-05T09:31:32Z</time>
      </trkpt>
      <trkpt lat="43.72647" lon="7.01201">
        <ele>938.3840332</ele>
        <time>2011-02-05T09:31:37Z</time>
      </trkpt>
      <trkpt lat="43.72636" lon="7.01209">
        <ele>938.3840332</ele>
        <time>2011-02-05T09:31:40Z</time>
      </trkpt>
      <trkpt lat="43.7262" lon="7.01218">
        <ele>936.9418945</ele>
        <time>2011-02-05T09:31:43Z</time>
      </trkpt>
      <trkpt lat="43.72598" lon="7.01233">
        <ele>934.5388184</ele>
        <time>2011-02-05T09:31:47Z</time>
      </trkpt>
      <trkpt lat="43.72572" lon="7.01244">
        <ele>933.5773926</ele>
        <time>2011-02-05T09:31:51Z</time>
      </trkpt>
      <trkpt lat="43.72544" lon="7.01271">
        <ele>930.6936035</ele>
        <time>2011-02-05T09:31:56Z</time>
      </trkpt>
      <trkpt lat="43.72528" lon="7.01291">
        <ele>928.7709961</ele>
        <time>2011-02-05T09:31:59Z</time>
      </trkpt>
      <trkpt lat="43.72503" lon="7.0131">
        <ele>926.8483887</ele>
        <time>2011-02-05T09:32:03Z</time>
      </trkpt>
      <trkpt lat="43.72427" lon="7.01358">
        <ele>923.4836426</ele>
        <time>2011-02-05T09:32:15Z</time>
      </trkpt>
      <trkpt lat="43.72422" lon="7.01362">
        <ele>923.0029297</ele>
        <time>2011-02-05T09:32:16Z</time>
      </trkpt>
      <trkpt lat="43.72398" lon="7.01377">
        <ele>923.0029297</ele>
        <time>2011-02-05T09:32:21Z</time>
      </trkpt>
      <trkpt lat="43.7239" lon="7.01382">
        <ele>921.560791</ele>
        <time>2011-02-05T09:32:23Z</time>
      </trkpt>
      <trkpt lat="43.72381" lon="7.01386">
        <ele>921.0803223</ele>
        <time>2011-02-05T09:32:25Z</time>
      </trkpt>
      <trkpt lat="43.72361" lon="7.01397">
        <ele>919.6384277</ele>
        <time>2011-02-05T09:32:29Z</time>
      </trkpt>
      <trkpt lat="43.72332" lon="7.01402">
        <ele>918.1962891</ele>
        <time>2011-02-05T09:32:33Z</time>
      </trkpt>
      <trkpt lat="43.72301" lon="7.01406">
        <ele>915.3125</ele>
        <time>2011-02-05T09:32:37Z</time>
      </trkpt>
      <trkpt lat="43.72286" lon="7.01408">
        <ele>914.3510742</ele>
        <time>2011-02-05T09:32:39Z</time>
      </trkpt>
      <trkpt lat="43.72251" lon="7.01425">
        <ele>912.4284668</ele>
        <time>2011-02-05T09:32:44Z</time>
      </trkpt>
      <trkpt lat="43.72236" lon="7.01455">
        <ele>909.5446777</ele>
        <time>2011-02-05T09:32:48Z</time>
      </trkpt>
      <trkpt lat="43.72233" lon="7.01462">
        <ele>909.5446777</ele>
        <time>2011-02-05T09:32:49Z</time>
      </trkpt>
      <trkpt lat="43.72223" lon="7.0147">
        <ele>906.6604004</ele>
        <time>2011-02-05T09:32:51Z</time>
      </trkpt>
      <trkpt lat="43.72215" lon="7.01461">
        <ele>903.2958984</ele>
        <time>2011-02-05T09:32:53Z</time>
      </trkpt>
      <trkpt lat="43.72215" lon="7.01454">
        <ele>903.2958984</ele>
        <time>2011-02-05T09:32:54Z</time>
      </trkpt>
      <trkpt lat="43.72215" lon="7.01435">
        <ele>902.8151855</ele>
        <time>2011-02-05T09:32:56Z</time>
      </trkpt>
      <trkpt lat="43.72211" lon="7.01405">
        <ele>900.8925781</ele>
        <time>2011-02-05T09:32:59Z</time>
      </trkpt>
      <trkpt lat="43.72211" lon="7.01383">
        <ele>899.9313965</ele>
        <time>2011-02-05T09:33:01Z</time>
      </trkpt>
      <trkpt lat="43.72212" lon="7.0136">
        <ele>898.4892578</ele>
        <time>2011-02-05T09:33:03Z</time>
      </trkpt>
      <trkpt lat="43.72214" lon="7.01336">
        <ele>897.0473633</ele>
        <time>2011-02-05T09:33:05Z</time>
      </trkpt>
      <trkpt lat="43.72218" lon="7.01286">
        <ele>893.2021484</ele>
        <time>2011-02-05T09:33:09Z</time>
      </trkpt>
      <trkpt lat="43.72219" lon="7.01274">
        <ele>893.2021484</ele>
        <time>2011-02-05T09:33:10Z</time>
      </trkpt>
      <trkpt lat="43.7222" lon="7.01252">
        <ele>890.798584</ele>
        <time>2011-02-05T09:33:12Z</time>
      </trkpt>
      <trkpt lat="43.72222" lon="7.01237">
        <ele>887.9147949</ele>
        <time>2011-02-05T09:33:14Z</time>
      </trkpt>
      <trkpt lat="43.72221" lon="7.01231">
        <ele>887.9147949</ele>
        <time>2011-02-05T09:33:15Z</time>
      </trkpt>
      <trkpt lat="43.72215" lon="7.01214">
        <ele>886.4729004</ele>
        <time>2011-02-05T09:33:20Z</time>
      </trkpt>
      <trkpt lat="43.72198" lon="7.01211">
        <ele>884.0695801</ele>
        <time>2011-02-05T09:33:35Z</time>
      </trkpt>
      <trkpt lat="43.72167" lon="7.01217">
        <ele>884.550293</ele>
        <time>2011-02-05T09:33:53Z</time>
      </trkpt>
      <trkpt lat="43.72124" lon="7.01217">
        <ele>883.5888672</ele>
        <time>2011-02-05T09:34:09Z</time>
      </trkpt>
      <trkpt lat="43.72094" lon="7.01185">
        <ele>879.7436523</ele>
        <time>2011-02-05T09:34:18Z</time>
      </trkpt>
      <trkpt lat="43.7209" lon="7.0118">
        <ele>879.7436523</ele>
        <time>2011-02-05T09:34:19Z</time>
      </trkpt>
      <trkpt lat="43.72072" lon="7.01156">
        <ele>876.8598633</ele>
        <time>2011-02-05T09:34:24Z</time>
      </trkpt>
      <trkpt lat="43.72063" lon="7.0114">
        <ele>875.4174805</ele>
        <time>2011-02-05T09:34:27Z</time>
      </trkpt>
      <trkpt lat="43.72054" lon="7.01113">
        <ele>873.4951172</ele>
        <time>2011-02-05T09:34:31Z</time>
      </trkpt>
      <trkpt lat="43.7205" lon="7.01091">
        <ele>873.0144043</ele>
        <time>2011-02-05T09:34:34Z</time>
      </trkpt>
      <trkpt lat="43.72026" lon="7.01077">
        <ele>872.5336914</ele>
        <time>2011-02-05T09:34:42Z</time>
      </trkpt>
      <trkpt lat="43.7202" lon="7.01094">
        <ele>872.5336914</ele>
        <time>2011-02-05T09:34:45Z</time>
      </trkpt>
      <trkpt lat="43.72003" lon="7.01165">
        <ele>871.0917969</ele>
        <time>2011-02-05T09:35:00Z</time>
      </trkpt>
      <trkpt lat="43.71998" lon="7.01189">
        <ele>872.0529785</ele>
        <time>2011-02-05T09:35:04Z</time>
      </trkpt>
      <trkpt lat="43.7199" lon="7.01214">
        <ele>871.5722656</ele>
        <time>2011-02-05T09:35:08Z</time>
      </trkpt>
      <trkpt lat="43.71969" lon="7.01268">
        <ele>868.6884766</ele>
        <time>2011-02-05T09:35:17Z</time>
      </trkpt>
      <trkpt lat="43.71971" lon="7.01295">
        <ele>867.7270508</ele>
        <time>2011-02-05T09:35:21Z</time>
      </trkpt>
      <trkpt lat="43.71982" lon="7.01333">
        <ele>866.7658691</ele>
        <time>2011-02-05T09:35:26Z</time>
      </trkpt>
      <trkpt lat="43.71989" lon="7.01397">
        <ele>864.8432617</ele>
        <time>2011-02-05T09:35:36Z</time>
      </trkpt>
      <trkpt lat="43.71988" lon="7.01424">
        <ele>863.8818359</ele>
        <time>2011-02-05T09:35:40Z</time>
      </trkpt>
      <trkpt lat="43.71957" lon="7.01512">
        <ele>862.9206543</ele>
        <time>2011-02-05T09:35:56Z</time>
      </trkpt>
      <trkpt lat="43.71941" lon="7.01515">
        <ele>862.4399414</ele>
        <time>2011-02-05T09:36:01Z</time>
      </trkpt>
      <trkpt lat="43.71934" lon="7.01514">
        <ele>861.9594727</ele>
        <time>2011-02-05T09:36:03Z</time>
      </trkpt>
      <trkpt lat="43.71921" lon="7.01542">
        <ele>859.0751953</ele>
        <time>2011-02-05T09:36:09Z</time>
      </trkpt>
      <trkpt lat="43.71927" lon="7.01571">
        <ele>858.1140137</ele>
        <time>2011-02-05T09:36:13Z</time>
      </trkpt>
      <trkpt lat="43.7193" lon="7.01586">
        <ele>856.671875</ele>
        <time>2011-02-05T09:36:15Z</time>
      </trkpt>
      <trkpt lat="43.7193" lon="7.01609">
        <ele>854.7492676</ele>
        <time>2011-02-05T09:36:18Z</time>
      </trkpt>
      <trkpt lat="43.71931" lon="7.01639">
        <ele>852.8266602</ele>
        <time>2011-02-05T09:36:22Z</time>
      </trkpt>
      <trkpt lat="43.71928" lon="7.01664">
        <ele>851.3847656</ele>
        <time>2011-02-05T09:36:27Z</time>
      </trkpt>
      <trkpt lat="43.71921" lon="7.01668">
        <ele>849.4621582</ele>
        <time>2011-02-05T09:36:31Z</time>
      </trkpt>
      <trkpt lat="43.71921" lon="7.01668">
        <ele>848.5007324</ele>
        <time>2011-02-05T09:36:32Z</time>
      </trkpt>
      <trkpt lat="43.71921" lon="7.01668">
        <ele>847.5395508</ele>
        <time>2011-02-05T09:36:34Z</time>
      </trkpt>
      <trkpt lat="43.71921" lon="7.01668">
        <ele>847.5395508</ele>
        <time>2011-02-05T09:36:36Z</time>
      </trkpt>
      <trkpt lat="43.71916" lon="7.01666">
        <ele>846.5783691</ele>
        <time>2011-02-05T09:36:57Z</time>
      </trkpt>
      <trkpt lat="43.71916" lon="7.01666">
        <ele>846.5783691</ele>
        <time>2011-02-05T09:37:44Z</time>
      </trkpt>
      <trkpt lat="43.71904" lon="7.01684">
        <ele>846.0976563</ele>
        <time>2011-02-05T09:38:27Z</time>
      </trkpt>
      <trkpt lat="43.71912" lon="7.01714">
        <ele>845.1362305</ele>
        <time>2011-02-05T09:38:33Z</time>
      </trkpt>
      <trkpt lat="43.71917" lon="7.01727">
        <ele>843.6940918</ele>
        <time>2011-02-05T09:38:35Z</time>
      </trkpt>
      <trkpt lat="43.71925" lon="7.01748">
        <ele>842.7329102</ele>
        <time>2011-02-05T09:38:38Z</time>
      </trkpt>
      <trkpt lat="43.71919" lon="7.01775">
        <ele>841.2907715</ele>
        <time>2011-02-05T09:38:42Z</time>
      </trkpt>
      <trkpt lat="43.71894" lon="7.0182">
        <ele>839.3681641</ele>
        <time>2011-02-05T09:38:54Z</time>
      </trkpt>
      <trkpt lat="43.71876" lon="7.0183">
        <ele>838.4069824</ele>
        <time>2011-02-05T09:38:59Z</time>
      </trkpt>
      <trkpt lat="43.71853" lon="7.01857">
        <ele>836.484375</ele>
        <time>2011-02-05T09:39:05Z</time>
      </trkpt>
      <trkpt lat="43.71838" lon="7.01914">
        <ele>835.0424805</ele>
        <time>2011-02-05T09:39:17Z</time>
      </trkpt>
      <trkpt lat="43.71823" lon="7.01976">
        <ele>834.5617676</ele>
        <time>2011-02-05T09:39:31Z</time>
      </trkpt>
      <trkpt lat="43.71818" lon="7.01995">
        <ele>834.5617676</ele>
        <time>2011-02-05T09:39:35Z</time>
      </trkpt>
      <trkpt lat="43.71813" lon="7.0202">
        <ele>836.9648438</ele>
        <time>2011-02-05T09:39:40Z</time>
      </trkpt>
      <trkpt lat="43.71811" lon="7.02025">
        <ele>836.9648438</ele>
        <time>2011-02-05T09:39:41Z</time>
      </trkpt>
      <trkpt lat="43.71808" lon="7.0204">
        <ele>838.4069824</ele>
        <time>2011-02-05T09:39:44Z</time>
      </trkpt>
      <trkpt lat="43.71802" lon="7.02083">
        <ele>841.7714844</ele>
        <time>2011-02-05T09:39:52Z</time>
      </trkpt>
      <trkpt lat="43.71801" lon="7.02095">
        <ele>841.7714844</ele>
        <time>2011-02-05T09:39:54Z</time>
      </trkpt>
      <trkpt lat="43.71801" lon="7.02114">
        <ele>841.2907715</ele>
        <time>2011-02-05T09:39:57Z</time>
      </trkpt>
      <trkpt lat="43.71801" lon="7.0216">
        <ele>841.2907715</ele>
        <time>2011-02-05T09:40:03Z</time>
      </trkpt>
      <trkpt lat="43.71802" lon="7.02194">
        <ele>841.7714844</ele>
        <time>2011-02-05T09:40:08Z</time>
      </trkpt>
      <trkpt lat="43.71803" lon="7.02221">
        <ele>841.2907715</ele>
        <time>2011-02-05T09:40:12Z</time>
      </trkpt>
      <trkpt lat="43.71803" lon="7.02246">
        <ele>841.7714844</ele>
        <time>2011-02-05T09:40:16Z</time>
      </trkpt>
      <trkpt lat="43.71804" lon="7.02274">
        <ele>841.2907715</ele>
        <time>2011-02-05T09:40:21Z</time>
      </trkpt>
      <trkpt lat="43.71804" lon="7.02302">
        <ele>841.2907715</ele>
        <time>2011-02-05T09:40:26Z</time>
      </trkpt>
      <trkpt lat="43.71803" lon="7.02305">
        <ele>842.2521973</ele>
        <time>2011-02-05T09:40:29Z</time>
      </trkpt>
      <trkpt lat="43.71803" lon="7.02305">
        <ele>841.7714844</ele>
        <time>2011-02-05T09:40:43Z</time>
      </trkpt>
      <trkpt lat="43.71803" lon="7.02305">
        <ele>841.2907715</ele>
        <time>2011-02-05T09:41:41Z</time>
      </trkpt>
      <trkpt lat="43.71805" lon="7.02342">
        <ele>842.7329102</ele>
        <time>2011-02-05T09:41:47Z</time>
      </trkpt>
      <trkpt lat="43.71805" lon="7.02356">
        <ele>842.2521973</ele>
        <time>2011-02-05T09:41:49Z</time>
      </trkpt>
      <trkpt lat="43.7181" lon="7.02399">
        <ele>842.2521973</ele>
        <time>2011-02-05T09:41:58Z</time>
      </trkpt>
      <trkpt lat="43.7181" lon="7.02399">
        <ele>841.2907715</ele>
        <time>2011-02-05T09:42:09Z</time>
      </trkpt>
      <trkpt lat="43.71813" lon="7.02442">
        <ele>842.2521973</ele>
        <time>2011-02-05T09:42:22Z</time>
      </trkpt>
      <trkpt lat="43.71802" lon="7.02519">
        <ele>841.7714844</ele>
        <time>2011-02-05T09:42:38Z</time>
      </trkpt>
      <trkpt lat="43.71781" lon="7.02586">
        <ele>842.2521973</ele>
        <time>2011-02-05T09:42:53Z</time>
      </trkpt>
      <trkpt lat="43.71741" lon="7.02621">
        <ele>843.6940918</ele>
        <time>2011-02-05T09:43:08Z</time>
      </trkpt>
      <trkpt lat="43.7171" lon="7.02635">
        <ele>843.6940918</ele>
        <time>2011-02-05T09:43:19Z</time>
      </trkpt>
      <trkpt lat="43.7167" lon="7.02671">
        <ele>846.0976563</ele>
        <time>2011-02-05T09:43:35Z</time>
      </trkpt>
      <trkpt lat="43.71678" lon="7.02738">
        <ele>847.0588379</ele>
        <time>2011-02-05T09:43:51Z</time>
      </trkpt>
      <trkpt lat="43.71715" lon="7.02788">
        <ele>848.5007324</ele>
        <time>2011-02-05T09:44:06Z</time>
      </trkpt>
      <trkpt lat="43.71755" lon="7.02839">
        <ele>848.5007324</ele>
        <time>2011-02-05T09:44:21Z</time>
      </trkpt>
      <trkpt lat="43.71791" lon="7.02894">
        <ele>848.5007324</ele>
        <time>2011-02-05T09:44:35Z</time>
      </trkpt>
      <trkpt lat="43.71802" lon="7.02909">
        <ele>848.5007324</ele>
        <time>2011-02-05T09:44:38Z</time>
      </trkpt>
      <trkpt lat="43.71813" lon="7.02927">
        <ele>848.0202637</ele>
        <time>2011-02-05T09:44:42Z</time>
      </trkpt>
      <trkpt lat="43.71816" lon="7.02931">
        <ele>846.5783691</ele>
        <time>2011-02-05T09:44:55Z</time>
      </trkpt>
      <trkpt lat="43.71816" lon="7.02931">
        <ele>847.0588379</ele>
        <time>2011-02-05T09:45:05Z</time>
      </trkpt>
      <trkpt lat="43.71821" lon="7.02939">
        <ele>847.0588379</ele>
        <time>2011-02-05T09:45:08Z</time>
      </trkpt>
      <trkpt lat="43.71832" lon="7.02953">
        <ele>845.1362305</ele>
        <time>2011-02-05T09:45:13Z</time>
      </trkpt>
      <trkpt lat="43.71867" lon="7.03003">
        <ele>842.2521973</ele>
        <time>2011-02-05T09:45:20Z</time>
      </trkpt>
      <trkpt lat="43.7189" lon="7.03045">
        <ele>840.8100586</ele>
        <time>2011-02-05T09:45:24Z</time>
      </trkpt>
      <trkpt lat="43.71899" lon="7.03061">
        <ele>838.4069824</ele>
        <time>2011-02-05T09:45:26Z</time>
      </trkpt>
      <trkpt lat="43.71906" lon="7.0308">
        <ele>836.484375</ele>
        <time>2011-02-05T09:45:28Z</time>
      </trkpt>
      <trkpt lat="43.71914" lon="7.03116">
        <ele>836.484375</ele>
        <time>2011-02-05T09:45:31Z</time>
      </trkpt>
      <trkpt lat="43.71917" lon="7.03204">
        <ele>836.0036621</ele>
        <time>2011-02-05T09:45:38Z</time>
      </trkpt>
      <trkpt lat="43.71923" lon="7.03223">
        <ele>834.5617676</ele>
        <time>2011-02-05T09:45:40Z</time>
      </trkpt>
      <trkpt lat="43.7194" lon="7.0325">
        <ele>836.0036621</ele>
        <time>2011-02-05T09:45:44Z</time>
      </trkpt>
      <trkpt lat="43.71954" lon="7.03268">
        <ele>837.4455566</ele>
        <time>2011-02-05T09:45:47Z</time>
      </trkpt>
      <trkpt lat="43.71969" lon="7.03295">
        <ele>837.9262695</ele>
        <time>2011-02-05T09:45:51Z</time>
      </trkpt>
      <trkpt lat="43.71985" lon="7.03328">
        <ele>836.0036621</ele>
        <time>2011-02-05T09:45:55Z</time>
      </trkpt>
      <trkpt lat="43.71994" lon="7.03346">
        <ele>834.0810547</ele>
        <time>2011-02-05T09:45:57Z</time>
      </trkpt>
      <trkpt lat="43.72004" lon="7.03365">
        <ele>832.6391602</ele>
        <time>2011-02-05T09:45:59Z</time>
      </trkpt>
      <trkpt lat="43.72014" lon="7.03386">
        <ele>831.1972656</ele>
        <time>2011-02-05T09:46:01Z</time>
      </trkpt>
      <trkpt lat="43.72025" lon="7.03408">
        <ele>829.755127</ele>
        <time>2011-02-05T09:46:03Z</time>
      </trkpt>
      <trkpt lat="43.72035" lon="7.03444">
        <ele>827.3518066</ele>
        <time>2011-02-05T09:46:06Z</time>
      </trkpt>
      <trkpt lat="43.72035" lon="7.03469">
        <ele>825.909668</ele>
        <time>2011-02-05T09:46:08Z</time>
      </trkpt>
      <trkpt lat="43.72065" lon="7.03524">
        <ele>821.5837402</ele>
        <time>2011-02-05T09:46:15Z</time>
      </trkpt>
      <trkpt lat="43.72068" lon="7.03527">
        <ele>819.661377</ele>
        <time>2011-02-05T09:46:17Z</time>
      </trkpt>
      <trkpt lat="43.72068" lon="7.03527">
        <ele>819.1806641</ele>
        <time>2011-02-05T09:46:34Z</time>
      </trkpt>
      <trkpt lat="43.72068" lon="7.03527">
        <ele>818.6999512</ele>
        <time>2011-02-05T09:46:54Z</time>
      </trkpt>
      <trkpt lat="43.72068" lon="7.03527">
        <ele>819.661377</ele>
        <time>2011-02-05T09:50:27Z</time>
      </trkpt>
      <trkpt lat="43.72068" lon="7.03527">
        <ele>819.1806641</ele>
        <time>2011-02-05T09:50:38Z</time>
      </trkpt>
      <trkpt lat="43.72068" lon="7.03527">
        <ele>818.6999512</ele>
        <time>2011-02-05T09:50:48Z</time>
      </trkpt>
      <trkpt lat="43.72068" lon="7.03527">
        <ele>818.6999512</ele>
        <time>2011-02-05T09:51:01Z</time>
      </trkpt>
      <trkpt lat="43.72068" lon="7.03527">
        <ele>818.6999512</ele>
        <time>2011-02-05T09:51:46Z</time>
      </trkpt>
      <trkpt lat="43.72043" lon="7.03497">
        <ele>818.2192383</ele>
        <time>2011-02-05T09:51:55Z</time>
      </trkpt>
      <trkpt lat="43.72035" lon="7.03475">
        <ele>817.2580566</ele>
        <time>2011-02-05T09:52:00Z</time>
      </trkpt>
      <trkpt lat="43.72035" lon="7.03461">
        <ele>815.3354492</ele>
        <time>2011-02-05T09:52:04Z</time>
      </trkpt>
      <trkpt lat="43.72035" lon="7.03456">
        <ele>814.8547363</ele>
        <time>2011-02-05T09:52:05Z</time>
      </trkpt>
      <trkpt lat="43.72035" lon="7.03444">
        <ele>814.8547363</ele>
        <time>2011-02-05T09:52:07Z</time>
      </trkpt>
      <trkpt lat="43.72024" lon="7.03406">
        <ele>813.4128418</ele>
        <time>2011-02-05T09:52:11Z</time>
      </trkpt>
      <trkpt lat="43.72022" lon="7.03402">
        <ele>813.4128418</ele>
        <time>2011-02-05T09:52:12Z</time>
      </trkpt>
      <trkpt lat="43.71993" lon="7.03402">
        <ele>811.9707031</ele>
        <time>2011-02-05T09:52:16Z</time>
      </trkpt>
      <trkpt lat="43.71974" lon="7.0339">
        <ele>810.5285645</ele>
        <time>2011-02-05T09:52:20Z</time>
      </trkpt>
      <trkpt lat="43.71965" lon="7.03383">
        <ele>809.5673828</ele>
        <time>2011-02-05T09:52:22Z</time>
      </trkpt>
      <trkpt lat="43.7196" lon="7.0338">
        <ele>808.605957</ele>
        <time>2011-02-05T09:52:23Z</time>
      </trkpt>
      <trkpt lat="43.71941" lon="7.0337">
        <ele>805.722168</ele>
        <time>2011-02-05T09:52:27Z</time>
      </trkpt>
      <trkpt lat="43.71929" lon="7.0337">
        <ele>804.2802734</ele>
        <time>2011-02-05T09:52:29Z</time>
      </trkpt>
      <trkpt lat="43.71916" lon="7.03373">
        <ele>802.8381348</ele>
        <time>2011-02-05T09:52:31Z</time>
      </trkpt>
      <trkpt lat="43.71896" lon="7.03382">
        <ele>799.9543457</ele>
        <time>2011-02-05T09:52:34Z</time>
      </trkpt>
      <trkpt lat="43.71889" lon="7.03386">
        <ele>798.512207</ele>
        <time>2011-02-05T09:52:35Z</time>
      </trkpt>
      <trkpt lat="43.71875" lon="7.03391">
        <ele>795.6281738</ele>
        <time>2011-02-05T09:52:38Z</time>
      </trkpt>
      <trkpt lat="43.71866" lon="7.03387">
        <ele>792.2636719</ele>
        <time>2011-02-05T09:52:40Z</time>
      </trkpt>
      <trkpt lat="43.71862" lon="7.0338">
        <ele>792.2636719</ele>
        <time>2011-02-05T09:52:41Z</time>
      </trkpt>
      <trkpt lat="43.71858" lon="7.03373">
        <ele>790.8215332</ele>
        <time>2011-02-05T09:52:42Z</time>
      </trkpt>
      <trkpt lat="43.71841" lon="7.03341">
        <ele>787.4570313</ele>
        <time>2011-02-05T09:52:46Z</time>
      </trkpt>
      <trkpt lat="43.71831" lon="7.0332">
        <ele>782.1699219</ele>
        <time>2011-02-05T09:52:49Z</time>
      </trkpt>
      <trkpt lat="43.71827" lon="7.03313">
        <ele>782.1699219</ele>
        <time>2011-02-05T09:52:50Z</time>
      </trkpt>
      <trkpt lat="43.71816" lon="7.0328">
        <ele>779.7663574</ele>
        <time>2011-02-05T09:52:54Z</time>
      </trkpt>
      <trkpt lat="43.71809" lon="7.03254">
        <ele>778.3244629</ele>
        <time>2011-02-05T09:52:57Z</time>
      </trkpt>
      <trkpt lat="43.71807" lon="7.03245">
        <ele>776.8825684</ele>
        <time>2011-02-05T09:52:58Z</time>
      </trkpt>
      <trkpt lat="43.71801" lon="7.03221">
        <ele>773.5180664</ele>
        <time>2011-02-05T09:53:01Z</time>
      </trkpt>
      <trkpt lat="43.7179" lon="7.03182">
        <ele>771.1147461</ele>
        <time>2011-02-05T09:53:06Z</time>
      </trkpt>
      <trkpt lat="43.71786" lon="7.03181">
        <ele>769.1921387</ele>
        <time>2011-02-05T09:53:08Z</time>
      </trkpt>
      <trkpt lat="43.71784" lon="7.03181">
        <ele>767.2695313</ele>
        <time>2011-02-05T09:53:16Z</time>
      </trkpt>
      <trkpt lat="43.71784" lon="7.03181">
        <ele>764.8662109</ele>
        <time>2011-02-05T09:53:28Z</time>
      </trkpt>
      <trkpt lat="43.71762" lon="7.03187">
        <ele>761.5014648</ele>
        <time>2011-02-05T09:53:38Z</time>
      </trkpt>
      <trkpt lat="43.71762" lon="7.03187">
        <ele>761.5014648</ele>
        <time>2011-02-05T09:54:04Z</time>
      </trkpt>
      <trkpt lat="43.71762" lon="7.03187">
        <ele>761.5014648</ele>
        <time>2011-02-05T09:54:07Z</time>
      </trkpt>
      <trkpt lat="43.71755" lon="7.03187">
        <ele>760.5400391</ele>
        <time>2011-02-05T09:54:10Z</time>
      </trkpt>
      <trkpt lat="43.71741" lon="7.03176">
        <ele>760.0593262</ele>
        <time>2011-02-05T09:54:13Z</time>
      </trkpt>
      <trkpt lat="43.7173" lon="7.03164">
        <ele>757.65625</ele>
        <time>2011-02-05T09:54:16Z</time>
      </trkpt>
      <trkpt lat="43.71697" lon="7.0315">
        <ele>756.6948242</ele>
        <time>2011-02-05T09:54:22Z</time>
      </trkpt>
      <trkpt lat="43.71669" lon="7.03121">
        <ele>755.7336426</ele>
        <time>2011-02-05T09:54:28Z</time>
      </trkpt>
      <trkpt lat="43.71663" lon="7.03106">
        <ele>755.2529297</ele>
        <time>2011-02-05T09:54:30Z</time>
      </trkpt>
      <trkpt lat="43.7166" lon="7.03098">
        <ele>755.2529297</ele>
        <time>2011-02-05T09:54:31Z</time>
      </trkpt>
      <trkpt lat="43.71645" lon="7.03069">
        <ele>753.8110352</ele>
        <time>2011-02-05T09:54:35Z</time>
      </trkpt>
      <trkpt lat="43.71635" lon="7.03059">
        <ele>752.3688965</ele>
        <time>2011-02-05T09:54:37Z</time>
      </trkpt>
      <trkpt lat="43.71625" lon="7.03053">
        <ele>752.3688965</ele>
        <time>2011-02-05T09:54:39Z</time>
      </trkpt>
      <trkpt lat="43.71614" lon="7.0305">
        <ele>750.4465332</ele>
        <time>2011-02-05T09:54:42Z</time>
      </trkpt>
      <trkpt lat="43.71578" lon="7.0305">
        <ele>748.5236816</ele>
        <time>2011-02-05T09:54:52Z</time>
      </trkpt>
      <trkpt lat="43.7156" lon="7.03045">
        <ele>748.0432129</ele>
        <time>2011-02-05T09:54:56Z</time>
      </trkpt>
      <trkpt lat="43.71539" lon="7.03034">
        <ele>746.1203613</ele>
        <time>2011-02-05T09:55:00Z</time>
      </trkpt>
      <trkpt lat="43.71534" lon="7.03031">
        <ele>745.6396484</ele>
        <time>2011-02-05T09:55:01Z</time>
      </trkpt>
      <trkpt lat="43.71518" lon="7.03033">
        <ele>744.6782227</ele>
        <time>2011-02-05T09:55:04Z</time>
      </trkpt>
      <trkpt lat="43.7149" lon="7.03043">
        <ele>743.2363281</ele>
        <time>2011-02-05T09:55:09Z</time>
      </trkpt>
      <trkpt lat="43.71477" lon="7.03055">
        <ele>741.7944336</ele>
        <time>2011-02-05T09:55:13Z</time>
      </trkpt>
      <trkpt lat="43.7146" lon="7.03097">
        <ele>740.8330078</ele>
        <time>2011-02-05T09:55:21Z</time>
      </trkpt>
      <trkpt lat="43.7146" lon="7.03097">
        <ele>737.9492188</ele>
        <time>2011-02-05T09:55:37Z</time>
      </trkpt>
      <trkpt lat="43.7146" lon="7.03097">
        <ele>737.9492188</ele>
        <time>2011-02-05T09:56:38Z</time>
      </trkpt>
      <trkpt lat="43.71444" lon="7.03067">
        <ele>736.987793</ele>
        <time>2011-02-05T09:56:42Z</time>
      </trkpt>
      <trkpt lat="43.71464" lon="7.03066">
        <ele>732.6621094</ele>
        <time>2011-02-05T09:56:46Z</time>
      </trkpt>
      <trkpt lat="43.71469" lon="7.03071">
        <ele>731.7004395</ele>
        <time>2011-02-05T09:56:47Z</time>
      </trkpt>
      <trkpt lat="43.71477" lon="7.03077">
        <ele>730.2585449</ele>
        <time>2011-02-05T09:56:49Z</time>
      </trkpt>
      <trkpt lat="43.71481" lon="7.03078">
        <ele>727.8552246</ele>
        <time>2011-02-05T09:56:50Z</time>
      </trkpt>
      <trkpt lat="43.71496" lon="7.03084">
        <ele>726.4133301</ele>
        <time>2011-02-05T09:56:53Z</time>
      </trkpt>
      <trkpt lat="43.71501" lon="7.03086">
        <ele>724.9714355</ele>
        <time>2011-02-05T09:56:54Z</time>
      </trkpt>
      <trkpt lat="43.71501" lon="7.03086">
        <ele>724.0100098</ele>
        <time>2011-02-05T09:56:56Z</time>
      </trkpt>
      <trkpt lat="43.71501" lon="7.03086">
        <ele>722.5681152</ele>
        <time>2011-02-05T09:56:58Z</time>
      </trkpt>
      <trkpt lat="43.71523" lon="7.0309">
        <ele>722.5681152</ele>
        <time>2011-02-05T09:56:59Z</time>
      </trkpt>
      <trkpt lat="43.71536" lon="7.03104">
        <ele>720.6455078</ele>
        <time>2011-02-05T09:57:02Z</time>
      </trkpt>
      <trkpt lat="43.7156" lon="7.03125">
        <ele>719.2036133</ele>
        <time>2011-02-05T09:57:07Z</time>
      </trkpt>
      <trkpt lat="43.71583" lon="7.03134">
        <ele>716.3195801</ele>
        <time>2011-02-05T09:57:11Z</time>
      </trkpt>
      <trkpt lat="43.71599" lon="7.0315">
        <ele>714.8774414</ele>
        <time>2011-02-05T09:57:16Z</time>
      </trkpt>
      <trkpt lat="43.71597" lon="7.03172">
        <ele>711.9936523</ele>
        <time>2011-02-05T09:57:19Z</time>
      </trkpt>
      <trkpt lat="43.71595" lon="7.03187">
        <ele>710.0708008</ele>
        <time>2011-02-05T09:57:21Z</time>
      </trkpt>
      <trkpt lat="43.71596" lon="7.03199">
        <ele>707.1870117</ele>
        <time>2011-02-05T09:57:23Z</time>
      </trkpt>
      <trkpt lat="43.71596" lon="7.03212">
        <ele>704.3032227</ele>
        <time>2011-02-05T09:57:25Z</time>
      </trkpt>
      <trkpt lat="43.71596" lon="7.03217">
        <ele>704.3032227</ele>
        <time>2011-02-05T09:57:26Z</time>
      </trkpt>
      <trkpt lat="43.71597" lon="7.03238">
        <ele>700.9384766</ele>
        <time>2011-02-05T09:57:29Z</time>
      </trkpt>
      <trkpt lat="43.71596" lon="7.03246">
        <ele>700.9384766</ele>
        <time>2011-02-05T09:57:30Z</time>
      </trkpt>
      <trkpt lat="43.71594" lon="7.03261">
        <ele>697.5737305</ele>
        <time>2011-02-05T09:57:32Z</time>
      </trkpt>
      <trkpt lat="43.71593" lon="7.03271">
        <ele>697.5737305</ele>
        <time>2011-02-05T09:57:33Z</time>
      </trkpt>
      <trkpt lat="43.71594" lon="7.03293">
        <ele>696.1318359</ele>
        <time>2011-02-05T09:57:35Z</time>
      </trkpt>
      <trkpt lat="43.71598" lon="7.03309">
        <ele>694.2092285</ele>
        <time>2011-02-05T09:57:37Z</time>
      </trkpt>
      <trkpt lat="43.71599" lon="7.03326">
        <ele>690.3640137</ele>
        <time>2011-02-05T09:57:40Z</time>
      </trkpt>
      <trkpt lat="43.71599" lon="7.03327">
        <ele>689.8833008</ele>
        <time>2011-02-05T09:57:42Z</time>
      </trkpt>
      <trkpt lat="43.71591" lon="7.03325">
        <ele>687.4799805</ele>
        <time>2011-02-05T09:57:47Z</time>
      </trkpt>
      <trkpt lat="43.71586" lon="7.03319">
        <ele>686.5187988</ele>
        <time>2011-02-05T09:57:48Z</time>
      </trkpt>
      <trkpt lat="43.71578" lon="7.03305">
        <ele>686.5187988</ele>
        <time>2011-02-05T09:57:50Z</time>
      </trkpt>
      <trkpt lat="43.71566" lon="7.03281">
        <ele>683.6345215</ele>
        <time>2011-02-05T09:57:53Z</time>
      </trkpt>
      <trkpt lat="43.71562" lon="7.03273">
        <ele>681.2314453</ele>
        <time>2011-02-05T09:57:54Z</time>
      </trkpt>
      <trkpt lat="43.71555" lon="7.03261">
        <ele>679.3085938</ele>
        <time>2011-02-05T09:57:56Z</time>
      </trkpt>
      <trkpt lat="43.71548" lon="7.03251">
        <ele>676.9055176</ele>
        <time>2011-02-05T09:57:58Z</time>
      </trkpt>
      <trkpt lat="43.71542" lon="7.03246">
        <ele>674.9829102</ele>
        <time>2011-02-05T09:58:00Z</time>
      </trkpt>
      <trkpt lat="43.7154" lon="7.03247">
        <ele>673.0603027</ele>
        <time>2011-02-05T09:58:02Z</time>
      </trkpt>
      <trkpt lat="43.71539" lon="7.03278">
        <ele>671.1376953</ele>
        <time>2011-02-05T09:58:07Z</time>
      </trkpt>
      <trkpt lat="43.71537" lon="7.03296">
        <ele>668.2536621</ele>
        <time>2011-02-05T09:58:10Z</time>
      </trkpt>
      <trkpt lat="43.71536" lon="7.03302">
        <ele>665.8503418</ele>
        <time>2011-02-05T09:58:12Z</time>
      </trkpt>
      <trkpt lat="43.71527" lon="7.03279">
        <ele>663.4470215</ele>
        <time>2011-02-05T09:58:17Z</time>
      </trkpt>
      <trkpt lat="43.71519" lon="7.03268">
        <ele>662.005127</ele>
        <time>2011-02-05T09:58:19Z</time>
      </trkpt>
      <trkpt lat="43.71515" lon="7.03264">
        <ele>660.0822754</ele>
        <time>2011-02-05T09:58:20Z</time>
      </trkpt>
      <trkpt lat="43.71507" lon="7.03266">
        <ele>656.2370605</ele>
        <time>2011-02-05T09:58:23Z</time>
      </trkpt>
      <trkpt lat="43.71506" lon="7.03267">
        <ele>656.2370605</ele>
        <time>2011-02-05T09:58:24Z</time>
      </trkpt>
      <trkpt lat="43.71506" lon="7.03275">
        <ele>654.3146973</ele>
        <time>2011-02-05T09:58:28Z</time>
      </trkpt>
      <trkpt lat="43.71505" lon="7.03292">
        <ele>651.9111328</ele>
        <time>2011-02-05T09:58:33Z</time>
      </trkpt>
      <trkpt lat="43.71504" lon="7.03298">
        <ele>649.5078125</ele>
        <time>2011-02-05T09:58:36Z</time>
      </trkpt>
      <trkpt lat="43.71504" lon="7.03303">
        <ele>648.065918</ele>
        <time>2011-02-05T09:58:47Z</time>
      </trkpt>
      <trkpt lat="43.71503" lon="7.03303">
        <ele>648.5463867</ele>
        <time>2011-02-05T09:58:51Z</time>
      </trkpt>
      <trkpt lat="43.71499" lon="7.03304">
        <ele>646.6240234</ele>
        <time>2011-02-05T09:58:58Z</time>
      </trkpt>
      <trkpt lat="43.71502" lon="7.03326">
        <ele>643.7399902</ele>
        <time>2011-02-05T09:59:03Z</time>
      </trkpt>
      <trkpt lat="43.71501" lon="7.03337">
        <ele>642.2980957</ele>
        <time>2011-02-05T09:59:05Z</time>
      </trkpt>
      <trkpt lat="43.71502" lon="7.03356">
        <ele>639.4140625</ele>
        <time>2011-02-05T09:59:08Z</time>
      </trkpt>
      <trkpt lat="43.71502" lon="7.03367">
        <ele>637.4914551</ele>
        <time>2011-02-05T09:59:10Z</time>
      </trkpt>
      <trkpt lat="43.71502" lon="7.03377">
        <ele>636.5302734</ele>
        <time>2011-02-05T09:59:12Z</time>
      </trkpt>
      <trkpt lat="43.71502" lon="7.03393">
        <ele>633.6459961</ele>
        <time>2011-02-05T09:59:15Z</time>
      </trkpt>
      <trkpt lat="43.715" lon="7.03404">
        <ele>632.2041016</ele>
        <time>2011-02-05T09:59:17Z</time>
      </trkpt>
      <trkpt lat="43.71499" lon="7.03411">
        <ele>629.8007813</ele>
        <time>2011-02-05T09:59:19Z</time>
      </trkpt>
      <trkpt lat="43.71497" lon="7.03421">
        <ele>628.3588867</ele>
        <time>2011-02-05T09:59:22Z</time>
      </trkpt>
      <trkpt lat="43.71496" lon="7.03427">
        <ele>626.9169922</ele>
        <time>2011-02-05T09:59:24Z</time>
      </trkpt>
      <trkpt lat="43.7149" lon="7.03443">
        <ele>624.032959</ele>
        <time>2011-02-05T09:59:28Z</time>
      </trkpt>
      <trkpt lat="43.71486" lon="7.03451">
        <ele>620.668457</ele>
        <time>2011-02-05T09:59:30Z</time>
      </trkpt>
      <trkpt lat="43.71485" lon="7.03455">
        <ele>620.668457</ele>
        <time>2011-02-05T09:59:31Z</time>
      </trkpt>
      <trkpt lat="43.71482" lon="7.03462">
        <ele>619.2263184</ele>
        <time>2011-02-05T09:59:33Z</time>
      </trkpt>
      <trkpt lat="43.71479" lon="7.03468">
        <ele>618.2648926</ele>
        <time>2011-02-05T09:59:35Z</time>
      </trkpt>
      <trkpt lat="43.71476" lon="7.03476">
        <ele>616.3422852</ele>
        <time>2011-02-05T09:59:37Z</time>
      </trkpt>
      <trkpt lat="43.71474" lon="7.03481">
        <ele>614.9003906</ele>
        <time>2011-02-05T09:59:38Z</time>
      </trkpt>
      <trkpt lat="43.71469" lon="7.03501">
        <ele>612.9777832</ele>
        <time>2011-02-05T09:59:42Z</time>
      </trkpt>
      <trkpt lat="43.71461" lon="7.03553">
        <ele>609.6132813</ele>
        <time>2011-02-05T09:59:49Z</time>
      </trkpt>
      <trkpt lat="43.71459" lon="7.0356">
        <ele>609.6132813</ele>
        <time>2011-02-05T09:59:50Z</time>
      </trkpt>
      <trkpt lat="43.71448" lon="7.03588">
        <ele>607.6906738</ele>
        <time>2011-02-05T09:59:54Z</time>
      </trkpt>
      <trkpt lat="43.71438" lon="7.03601">
        <ele>604.8066406</ele>
        <time>2011-02-05T09:59:58Z</time>
      </trkpt>
      <trkpt lat="43.71438" lon="7.03601">
        <ele>604.8066406</ele>
        <time>2011-02-05T10:00:41Z</time>
      </trkpt>
      <trkpt lat="43.71438" lon="7.03601">
        <ele>605.2873535</ele>
        <time>2011-02-05T10:02:05Z</time>
      </trkpt>
      <trkpt lat="43.71438" lon="7.03601">
        <ele>604.3261719</ele>
        <time>2011-02-05T10:02:47Z</time>
      </trkpt>
      <trkpt lat="43.71427" lon="7.03626">
        <ele>604.3261719</ele>
        <time>2011-02-05T10:02:57Z</time>
      </trkpt>
      <trkpt lat="43.71423" lon="7.03638">
        <ele>601.9226074</ele>
        <time>2011-02-05T10:03:00Z</time>
      </trkpt>
      <trkpt lat="43.71416" lon="7.03655">
        <ele>600.4807129</ele>
        <time>2011-02-05T10:03:03Z</time>
      </trkpt>
      <trkpt lat="43.71407" lon="7.03668">
        <ele>597.1159668</ele>
        <time>2011-02-05T10:03:06Z</time>
      </trkpt>
      <trkpt lat="43.71403" lon="7.03674">
        <ele>595.6740723</ele>
        <time>2011-02-05T10:03:08Z</time>
      </trkpt>
      <trkpt lat="43.71387" lon="7.03694">
        <ele>590.8674316</ele>
        <time>2011-02-05T10:03:14Z</time>
      </trkpt>
      <trkpt lat="43.71385" lon="7.03697">
        <ele>590.8674316</ele>
        <time>2011-02-05T10:03:15Z</time>
      </trkpt>
      <trkpt lat="43.71382" lon="7.037">
        <ele>590.8674316</ele>
        <time>2011-02-05T10:03:16Z</time>
      </trkpt>
      <trkpt lat="43.71373" lon="7.0371">
        <ele>589.4255371</ele>
        <time>2011-02-05T10:03:19Z</time>
      </trkpt>
      <trkpt lat="43.71364" lon="7.03721">
        <ele>587.0219727</ele>
        <time>2011-02-05T10:03:22Z</time>
      </trkpt>
      <trkpt lat="43.71356" lon="7.03729">
        <ele>586.060791</ele>
        <time>2011-02-05T10:03:24Z</time>
      </trkpt>
      <trkpt lat="43.71349" lon="7.03738">
        <ele>584.6188965</ele>
        <time>2011-02-05T10:03:26Z</time>
      </trkpt>
      <trkpt lat="43.71341" lon="7.03747">
        <ele>581.2543945</ele>
        <time>2011-02-05T10:03:28Z</time>
      </trkpt>
      <trkpt lat="43.71337" lon="7.03751">
        <ele>581.2543945</ele>
        <time>2011-02-05T10:03:29Z</time>
      </trkpt>
      <trkpt lat="43.7133" lon="7.03765">
        <ele>578.8510742</ele>
        <time>2011-02-05T10:03:33Z</time>
      </trkpt>
      <trkpt lat="43.71333" lon="7.03773">
        <ele>576.4477539</ele>
        <time>2011-02-05T10:03:36Z</time>
      </trkpt>
      <trkpt lat="43.71358" lon="7.03768">
        <ele>572.1218262</ele>
        <time>2011-02-05T10:03:44Z</time>
      </trkpt>
      <trkpt lat="43.7136" lon="7.03766">
        <ele>572.1218262</ele>
        <time>2011-02-05T10:03:45Z</time>
      </trkpt>
      <trkpt lat="43.71374" lon="7.03765">
        <ele>570.1989746</ele>
        <time>2011-02-05T10:03:49Z</time>
      </trkpt>
      <trkpt lat="43.71369" lon="7.03783">
        <ele>565.873291</ele>
        <time>2011-02-05T10:03:56Z</time>
      </trkpt>
      <trkpt lat="43.71364" lon="7.03792">
        <ele>562.9892578</ele>
        <time>2011-02-05T10:03:59Z</time>
      </trkpt>
      <trkpt lat="43.71364" lon="7.03795">
        <ele>562.0280762</ele>
        <time>2011-02-05T10:04:01Z</time>
      </trkpt>
      <trkpt lat="43.71387" lon="7.03786">
        <ele>558.1828613</ele>
        <time>2011-02-05T10:04:07Z</time>
      </trkpt>
      <trkpt lat="43.71392" lon="7.03785">
        <ele>558.1828613</ele>
        <time>2011-02-05T10:04:08Z</time>
      </trkpt>
      <trkpt lat="43.714" lon="7.03783">
        <ele>556.2600098</ele>
        <time>2011-02-05T10:04:10Z</time>
      </trkpt>
      <trkpt lat="43.71404" lon="7.03782">
        <ele>554.8178711</ele>
        <time>2011-02-05T10:04:11Z</time>
      </trkpt>
      <trkpt lat="43.71412" lon="7.03782">
        <ele>553.8566895</ele>
        <time>2011-02-05T10:04:13Z</time>
      </trkpt>
      <trkpt lat="43.71421" lon="7.0379">
        <ele>552.8952637</ele>
        <time>2011-02-05T10:04:15Z</time>
      </trkpt>
      <trkpt lat="43.71421" lon="7.03801">
        <ele>551.4533691</ele>
        <time>2011-02-05T10:04:20Z</time>
      </trkpt>
      <trkpt lat="43.71415" lon="7.03807">
        <ele>551.4533691</ele>
        <time>2011-02-05T10:04:23Z</time>
      </trkpt>
      <trkpt lat="43.71393" lon="7.03833">
        <ele>551.4533691</ele>
        <time>2011-02-05T10:04:29Z</time>
      </trkpt>
      <trkpt lat="43.71386" lon="7.03849">
        <ele>551.4533691</ele>
        <time>2011-02-05T10:04:32Z</time>
      </trkpt>
      <trkpt lat="43.71383" lon="7.03855">
        <ele>550.9726563</ele>
        <time>2011-02-05T10:04:34Z</time>
      </trkpt>
      <trkpt lat="43.71379" lon="7.03866">
        <ele>550.9726563</ele>
        <time>2011-02-05T10:04:38Z</time>
      </trkpt>
      <trkpt lat="43.7137" lon="7.03899">
        <ele>550.4921875</ele>
        <time>2011-02-05T10:04:44Z</time>
      </trkpt>
      <trkpt lat="43.71361" lon="7.03916">
        <ele>549.5307617</ele>
        <time>2011-02-05T10:04:48Z</time>
      </trkpt>
      <trkpt lat="43.71356" lon="7.03923">
        <ele>548.5693359</ele>
        <time>2011-02-05T10:04:50Z</time>
      </trkpt>
      <trkpt lat="43.71348" lon="7.03951">
        <ele>545.6855469</ele>
        <time>2011-02-05T10:04:54Z</time>
      </trkpt>
      <trkpt lat="43.7134" lon="7.03999">
        <ele>545.6855469</ele>
        <time>2011-02-05T10:05:01Z</time>
      </trkpt>
      <trkpt lat="43.71329" lon="7.04017">
        <ele>543.7628174</ele>
        <time>2011-02-05T10:05:04Z</time>
      </trkpt>
      <trkpt lat="43.71322" lon="7.04029">
        <ele>542.8015137</ele>
        <time>2011-02-05T10:05:06Z</time>
      </trkpt>
      <trkpt lat="43.71313" lon="7.04055">
        <ele>541.84021</ele>
        <time>2011-02-05T10:05:10Z</time>
      </trkpt>
      <trkpt lat="43.71308" lon="7.04079">
        <ele>540.8789063</ele>
        <time>2011-02-05T10:05:13Z</time>
      </trkpt>
      <trkpt lat="43.71302" lon="7.04112">
        <ele>538.9562988</ele>
        <time>2011-02-05T10:05:19Z</time>
      </trkpt>
      <trkpt lat="43.71298" lon="7.04128">
        <ele>537.9949951</ele>
        <time>2011-02-05T10:05:22Z</time>
      </trkpt>
      <trkpt lat="43.71296" lon="7.04138">
        <ele>535.5915527</ele>
        <time>2011-02-05T10:05:24Z</time>
      </trkpt>
      <trkpt lat="43.71294" lon="7.04154">
        <ele>533.6689453</ele>
        <time>2011-02-05T10:05:27Z</time>
      </trkpt>
      <trkpt lat="43.71292" lon="7.04166">
        <ele>532.2270508</ele>
        <time>2011-02-05T10:05:29Z</time>
      </trkpt>
      <trkpt lat="43.7129" lon="7.04175">
        <ele>530.7851563</ele>
        <time>2011-02-05T10:05:31Z</time>
      </trkpt>
      <trkpt lat="43.71282" lon="7.04205">
        <ele>528.3818359</ele>
        <time>2011-02-05T10:05:37Z</time>
      </trkpt>
      <trkpt lat="43.71277" lon="7.04212">
        <ele>527.4204102</ele>
        <time>2011-02-05T10:05:39Z</time>
      </trkpt>
      <trkpt lat="43.71264" lon="7.04261">
        <ele>528.3818359</ele>
        <time>2011-02-05T10:05:45Z</time>
      </trkpt>
      <trkpt lat="43.71261" lon="7.04298">
        <ele>527.901001</ele>
        <time>2011-02-05T10:05:50Z</time>
      </trkpt>
      <trkpt lat="43.71262" lon="7.04334">
        <ele>529.3431396</ele>
        <time>2011-02-05T10:05:58Z</time>
      </trkpt>
      <trkpt lat="43.71258" lon="7.04355">
        <ele>530.3044434</ele>
        <time>2011-02-05T10:06:03Z</time>
      </trkpt>
      <trkpt lat="43.71258" lon="7.04355">
        <ele>527.901001</ele>
        <time>2011-02-05T10:06:05Z</time>
      </trkpt>
      <trkpt lat="43.71258" lon="7.04355">
        <ele>528.3818359</ele>
        <time>2011-02-05T10:06:08Z</time>
      </trkpt>
      <trkpt lat="43.71258" lon="7.04355">
        <ele>527.901001</ele>
        <time>2011-02-05T10:06:29Z</time>
      </trkpt>
      <trkpt lat="43.71258" lon="7.04355">
        <ele>527.4204102</ele>
        <time>2011-02-05T10:06:48Z</time>
      </trkpt>
      <trkpt lat="43.71258" lon="7.04355">
        <ele>527.901001</ele>
        <time>2011-02-05T10:07:03Z</time>
      </trkpt>
      <trkpt lat="43.71258" lon="7.04355">
        <ele>527.901001</ele>
        <time>2011-02-05T10:07:37Z</time>
      </trkpt>
      <trkpt lat="43.71258" lon="7.04355">
        <ele>528.3818359</ele>
        <time>2011-02-05T10:07:45Z</time>
      </trkpt>
      <trkpt lat="43.71258" lon="7.04355">
        <ele>528.3818359</ele>
        <time>2011-02-05T10:08:29Z</time>
      </trkpt>
      <trkpt lat="43.71258" lon="7.04355">
        <ele>528.8625488</ele>
        <time>2011-02-05T10:10:23Z</time>
      </trkpt>
      <trkpt lat="43.71258" lon="7.04355">
        <ele>528.3818359</ele>
        <time>2011-02-05T10:11:56Z</time>
      </trkpt>
      <trkpt lat="43.71263" lon="7.04416">
        <ele>529.3431396</ele>
        <time>2011-02-05T10:12:08Z</time>
      </trkpt>
      <trkpt lat="43.7127" lon="7.0445">
        <ele>528.3818359</ele>
        <time>2011-02-05T10:12:14Z</time>
      </trkpt>
      <trkpt lat="43.7128" lon="7.04461">
        <ele>527.901001</ele>
        <time>2011-02-05T10:12:17Z</time>
      </trkpt>
      <trkpt lat="43.71298" lon="7.04509">
        <ele>526.9398193</ele>
        <time>2011-02-05T10:12:27Z</time>
      </trkpt>
      <trkpt lat="43.71305" lon="7.04538">
        <ele>524.0557861</ele>
        <time>2011-02-05T10:12:30Z</time>
      </trkpt>
      <trkpt lat="43.71312" lon="7.04555">
        <ele>522.6138916</ele>
        <time>2011-02-05T10:12:32Z</time>
      </trkpt>
      <trkpt lat="43.71315" lon="7.04563">
        <ele>522.1331787</ele>
        <time>2011-02-05T10:12:33Z</time>
      </trkpt>
      <trkpt lat="43.71329" lon="7.04607">
        <ele>522.1331787</ele>
        <time>2011-02-05T10:12:39Z</time>
      </trkpt>
      <trkpt lat="43.71334" lon="7.04655">
        <ele>521.6525879</ele>
        <time>2011-02-05T10:12:46Z</time>
      </trkpt>
      <trkpt lat="43.71327" lon="7.04687">
        <ele>521.1719971</ele>
        <time>2011-02-05T10:12:50Z</time>
      </trkpt>
      <trkpt lat="43.7134" lon="7.0472">
        <ele>518.2878418</ele>
        <time>2011-02-05T10:12:55Z</time>
      </trkpt>
      <trkpt lat="43.71343" lon="7.04725">
        <ele>516.8459473</ele>
        <time>2011-02-05T10:12:57Z</time>
      </trkpt>
      <trkpt lat="43.71344" lon="7.04728">
        <ele>514.9233398</ele>
        <time>2011-02-05T10:12:59Z</time>
      </trkpt>
      <trkpt lat="43.7135" lon="7.04715">
        <ele>516.3652344</ele>
        <time>2011-02-05T10:13:04Z</time>
      </trkpt>
      <trkpt lat="43.71352" lon="7.0471">
        <ele>518.7685547</ele>
        <time>2011-02-05T10:13:07Z</time>
      </trkpt>
      <trkpt lat="43.71348" lon="7.047">
        <ele>519.2492676</ele>
        <time>2011-02-05T10:13:10Z</time>
      </trkpt>
      <trkpt lat="43.71342" lon="7.04694">
        <ele>522.1331787</ele>
        <time>2011-02-05T10:13:14Z</time>
      </trkpt>
      <trkpt lat="43.71347" lon="7.04663">
        <ele>525.4978027</ele>
        <time>2011-02-05T10:13:27Z</time>
      </trkpt>
      <trkpt lat="43.71357" lon="7.04652">
        <ele>527.4204102</ele>
        <time>2011-02-05T10:13:34Z</time>
      </trkpt>
      <trkpt lat="43.71372" lon="7.04636">
        <ele>530.7851563</ele>
        <time>2011-02-05T10:13:45Z</time>
      </trkpt>
      <trkpt lat="43.71384" lon="7.04624">
        <ele>533.6689453</ele>
        <time>2011-02-05T10:13:54Z</time>
      </trkpt>
      <trkpt lat="43.7139" lon="7.0462">
        <ele>535.1109619</ele>
        <time>2011-02-05T10:13:58Z</time>
      </trkpt>
      <trkpt lat="43.71398" lon="7.04613">
        <ele>537.5142822</ele>
        <time>2011-02-05T10:14:05Z</time>
      </trkpt>
      <trkpt lat="43.71406" lon="7.04605">
        <ele>540.8789063</ele>
        <time>2011-02-05T10:14:11Z</time>
      </trkpt>
      <trkpt lat="43.71407" lon="7.04604">
        <ele>540.8789063</ele>
        <time>2011-02-05T10:14:12Z</time>
      </trkpt>
      <trkpt lat="43.71408" lon="7.04603">
        <ele>543.2821045</ele>
        <time>2011-02-05T10:14:18Z</time>
      </trkpt>
      <trkpt lat="43.71408" lon="7.04603">
        <ele>544.2436523</ele>
        <time>2011-02-05T10:14:49Z</time>
      </trkpt>
      <trkpt lat="43.71408" lon="7.04603">
        <ele>545.204834</ele>
        <time>2011-02-05T10:14:53Z</time>
      </trkpt>
      <trkpt lat="43.71408" lon="7.04603">
        <ele>548.5693359</ele>
        <time>2011-02-05T10:15:03Z</time>
      </trkpt>
      <trkpt lat="43.71413" lon="7.04597">
        <ele>551.934082</ele>
        <time>2011-02-05T10:15:18Z</time>
      </trkpt>
      <trkpt lat="43.71413" lon="7.04597">
        <ele>554.3374023</ele>
        <time>2011-02-05T10:15:25Z</time>
      </trkpt>
      <trkpt lat="43.71413" lon="7.04597">
        <ele>558.1828613</ele>
        <time>2011-02-05T10:15:37Z</time>
      </trkpt>
      <trkpt lat="43.71413" lon="7.04597">
        <ele>561.0666504</ele>
        <time>2011-02-05T10:15:50Z</time>
      </trkpt>
      <trkpt lat="43.71413" lon="7.04597">
        <ele>564.9118652</ele>
        <time>2011-02-05T10:16:03Z</time>
      </trkpt>
      <trkpt lat="43.71413" lon="7.04597">
        <ele>564.9118652</ele>
        <time>2011-02-05T10:16:04Z</time>
      </trkpt>
      <trkpt lat="43.71413" lon="7.04597">
        <ele>568.2763672</ele>
        <time>2011-02-05T10:16:17Z</time>
      </trkpt>
      <trkpt lat="43.71413" lon="7.04597">
        <ele>571.6408691</ele>
        <time>2011-02-05T10:16:26Z</time>
      </trkpt>
      <trkpt lat="43.71413" lon="7.04597">
        <ele>575.0058594</ele>
        <time>2011-02-05T10:16:40Z</time>
      </trkpt>
      <trkpt lat="43.71413" lon="7.04597">
        <ele>578.3703613</ele>
        <time>2011-02-05T10:16:53Z</time>
      </trkpt>
      <trkpt lat="43.71413" lon="7.04597">
        <ele>581.2543945</ele>
        <time>2011-02-05T10:17:06Z</time>
      </trkpt>
      <trkpt lat="43.71413" lon="7.04597">
        <ele>581.2543945</ele>
        <time>2011-02-05T10:17:44Z</time>
      </trkpt>
      <trkpt lat="43.71413" lon="7.04597">
        <ele>585.0996094</ele>
        <time>2011-02-05T10:19:25Z</time>
      </trkpt>
      <trkpt lat="43.71413" lon="7.04597">
        <ele>587.0219727</ele>
        <time>2011-02-05T10:19:33Z</time>
      </trkpt>
      <trkpt lat="43.71413" lon="7.04597">
        <ele>589.90625</ele>
        <time>2011-02-05T10:19:46Z</time>
      </trkpt>
      <trkpt lat="43.71413" lon="7.04597">
        <ele>591.8288574</ele>
        <time>2011-02-05T10:19:54Z</time>
      </trkpt>
      <trkpt lat="43.71413" lon="7.04597">
        <ele>594.7126465</ele>
        <time>2011-02-05T10:20:08Z</time>
      </trkpt>
      <trkpt lat="43.71499" lon="7.04519">
        <ele>597.5966797</ele>
        <time>2011-02-05T10:20:24Z</time>
      </trkpt>
      <trkpt lat="43.71504" lon="7.04534">
        <ele>599.5192871</ele>
        <time>2011-02-05T10:20:37Z</time>
      </trkpt>
      <trkpt lat="43.71508" lon="7.04537">
        <ele>600</ele>
        <time>2011-02-05T10:20:41Z</time>
      </trkpt>
      <trkpt lat="43.71516" lon="7.04544">
        <ele>601.9226074</ele>
        <time>2011-02-05T10:20:54Z</time>
      </trkpt>
      <trkpt lat="43.71519" lon="7.04546">
        <ele>602.4030762</ele>
        <time>2011-02-05T10:21:01Z</time>
      </trkpt>
      <trkpt lat="43.71522" lon="7.04551">
        <ele>602.8837891</ele>
        <time>2011-02-05T10:21:05Z</time>
      </trkpt>
      <trkpt lat="43.71529" lon="7.04563">
        <ele>606.2485352</ele>
        <time>2011-02-05T10:21:17Z</time>
      </trkpt>
      <trkpt lat="43.71532" lon="7.04566">
        <ele>606.2485352</ele>
        <time>2011-02-05T10:21:20Z</time>
      </trkpt>
      <trkpt lat="43.71539" lon="7.04574">
        <ele>609.1325684</ele>
        <time>2011-02-05T10:21:31Z</time>
      </trkpt>
      <trkpt lat="43.71547" lon="7.04579">
        <ele>610.09375</ele>
        <time>2011-02-05T10:21:41Z</time>
      </trkpt>
      <trkpt lat="43.71552" lon="7.04574">
        <ele>612.0166016</ele>
        <time>2011-02-05T10:21:48Z</time>
      </trkpt>
      <trkpt lat="43.71545" lon="7.04567">
        <ele>614.9003906</ele>
        <time>2011-02-05T10:22:02Z</time>
      </trkpt>
      <trkpt lat="43.71544" lon="7.04567">
        <ele>615.3811035</ele>
        <time>2011-02-05T10:22:09Z</time>
      </trkpt>
      <trkpt lat="43.71539" lon="7.0456">
        <ele>615.8618164</ele>
        <time>2011-02-05T10:22:17Z</time>
      </trkpt>
      <trkpt lat="43.71538" lon="7.04538">
        <ele>619.7070313</ele>
        <time>2011-02-05T10:22:35Z</time>
      </trkpt>
      <trkpt lat="43.71544" lon="7.04529">
        <ele>621.6296387</ele>
        <time>2011-02-05T10:22:45Z</time>
      </trkpt>
      <trkpt lat="43.71553" lon="7.0454">
        <ele>624.9943848</ele>
        <time>2011-02-05T10:23:00Z</time>
      </trkpt>
      <trkpt lat="43.71556" lon="7.04546">
        <ele>627.3977051</ele>
        <time>2011-02-05T10:23:15Z</time>
      </trkpt>
      <trkpt lat="43.71563" lon="7.04546">
        <ele>628.8395996</ele>
        <time>2011-02-05T10:23:25Z</time>
      </trkpt>
      <trkpt lat="43.71567" lon="7.0456">
        <ele>631.7233887</ele>
        <time>2011-02-05T10:23:37Z</time>
      </trkpt>
      <trkpt lat="43.71567" lon="7.04557">
        <ele>633.1652832</ele>
        <time>2011-02-05T10:23:51Z</time>
      </trkpt>
      <trkpt lat="43.71568" lon="7.04551">
        <ele>636.0495605</ele>
        <time>2011-02-05T10:24:01Z</time>
      </trkpt>
      <trkpt lat="43.7157" lon="7.0456">
        <ele>637.4914551</ele>
        <time>2011-02-05T10:24:14Z</time>
      </trkpt>
      <trkpt lat="43.71571" lon="7.04567">
        <ele>639.4140625</ele>
        <time>2011-02-05T10:24:22Z</time>
      </trkpt>
      <trkpt lat="43.7158" lon="7.04575">
        <ele>641.8173828</ele>
        <time>2011-02-05T10:24:36Z</time>
      </trkpt>
      <trkpt lat="43.71586" lon="7.04582">
        <ele>644.2207031</ele>
        <time>2011-02-05T10:24:51Z</time>
      </trkpt>
      <trkpt lat="43.7159" lon="7.04592">
        <ele>645.6625977</ele>
        <time>2011-02-05T10:25:06Z</time>
      </trkpt>
      <trkpt lat="43.71595" lon="7.04595">
        <ele>645.6625977</ele>
        <time>2011-02-05T10:26:39Z</time>
      </trkpt>
      <trkpt lat="43.71604" lon="7.04598">
        <ele>646.1433105</ele>
        <time>2011-02-05T10:27:02Z</time>
      </trkpt>
      <trkpt lat="43.71624" lon="7.04607">
        <ele>647.5852051</ele>
        <time>2011-02-05T10:27:21Z</time>
      </trkpt>
      <trkpt lat="43.71632" lon="7.04612">
        <ele>649.5078125</ele>
        <time>2011-02-05T10:27:29Z</time>
      </trkpt>
      <trkpt lat="43.71644" lon="7.04612">
        <ele>651.4304199</ele>
        <time>2011-02-05T10:27:43Z</time>
      </trkpt>
      <trkpt lat="43.71645" lon="7.04612">
        <ele>652.8725586</ele>
        <time>2011-02-05T10:27:59Z</time>
      </trkpt>
      <trkpt lat="43.71639" lon="7.04599">
        <ele>656.7177734</ele>
        <time>2011-02-05T10:28:17Z</time>
      </trkpt>
      <trkpt lat="43.7165" lon="7.04598">
        <ele>658.6403809</ele>
        <time>2011-02-05T10:28:31Z</time>
      </trkpt>
      <trkpt lat="43.71649" lon="7.04594">
        <ele>661.0437012</ele>
        <time>2011-02-05T10:28:46Z</time>
      </trkpt>
      <trkpt lat="43.7164" lon="7.0458">
        <ele>664.4082031</ele>
        <time>2011-02-05T10:29:06Z</time>
      </trkpt>
      <trkpt lat="43.71636" lon="7.04566">
        <ele>667.2922363</ele>
        <time>2011-02-05T10:29:23Z</time>
      </trkpt>
      <trkpt lat="43.71627" lon="7.04549">
        <ele>670.1762695</ele>
        <time>2011-02-05T10:29:42Z</time>
      </trkpt>
      <trkpt lat="43.71634" lon="7.04542">
        <ele>672.098877</ele>
        <time>2011-02-05T10:29:56Z</time>
      </trkpt>
      <trkpt lat="43.71634" lon="7.04542">
        <ele>672.098877</ele>
        <time>2011-02-05T10:29:57Z</time>
      </trkpt>
      <trkpt lat="43.71659" lon="7.04556">
        <ele>674.9829102</ele>
        <time>2011-02-05T10:30:15Z</time>
      </trkpt>
      <trkpt lat="43.71672" lon="7.04558">
        <ele>676.9055176</ele>
        <time>2011-02-05T10:30:29Z</time>
      </trkpt>
      <trkpt lat="43.71685" lon="7.04576">
        <ele>677.3862305</ele>
        <time>2011-02-05T10:30:43Z</time>
      </trkpt>
      <trkpt lat="43.71688" lon="7.04579">
        <ele>677.3862305</ele>
        <time>2011-02-05T10:30:45Z</time>
      </trkpt>
      <trkpt lat="43.71696" lon="7.04579">
        <ele>678.828125</ele>
        <time>2011-02-05T10:30:53Z</time>
      </trkpt>
      <trkpt lat="43.71719" lon="7.04582">
        <ele>682.192627</ele>
        <time>2011-02-05T10:31:08Z</time>
      </trkpt>
      <trkpt lat="43.71721" lon="7.04581">
        <ele>682.192627</ele>
        <time>2011-02-05T10:31:09Z</time>
      </trkpt>
      <trkpt lat="43.71726" lon="7.04583">
        <ele>683.1538086</ele>
        <time>2011-02-05T10:31:13Z</time>
      </trkpt>
      <trkpt lat="43.71741" lon="7.04583">
        <ele>686.0380859</ele>
        <time>2011-02-05T10:31:22Z</time>
      </trkpt>
      <trkpt lat="43.71749" lon="7.04578">
        <ele>687.9606934</ele>
        <time>2011-02-05T10:31:36Z</time>
      </trkpt>
      <trkpt lat="43.71749" lon="7.04578">
        <ele>687.9606934</ele>
        <time>2011-02-05T10:31:39Z</time>
      </trkpt>
      <trkpt lat="43.71764" lon="7.04569">
        <ele>690.3640137</ele>
        <time>2011-02-05T10:31:52Z</time>
      </trkpt>
      <trkpt lat="43.71778" lon="7.04559">
        <ele>692.2866211</ele>
        <time>2011-02-05T10:32:02Z</time>
      </trkpt>
      <trkpt lat="43.71786" lon="7.04555">
        <ele>693.2478027</ele>
        <time>2011-02-05T10:32:15Z</time>
      </trkpt>
      <trkpt lat="43.71793" lon="7.04556">
        <ele>694.2092285</ele>
        <time>2011-02-05T10:32:20Z</time>
      </trkpt>
      <trkpt lat="43.71795" lon="7.04555">
        <ele>694.6896973</ele>
        <time>2011-02-05T10:32:26Z</time>
      </trkpt>
      <trkpt lat="43.718" lon="7.04553">
        <ele>694.6896973</ele>
        <time>2011-02-05T10:32:29Z</time>
      </trkpt>
      <trkpt lat="43.71803" lon="7.04547">
        <ele>696.1318359</ele>
        <time>2011-02-05T10:32:33Z</time>
      </trkpt>
      <trkpt lat="43.71811" lon="7.04533">
        <ele>697.5737305</ele>
        <time>2011-02-05T10:32:45Z</time>
      </trkpt>
      <trkpt lat="43.71813" lon="7.04523">
        <ele>698.0544434</ele>
        <time>2011-02-05T10:32:50Z</time>
      </trkpt>
      <trkpt lat="43.71816" lon="7.0452">
        <ele>699.4963379</ele>
        <time>2011-02-05T10:32:53Z</time>
      </trkpt>
      <trkpt lat="43.71819" lon="7.04517">
        <ele>699.4963379</ele>
        <time>2011-02-05T10:32:55Z</time>
      </trkpt>
      <trkpt lat="43.71842" lon="7.04493">
        <ele>703.3417969</ele>
        <time>2011-02-05T10:33:12Z</time>
      </trkpt>
      <trkpt lat="43.71844" lon="7.04488">
        <ele>703.3417969</ele>
        <time>2011-02-05T10:33:15Z</time>
      </trkpt>
      <trkpt lat="43.71845" lon="7.04481">
        <ele>704.7836914</ele>
        <time>2011-02-05T10:33:18Z</time>
      </trkpt>
      <trkpt lat="43.71847" lon="7.04479">
        <ele>704.7836914</ele>
        <time>2011-02-05T10:33:19Z</time>
      </trkpt>
      <trkpt lat="43.71852" lon="7.04476">
        <ele>706.2255859</ele>
        <time>2011-02-05T10:33:23Z</time>
      </trkpt>
      <trkpt lat="43.71864" lon="7.04477">
        <ele>706.2255859</ele>
        <time>2011-02-05T10:33:28Z</time>
      </trkpt>
      <trkpt lat="43.71871" lon="7.04476">
        <ele>707.1870117</ele>
        <time>2011-02-05T10:33:42Z</time>
      </trkpt>
      <trkpt lat="43.71885" lon="7.04488">
        <ele>708.6289063</ele>
        <time>2011-02-05T10:39:35Z</time>
      </trkpt>
      <trkpt lat="43.71903" lon="7.04485">
        <ele>711.5129395</ele>
        <time>2011-02-05T10:39:50Z</time>
      </trkpt>
      <trkpt lat="43.71907" lon="7.04483">
        <ele>712.954834</ele>
        <time>2011-02-05T10:39:55Z</time>
      </trkpt>
      <trkpt lat="43.71911" lon="7.0448">
        <ele>713.4355469</ele>
        <time>2011-02-05T10:39:58Z</time>
      </trkpt>
      <trkpt lat="43.71927" lon="7.04481">
        <ele>717.7614746</ele>
        <time>2011-02-05T10:40:09Z</time>
      </trkpt>
      <trkpt lat="43.71928" lon="7.04481">
        <ele>717.7614746</ele>
        <time>2011-02-05T10:40:10Z</time>
      </trkpt>
      <trkpt lat="43.71931" lon="7.04482">
        <ele>718.2421875</ele>
        <time>2011-02-05T10:40:13Z</time>
      </trkpt>
      <trkpt lat="43.71935" lon="7.04481">
        <ele>718.7229004</ele>
        <time>2011-02-05T10:40:16Z</time>
      </trkpt>
      <trkpt lat="43.71948" lon="7.04484">
        <ele>722.0874023</ele>
        <time>2011-02-05T10:40:25Z</time>
      </trkpt>
      <trkpt lat="43.7195" lon="7.04484">
        <ele>722.0874023</ele>
        <time>2011-02-05T10:40:26Z</time>
      </trkpt>
      <trkpt lat="43.71955" lon="7.04482">
        <ele>722.5681152</ele>
        <time>2011-02-05T10:40:30Z</time>
      </trkpt>
      <trkpt lat="43.71959" lon="7.04483">
        <ele>723.529541</ele>
        <time>2011-02-05T10:40:34Z</time>
      </trkpt>
      <trkpt lat="43.71986" lon="7.0447">
        <ele>726.4133301</ele>
        <time>2011-02-05T10:40:57Z</time>
      </trkpt>
      <trkpt lat="43.71988" lon="7.04469">
        <ele>726.4133301</ele>
        <time>2011-02-05T10:40:58Z</time>
      </trkpt>
      <trkpt lat="43.71998" lon="7.04461">
        <ele>729.777832</ele>
        <time>2011-02-05T10:41:12Z</time>
      </trkpt>
      <trkpt lat="43.71996" lon="7.04459">
        <ele>729.777832</ele>
        <time>2011-02-05T10:41:16Z</time>
      </trkpt>
      <trkpt lat="43.71994" lon="7.04456">
        <ele>730.2585449</ele>
        <time>2011-02-05T10:41:19Z</time>
      </trkpt>
      <trkpt lat="43.71978" lon="7.04442">
        <ele>733.623291</ele>
        <time>2011-02-05T10:41:36Z</time>
      </trkpt>
      <trkpt lat="43.71972" lon="7.04425">
        <ele>736.987793</ele>
        <time>2011-02-05T10:41:46Z</time>
      </trkpt>
      <trkpt lat="43.71972" lon="7.04423">
        <ele>736.987793</ele>
        <time>2011-02-05T10:41:47Z</time>
      </trkpt>
      <trkpt lat="43.71973" lon="7.04413">
        <ele>738.9106445</ele>
        <time>2011-02-05T10:41:51Z</time>
      </trkpt>
      <trkpt lat="43.71972" lon="7.0439">
        <ele>741.7944336</ele>
        <time>2011-02-05T10:42:02Z</time>
      </trkpt>
      <trkpt lat="43.71973" lon="7.04373">
        <ele>745.1589355</ele>
        <time>2011-02-05T10:42:11Z</time>
      </trkpt>
      <trkpt lat="43.71979" lon="7.0435">
        <ele>748.0432129</ele>
        <time>2011-02-05T10:42:24Z</time>
      </trkpt>
      <trkpt lat="43.71979" lon="7.04349">
        <ele>748.0432129</ele>
        <time>2011-02-05T10:42:25Z</time>
      </trkpt>
      <trkpt lat="43.71982" lon="7.04336">
        <ele>750.4465332</ele>
        <time>2011-02-05T10:42:33Z</time>
      </trkpt>
      <trkpt lat="43.71987" lon="7.04316">
        <ele>753.8110352</ele>
        <time>2011-02-05T10:42:45Z</time>
      </trkpt>
      <trkpt lat="43.71995" lon="7.04288">
        <ele>757.1755371</ele>
        <time>2011-02-05T10:43:01Z</time>
      </trkpt>
      <trkpt lat="43.72" lon="7.04269">
        <ele>759.5788574</ele>
        <time>2011-02-05T10:43:12Z</time>
      </trkpt>
      <trkpt lat="43.72015" lon="7.04252">
        <ele>761.9821777</ele>
        <time>2011-02-05T10:43:27Z</time>
      </trkpt>
      <trkpt lat="43.72024" lon="7.04239">
        <ele>763.4240723</ele>
        <time>2011-02-05T10:43:36Z</time>
      </trkpt>
      <trkpt lat="43.72039" lon="7.04218">
        <ele>767.75</ele>
        <time>2011-02-05T10:43:52Z</time>
      </trkpt>
      <trkpt lat="43.72051" lon="7.04196">
        <ele>770.6340332</ele>
        <time>2011-02-05T10:44:07Z</time>
      </trkpt>
      <trkpt lat="43.72069" lon="7.04168">
        <ele>772.5566406</ele>
        <time>2011-02-05T10:44:29Z</time>
      </trkpt>
      <trkpt lat="43.72085" lon="7.04142">
        <ele>773.5180664</ele>
        <time>2011-02-05T10:44:47Z</time>
      </trkpt>
      <trkpt lat="43.72086" lon="7.04109">
        <ele>774.9599609</ele>
        <time>2011-02-05T10:45:03Z</time>
      </trkpt>
      <trkpt lat="43.72084" lon="7.0407">
        <ele>777.84375</ele>
        <time>2011-02-05T10:45:23Z</time>
      </trkpt>
      <trkpt lat="43.72076" lon="7.04032">
        <ele>778.8051758</ele>
        <time>2011-02-05T10:45:45Z</time>
      </trkpt>
      <trkpt lat="43.72077" lon="7.03999">
        <ele>780.2473145</ele>
        <time>2011-02-05T10:46:01Z</time>
      </trkpt>
      <trkpt lat="43.72076" lon="7.03997">
        <ele>780.2473145</ele>
        <time>2011-02-05T10:46:02Z</time>
      </trkpt>
      <trkpt lat="43.72071" lon="7.03978">
        <ele>781.2087402</ele>
        <time>2011-02-05T10:46:15Z</time>
      </trkpt>
      <trkpt lat="43.72068" lon="7.03943">
        <ele>785.0539551</ele>
        <time>2011-02-05T10:46:32Z</time>
      </trkpt>
      <trkpt lat="43.72057" lon="7.03922">
        <ele>786.0151367</ele>
        <time>2011-02-05T10:46:47Z</time>
      </trkpt>
      <trkpt lat="43.72042" lon="7.03899">
        <ele>786.9763184</ele>
        <time>2011-02-05T10:47:03Z</time>
      </trkpt>
      <trkpt lat="43.72026" lon="7.03856">
        <ele>790.3410645</ele>
        <time>2011-02-05T10:47:25Z</time>
      </trkpt>
      <trkpt lat="43.72031" lon="7.03806">
        <ele>790.3410645</ele>
        <time>2011-02-05T10:47:45Z</time>
      </trkpt>
      <trkpt lat="43.72044" lon="7.0378">
        <ele>790.3410645</ele>
        <time>2011-02-05T10:47:55Z</time>
      </trkpt>
      <trkpt lat="43.72055" lon="7.03751">
        <ele>793.7055664</ele>
        <time>2011-02-05T10:48:09Z</time>
      </trkpt>
      <trkpt lat="43.72072" lon="7.03732">
        <ele>796.5898438</ele>
        <time>2011-02-05T10:48:24Z</time>
      </trkpt>
      <trkpt lat="43.72085" lon="7.03735">
        <ele>798.512207</ele>
        <time>2011-02-05T10:48:35Z</time>
      </trkpt>
      <trkpt lat="43.721" lon="7.03749">
        <ele>802.3574219</ele>
        <time>2011-02-05T10:48:52Z</time>
      </trkpt>
      <trkpt lat="43.721" lon="7.03755">
        <ele>802.8381348</ele>
        <time>2011-02-05T10:48:55Z</time>
      </trkpt>
      <trkpt lat="43.72086" lon="7.03776">
        <ele>804.2802734</ele>
        <time>2011-02-05T10:49:03Z</time>
      </trkpt>
      <trkpt lat="43.72086" lon="7.03785">
        <ele>806.6833496</ele>
        <time>2011-02-05T10:49:07Z</time>
      </trkpt>
      <trkpt lat="43.72087" lon="7.03807">
        <ele>808.1254883</ele>
        <time>2011-02-05T10:49:17Z</time>
      </trkpt>
      <trkpt lat="43.72091" lon="7.03807">
        <ele>809.0866699</ele>
        <time>2011-02-05T10:49:31Z</time>
      </trkpt>
      <trkpt lat="43.7209" lon="7.03808">
        <ele>807.1640625</ele>
        <time>2011-02-05T10:52:03Z</time>
      </trkpt>
      <trkpt lat="43.7209" lon="7.03808">
        <ele>807.6447754</ele>
        <time>2011-02-05T10:52:34Z</time>
      </trkpt>
      <trkpt lat="43.7209" lon="7.03808">
        <ele>809.5673828</ele>
        <time>2011-02-05T10:53:46Z</time>
      </trkpt>
      <trkpt lat="43.72098" lon="7.03794">
        <ele>809.5673828</ele>
        <time>2011-02-05T10:53:53Z</time>
      </trkpt>
      <trkpt lat="43.72117" lon="7.03766">
        <ele>811.9707031</ele>
        <time>2011-02-05T10:54:08Z</time>
      </trkpt>
      <trkpt lat="43.72119" lon="7.03763">
        <ele>812.451416</ele>
        <time>2011-02-05T10:54:10Z</time>
      </trkpt>
      <trkpt lat="43.72124" lon="7.0377">
        <ele>813.8933105</ele>
        <time>2011-02-05T10:54:19Z</time>
      </trkpt>
      <trkpt lat="43.72123" lon="7.03774">
        <ele>814.3740234</ele>
        <time>2011-02-05T10:54:21Z</time>
      </trkpt>
      <trkpt lat="43.72124" lon="7.03821">
        <ele>816.7773438</ele>
        <time>2011-02-05T10:54:41Z</time>
      </trkpt>
      <trkpt lat="43.72138" lon="7.03874">
        <ele>817.7385254</ele>
        <time>2011-02-05T10:54:59Z</time>
      </trkpt>
      <trkpt lat="43.72164" lon="7.03927">
        <ele>819.661377</ele>
        <time>2011-02-05T10:55:18Z</time>
      </trkpt>
      <trkpt lat="43.72207" lon="7.03961">
        <ele>821.5837402</ele>
        <time>2011-02-05T10:55:36Z</time>
      </trkpt>
      <trkpt lat="43.72239" lon="7.03975">
        <ele>822.545166</ele>
        <time>2011-02-05T10:55:51Z</time>
      </trkpt>
      <trkpt lat="43.7224" lon="7.03976">
        <ele>822.0644531</ele>
        <time>2011-02-05T10:56:06Z</time>
      </trkpt>
      <trkpt lat="43.72247" lon="7.03976">
        <ele>822.545166</ele>
        <time>2011-02-05T10:56:33Z</time>
      </trkpt>
      <trkpt lat="43.72266" lon="7.03983">
        <ele>821.5837402</ele>
        <time>2011-02-05T10:56:38Z</time>
      </trkpt>
      <trkpt lat="43.72316" lon="7.03993">
        <ele>822.545166</ele>
        <time>2011-02-05T10:56:51Z</time>
      </trkpt>
      <trkpt lat="43.72329" lon="7.03993">
        <ele>822.545166</ele>
        <time>2011-02-05T10:56:54Z</time>
      </trkpt>
      <trkpt lat="43.72345" lon="7.0399">
        <ele>821.5837402</ele>
        <time>2011-02-05T10:56:58Z</time>
      </trkpt>
      <trkpt lat="43.724" lon="7.03944">
        <ele>818.6999512</ele>
        <time>2011-02-05T10:57:11Z</time>
      </trkpt>
      <trkpt lat="43.72405" lon="7.03941">
        <ele>818.6999512</ele>
        <time>2011-02-05T10:57:12Z</time>
      </trkpt>
      <trkpt lat="43.7242" lon="7.0395">
        <ele>818.2192383</ele>
        <time>2011-02-05T10:57:17Z</time>
      </trkpt>
      <trkpt lat="43.72425" lon="7.03966">
        <ele>817.7385254</ele>
        <time>2011-02-05T10:57:20Z</time>
      </trkpt>
      <trkpt lat="43.72433" lon="7.03982">
        <ele>817.2580566</ele>
        <time>2011-02-05T10:57:23Z</time>
      </trkpt>
      <trkpt lat="43.72459" lon="7.04021">
        <ele>818.2192383</ele>
        <time>2011-02-05T10:57:36Z</time>
      </trkpt>
      <trkpt lat="43.72502" lon="7.04036">
        <ele>821.1032715</ele>
        <time>2011-02-05T10:57:52Z</time>
      </trkpt>
      <trkpt lat="43.72543" lon="7.04062">
        <ele>820.6225586</ele>
        <time>2011-02-05T10:58:09Z</time>
      </trkpt>
      <trkpt lat="43.72586" lon="7.0407">
        <ele>818.2192383</ele>
        <time>2011-02-05T10:58:21Z</time>
      </trkpt>
      <trkpt lat="43.7259" lon="7.04074">
        <ele>817.2580566</ele>
        <time>2011-02-05T10:58:22Z</time>
      </trkpt>
      <trkpt lat="43.72624" lon="7.04095">
        <ele>819.661377</ele>
        <time>2011-02-05T10:58:34Z</time>
      </trkpt>
      <trkpt lat="43.72659" lon="7.04111">
        <ele>819.661377</ele>
        <time>2011-02-05T10:58:48Z</time>
      </trkpt>
      <trkpt lat="43.72691" lon="7.04131">
        <ele>822.0644531</ele>
        <time>2011-02-05T10:59:05Z</time>
      </trkpt>
      <trkpt lat="43.72715" lon="7.04135">
        <ele>823.0258789</ele>
        <time>2011-02-05T10:59:19Z</time>
      </trkpt>
      <trkpt lat="43.72756" lon="7.04134">
        <ele>824.4677734</ele>
        <time>2011-02-05T10:59:39Z</time>
      </trkpt>
      <trkpt lat="43.72796" lon="7.04118">
        <ele>826.8710938</ele>
        <time>2011-02-05T10:59:57Z</time>
      </trkpt>
      <trkpt lat="43.72829" lon="7.04124">
        <ele>829.2744141</ele>
        <time>2011-02-05T11:00:14Z</time>
      </trkpt>
      <trkpt lat="43.72845" lon="7.04128">
        <ele>832.1584473</ele>
        <time>2011-02-05T11:00:21Z</time>
      </trkpt>
      <trkpt lat="43.72874" lon="7.04132">
        <ele>835.0424805</ele>
        <time>2011-02-05T11:00:35Z</time>
      </trkpt>
      <trkpt lat="43.72922" lon="7.04134">
        <ele>833.6003418</ele>
        <time>2011-02-05T11:00:49Z</time>
      </trkpt>
      <trkpt lat="43.72951" lon="7.04149">
        <ele>832.1584473</ele>
        <time>2011-02-05T11:00:59Z</time>
      </trkpt>
      <trkpt lat="43.7295" lon="7.04173">
        <ele>835.5229492</ele>
        <time>2011-02-05T11:01:07Z</time>
      </trkpt>
      <trkpt lat="43.72944" lon="7.04202">
        <ele>839.3681641</ele>
        <time>2011-02-05T11:01:14Z</time>
      </trkpt>
      <trkpt lat="43.72944" lon="7.04205">
        <ele>839.3681641</ele>
        <time>2011-02-05T11:01:15Z</time>
      </trkpt>
      <trkpt lat="43.72943" lon="7.04211">
        <ele>839.3681641</ele>
        <time>2011-02-05T11:01:17Z</time>
      </trkpt>
      <trkpt lat="43.72951" lon="7.04218">
        <ele>841.2907715</ele>
        <time>2011-02-05T11:01:26Z</time>
      </trkpt>
      <trkpt lat="43.72951" lon="7.04222">
        <ele>842.2521973</ele>
        <time>2011-02-05T11:01:36Z</time>
      </trkpt>
      <trkpt lat="43.72951" lon="7.04221">
        <ele>841.2907715</ele>
        <time>2011-02-05T11:02:07Z</time>
      </trkpt>
      <trkpt lat="43.7295" lon="7.04218">
        <ele>841.7714844</ele>
        <time>2011-02-05T11:02:12Z</time>
      </trkpt>
      <trkpt lat="43.72953" lon="7.04219">
        <ele>841.7714844</ele>
        <time>2011-02-05T11:02:30Z</time>
      </trkpt>
      <trkpt lat="43.72954" lon="7.04219">
        <ele>841.2907715</ele>
        <time>2011-02-05T11:03:20Z</time>
      </trkpt>
      <trkpt lat="43.72954" lon="7.04219">
        <ele>842.2521973</ele>
        <time>2011-02-05T11:03:25Z</time>
      </trkpt>
      <trkpt lat="43.72954" lon="7.04219">
        <ele>840.8100586</ele>
        <time>2011-02-05T11:03:27Z</time>
      </trkpt>
      <trkpt lat="43.72954" lon="7.04219">
        <ele>841.2907715</ele>
        <time>2011-02-05T11:03:53Z</time>
      </trkpt>
      <trkpt lat="43.72954" lon="7.0422">
        <ele>841.2907715</ele>
        <time>2011-02-05T11:04:21Z</time>
      </trkpt>
      <trkpt lat="43.72954" lon="7.0422">
        <ele>841.2907715</ele>
        <time>2011-02-05T11:04:27Z</time>
      </trkpt>
      <trkpt lat="43.72943" lon="7.04235">
        <ele>841.2907715</ele>
        <time>2011-02-05T11:04:31Z</time>
      </trkpt>
      <trkpt lat="43.72944" lon="7.04251">
        <ele>840.3295898</ele>
        <time>2011-02-05T11:04:33Z</time>
      </trkpt>
      <trkpt lat="43.72941" lon="7.04305">
        <ele>841.2907715</ele>
        <time>2011-02-05T11:04:44Z</time>
      </trkpt>
      <trkpt lat="43.72941" lon="7.0431">
        <ele>841.2907715</ele>
        <time>2011-02-05T11:04:45Z</time>
      </trkpt>
      <trkpt lat="43.72941" lon="7.04397">
        <ele>844.6555176</ele>
        <time>2011-02-05T11:05:02Z</time>
      </trkpt>
      <trkpt lat="43.72941" lon="7.04424">
        <ele>846.5783691</ele>
        <time>2011-02-05T11:05:08Z</time>
      </trkpt>
      <trkpt lat="43.72933" lon="7.04478">
        <ele>846.5783691</ele>
        <time>2011-02-05T11:05:20Z</time>
      </trkpt>
      <trkpt lat="43.72937" lon="7.04527">
        <ele>848.5007324</ele>
        <time>2011-02-05T11:05:32Z</time>
      </trkpt>
      <trkpt lat="43.7296" lon="7.04547">
        <ele>848.5007324</ele>
        <time>2011-02-05T11:05:45Z</time>
      </trkpt>
      <trkpt lat="43.72975" lon="7.04562">
        <ele>846.5783691</ele>
        <time>2011-02-05T11:05:51Z</time>
      </trkpt>
      <trkpt lat="43.72991" lon="7.04576">
        <ele>845.1362305</ele>
        <time>2011-02-05T11:05:57Z</time>
      </trkpt>
      <trkpt lat="43.73047" lon="7.04635">
        <ele>842.2521973</ele>
        <time>2011-02-05T11:06:09Z</time>
      </trkpt>
      <trkpt lat="43.73107" lon="7.04716">
        <ele>839.848877</ele>
        <time>2011-02-05T11:06:20Z</time>
      </trkpt>
      <trkpt lat="43.73117" lon="7.04726">
        <ele>838.4069824</ele>
        <time>2011-02-05T11:06:22Z</time>
      </trkpt>
      <trkpt lat="43.73143" lon="7.04743">
        <ele>836.9648438</ele>
        <time>2011-02-05T11:06:27Z</time>
      </trkpt>
      <trkpt lat="43.73179" lon="7.0475">
        <ele>836.484375</ele>
        <time>2011-02-05T11:06:33Z</time>
      </trkpt>
      <trkpt lat="43.73204" lon="7.04759">
        <ele>835.5229492</ele>
        <time>2011-02-05T11:06:37Z</time>
      </trkpt>
      <trkpt lat="43.73237" lon="7.04777">
        <ele>835.0424805</ele>
        <time>2011-02-05T11:06:43Z</time>
      </trkpt>
      <trkpt lat="43.73257" lon="7.04792">
        <ele>836.0036621</ele>
        <time>2011-02-05T11:06:49Z</time>
      </trkpt>
      <trkpt lat="43.73259" lon="7.04793">
        <ele>835.0424805</ele>
        <time>2011-02-05T11:07:03Z</time>
      </trkpt>
      <trkpt lat="43.73263" lon="7.0484">
        <ele>835.5229492</ele>
        <time>2011-02-05T11:07:48Z</time>
      </trkpt>
      <trkpt lat="43.7329" lon="7.04917">
        <ele>834.5617676</ele>
        <time>2011-02-05T11:08:00Z</time>
      </trkpt>
      <trkpt lat="43.73294" lon="7.04929">
        <ele>834.0810547</ele>
        <time>2011-02-05T11:08:02Z</time>
      </trkpt>
      <trkpt lat="43.73305" lon="7.04944">
        <ele>833.6003418</ele>
        <time>2011-02-05T11:08:05Z</time>
      </trkpt>
      <trkpt lat="43.73327" lon="7.04964">
        <ele>833.1196289</ele>
        <time>2011-02-05T11:08:11Z</time>
      </trkpt>
      <trkpt lat="43.73339" lon="7.04979">
        <ele>832.6391602</ele>
        <time>2011-02-05T11:08:15Z</time>
      </trkpt>
      <trkpt lat="43.73359" lon="7.04993">
        <ele>830.2358398</ele>
        <time>2011-02-05T11:08:21Z</time>
      </trkpt>
      <trkpt lat="43.73375" lon="7.05003">
        <ele>828.7939453</ele>
        <time>2011-02-05T11:08:24Z</time>
      </trkpt>
      <trkpt lat="43.7339" lon="7.05014">
        <ele>825.909668</ele>
        <time>2011-02-05T11:08:26Z</time>
      </trkpt>
      <trkpt lat="43.73407" lon="7.05035">
        <ele>824.4677734</ele>
        <time>2011-02-05T11:08:29Z</time>
      </trkpt>
      <trkpt lat="43.73413" lon="7.05049">
        <ele>822.0644531</ele>
        <time>2011-02-05T11:08:31Z</time>
      </trkpt>
      <trkpt lat="43.73415" lon="7.05067">
        <ele>821.5837402</ele>
        <time>2011-02-05T11:08:34Z</time>
      </trkpt>
      <trkpt lat="43.73418" lon="7.05102">
        <ele>820.6225586</ele>
        <time>2011-02-05T11:08:39Z</time>
      </trkpt>
      <trkpt lat="43.73431" lon="7.05189">
        <ele>823.0258789</ele>
        <time>2011-02-05T11:08:48Z</time>
      </trkpt>
      <trkpt lat="43.73433" lon="7.05203">
        <ele>823.5065918</ele>
        <time>2011-02-05T11:08:50Z</time>
      </trkpt>
      <trkpt lat="43.73436" lon="7.0522">
        <ele>823.0258789</ele>
        <time>2011-02-05T11:08:53Z</time>
      </trkpt>
      <trkpt lat="43.7344" lon="7.05241">
        <ele>822.0644531</ele>
        <time>2011-02-05T11:08:57Z</time>
      </trkpt>
      <trkpt lat="43.73451" lon="7.05275">
        <ele>823.5065918</ele>
        <time>2011-02-05T11:09:05Z</time>
      </trkpt>
      <trkpt lat="43.73461" lon="7.05332">
        <ele>826.8710938</ele>
        <time>2011-02-05T11:09:16Z</time>
      </trkpt>
      <trkpt lat="43.73464" lon="7.05351">
        <ele>826.8710938</ele>
        <time>2011-02-05T11:09:22Z</time>
      </trkpt>
      <trkpt lat="43.73468" lon="7.05359">
        <ele>827.8322754</ele>
        <time>2011-02-05T11:09:29Z</time>
      </trkpt>
      <trkpt lat="43.73466" lon="7.05363">
        <ele>826.3903809</ele>
        <time>2011-02-05T11:09:43Z</time>
      </trkpt>
      <trkpt lat="43.73466" lon="7.05363">
        <ele>826.8710938</ele>
        <time>2011-02-05T11:09:46Z</time>
      </trkpt>
      <trkpt lat="43.73466" lon="7.05363">
        <ele>827.3518066</ele>
        <time>2011-02-05T11:09:56Z</time>
      </trkpt>
      <trkpt lat="43.73467" lon="7.05361">
        <ele>826.8710938</ele>
        <time>2011-02-05T11:10:03Z</time>
      </trkpt>
      <trkpt lat="43.73467" lon="7.05365">
        <ele>826.3903809</ele>
        <time>2011-02-05T11:10:09Z</time>
      </trkpt>
      <trkpt lat="43.73472" lon="7.05401">
        <ele>825.4289551</ele>
        <time>2011-02-05T11:10:19Z</time>
      </trkpt>
      <trkpt lat="43.73479" lon="7.05427">
        <ele>821.5837402</ele>
        <time>2011-02-05T11:10:24Z</time>
      </trkpt>
      <trkpt lat="43.73479" lon="7.05429">
        <ele>821.5837402</ele>
        <time>2011-02-05T11:10:25Z</time>
      </trkpt>
      <trkpt lat="43.73479" lon="7.05434">
        <ele>821.1032715</ele>
        <time>2011-02-05T11:10:27Z</time>
      </trkpt>
      <trkpt lat="43.73479" lon="7.05438">
        <ele>820.6225586</ele>
        <time>2011-02-05T11:10:31Z</time>
      </trkpt>
      <trkpt lat="43.73479" lon="7.05438">
        <ele>821.1032715</ele>
        <time>2011-02-05T11:10:34Z</time>
      </trkpt>
      <trkpt lat="43.7351" lon="7.0541">
        <ele>824.9484863</ele>
        <time>2011-02-05T11:10:53Z</time>
      </trkpt>
      <trkpt lat="43.73516" lon="7.05404">
        <ele>826.3903809</ele>
        <time>2011-02-05T11:10:57Z</time>
      </trkpt>
      <trkpt lat="43.73534" lon="7.05386">
        <ele>829.2744141</ele>
        <time>2011-02-05T11:11:11Z</time>
      </trkpt>
      <trkpt lat="43.73536" lon="7.05384">
        <ele>830.7165527</ele>
        <time>2011-02-05T11:11:20Z</time>
      </trkpt>
      <trkpt lat="43.73536" lon="7.05384">
        <ele>831.6777344</ele>
        <time>2011-02-05T11:11:38Z</time>
      </trkpt>
      <trkpt lat="43.7356" lon="7.05354">
        <ele>835.5229492</ele>
        <time>2011-02-05T11:11:52Z</time>
      </trkpt>
      <trkpt lat="43.73572" lon="7.05336">
        <ele>837.4455566</ele>
        <time>2011-02-05T11:12:06Z</time>
      </trkpt>
      <trkpt lat="43.73577" lon="7.05327">
        <ele>838.4069824</ele>
        <time>2011-02-05T11:12:12Z</time>
      </trkpt>
      <trkpt lat="43.73582" lon="7.0532">
        <ele>838.4069824</ele>
        <time>2011-02-05T11:12:27Z</time>
      </trkpt>
      <trkpt lat="43.73589" lon="7.05309">
        <ele>841.2907715</ele>
        <time>2011-02-05T11:12:36Z</time>
      </trkpt>
      <trkpt lat="43.73595" lon="7.05296">
        <ele>842.7329102</ele>
        <time>2011-02-05T11:12:43Z</time>
      </trkpt>
      <trkpt lat="43.73601" lon="7.05284">
        <ele>845.6169434</ele>
        <time>2011-02-05T11:12:50Z</time>
      </trkpt>
      <trkpt lat="43.73606" lon="7.05273">
        <ele>848.0202637</ele>
        <time>2011-02-05T11:13:00Z</time>
      </trkpt>
      <trkpt lat="43.73606" lon="7.05273">
        <ele>848.9814453</ele>
        <time>2011-02-05T11:13:11Z</time>
      </trkpt>
      <trkpt lat="43.73606" lon="7.05273">
        <ele>849.4621582</ele>
        <time>2011-02-05T11:13:14Z</time>
      </trkpt>
      <trkpt lat="43.73606" lon="7.05273">
        <ele>850.9040527</ele>
        <time>2011-02-05T11:13:25Z</time>
      </trkpt>
      <trkpt lat="43.73606" lon="7.05273">
        <ele>851.3847656</ele>
        <time>2011-02-05T11:13:41Z</time>
      </trkpt>
      <trkpt lat="43.73606" lon="7.05273">
        <ele>854.7492676</ele>
        <time>2011-02-05T11:14:02Z</time>
      </trkpt>
      <trkpt lat="43.73606" lon="7.05273">
        <ele>857.6333008</ele>
        <time>2011-02-05T11:14:15Z</time>
      </trkpt>
      <trkpt lat="43.73606" lon="7.05273">
        <ele>860.0366211</ele>
        <time>2011-02-05T11:14:30Z</time>
      </trkpt>
      <trkpt lat="43.73606" lon="7.05273">
        <ele>862.4399414</ele>
        <time>2011-02-05T11:14:44Z</time>
      </trkpt>
      <trkpt lat="43.73606" lon="7.05273">
        <ele>864.8432617</ele>
        <time>2011-02-05T11:15:00Z</time>
      </trkpt>
      <trkpt lat="43.73606" lon="7.05273">
        <ele>868.2077637</ele>
        <time>2011-02-05T11:15:12Z</time>
      </trkpt>
      <trkpt lat="43.73606" lon="7.05273">
        <ele>871.5722656</ele>
        <time>2011-02-05T11:15:29Z</time>
      </trkpt>
      <trkpt lat="43.73606" lon="7.05273">
        <ele>873.9755859</ele>
        <time>2011-02-05T11:15:44Z</time>
      </trkpt>
      <trkpt lat="43.73606" lon="7.05273">
        <ele>875.8981934</ele>
        <time>2011-02-05T11:15:58Z</time>
      </trkpt>
      <trkpt lat="43.73606" lon="7.05273">
        <ele>879.2629395</ele>
        <time>2011-02-05T11:16:17Z</time>
      </trkpt>
      <trkpt lat="43.73642" lon="7.05157">
        <ele>882.1469727</ele>
        <time>2011-02-05T11:16:38Z</time>
      </trkpt>
      <trkpt lat="43.73642" lon="7.05157">
        <ele>885.5114746</ele>
        <time>2011-02-05T11:16:53Z</time>
      </trkpt>
      <trkpt lat="43.73642" lon="7.05157">
        <ele>886.9533691</ele>
        <time>2011-02-05T11:16:59Z</time>
      </trkpt>
      <trkpt lat="43.73642" lon="7.05157">
        <ele>888.3955078</ele>
        <time>2011-02-05T11:17:14Z</time>
      </trkpt>
      <trkpt lat="43.73642" lon="7.05157">
        <ele>891.7600098</ele>
        <time>2011-02-05T11:17:31Z</time>
      </trkpt>
      <trkpt lat="43.73642" lon="7.05157">
        <ele>894.644043</ele>
        <time>2011-02-05T11:17:48Z</time>
      </trkpt>
      <trkpt lat="43.73642" lon="7.05062">
        <ele>897.5280762</ele>
        <time>2011-02-05T11:18:02Z</time>
      </trkpt>
      <trkpt lat="43.73642" lon="7.05062">
        <ele>898.9699707</ele>
        <time>2011-02-05T11:18:07Z</time>
      </trkpt>
      <trkpt lat="43.7364" lon="7.05051">
        <ele>900.8925781</ele>
        <time>2011-02-05T11:18:19Z</time>
      </trkpt>
      <trkpt lat="43.7364" lon="7.05051">
        <ele>903.7766113</ele>
        <time>2011-02-05T11:18:32Z</time>
      </trkpt>
      <trkpt lat="43.7364" lon="7.05051">
        <ele>906.6604004</ele>
        <time>2011-02-05T11:18:47Z</time>
      </trkpt>
      <trkpt lat="43.7364" lon="7.05051">
        <ele>909.5446777</ele>
        <time>2011-02-05T11:19:02Z</time>
      </trkpt>
      <trkpt lat="43.7364" lon="7.05051">
        <ele>911.947998</ele>
        <time>2011-02-05T11:19:19Z</time>
      </trkpt>
      <trkpt lat="43.7364" lon="7.05051">
        <ele>915.7932129</ele>
        <time>2011-02-05T11:19:36Z</time>
      </trkpt>
      <trkpt lat="43.7364" lon="7.05051">
        <ele>918.1962891</ele>
        <time>2011-02-05T11:19:53Z</time>
      </trkpt>
      <trkpt lat="43.7364" lon="7.05051">
        <ele>920.1188965</ele>
        <time>2011-02-05T11:20:11Z</time>
      </trkpt>
      <trkpt lat="43.7364" lon="7.05051">
        <ele>922.5222168</ele>
        <time>2011-02-05T11:20:25Z</time>
      </trkpt>
      <trkpt lat="43.7364" lon="7.05051">
        <ele>923.4836426</ele>
        <time>2011-02-05T11:20:28Z</time>
      </trkpt>
      <trkpt lat="43.73638" lon="7.05011">
        <ele>925.40625</ele>
        <time>2011-02-05T11:20:40Z</time>
      </trkpt>
      <trkpt lat="43.73638" lon="7.05011">
        <ele>926.3676758</ele>
        <time>2011-02-05T11:20:47Z</time>
      </trkpt>
      <trkpt lat="43.73638" lon="7.05011">
        <ele>928.7709961</ele>
        <time>2011-02-05T11:21:01Z</time>
      </trkpt>
      <trkpt lat="43.73638" lon="7.05011">
        <ele>931.6547852</ele>
        <time>2011-02-05T11:21:15Z</time>
      </trkpt>
      <trkpt lat="43.73638" lon="7.05011">
        <ele>932.6162109</ele>
        <time>2011-02-05T11:21:23Z</time>
      </trkpt>
      <trkpt lat="43.73638" lon="7.05011">
        <ele>933.5773926</ele>
        <time>2011-02-05T11:21:27Z</time>
      </trkpt>
      <trkpt lat="43.73638" lon="7.05011">
        <ele>935.0195313</ele>
        <time>2011-02-05T11:21:32Z</time>
      </trkpt>
      <trkpt lat="43.73638" lon="7.05011">
        <ele>935.9807129</ele>
        <time>2011-02-05T11:21:37Z</time>
      </trkpt>
      <trkpt lat="43.73638" lon="7.05011">
        <ele>937.4226074</ele>
        <time>2011-02-05T11:21:51Z</time>
      </trkpt>
      <trkpt lat="43.73638" lon="7.05011">
        <ele>940.3068848</ele>
        <time>2011-02-05T11:22:04Z</time>
      </trkpt>
      <trkpt lat="43.73638" lon="7.05011">
        <ele>942.7102051</ele>
        <time>2011-02-05T11:22:19Z</time>
      </trkpt>
      <trkpt lat="43.73638" lon="7.05011">
        <ele>945.1132813</ele>
        <time>2011-02-05T11:22:31Z</time>
      </trkpt>
      <trkpt lat="43.73638" lon="7.05011">
        <ele>947.5166016</ele>
        <time>2011-02-05T11:22:44Z</time>
      </trkpt>
      <trkpt lat="43.73638" lon="7.05011">
        <ele>948.9584961</ele>
        <time>2011-02-05T11:22:57Z</time>
      </trkpt>
      <trkpt lat="43.73736" lon="7.0497">
        <ele>951.8425293</ele>
        <time>2011-02-05T11:23:11Z</time>
      </trkpt>
      <trkpt lat="43.73736" lon="7.0497">
        <ele>953.2844238</ele>
        <time>2011-02-05T11:23:23Z</time>
      </trkpt>
      <trkpt lat="43.73736" lon="7.0497">
        <ele>956.168457</ele>
        <time>2011-02-05T11:23:38Z</time>
      </trkpt>
      <trkpt lat="43.73736" lon="7.0497">
        <ele>959.0524902</ele>
        <time>2011-02-05T11:23:55Z</time>
      </trkpt>
      <trkpt lat="43.73736" lon="7.0497">
        <ele>962.8977051</ele>
        <time>2011-02-05T11:24:10Z</time>
      </trkpt>
      <trkpt lat="43.73736" lon="7.0497">
        <ele>964.3395996</ele>
        <time>2011-02-05T11:24:25Z</time>
      </trkpt>
      <trkpt lat="43.73736" lon="7.0497">
        <ele>963.8588867</ele>
        <time>2011-02-05T11:24:44Z</time>
      </trkpt>
      <trkpt lat="43.73736" lon="7.0497">
        <ele>964.3395996</ele>
        <time>2011-02-05T11:26:33Z</time>
      </trkpt>
      <trkpt lat="43.73736" lon="7.0497">
        <ele>965.7817383</ele>
        <time>2011-02-05T11:26:48Z</time>
      </trkpt>
      <trkpt lat="43.73797" lon="7.04966">
        <ele>968.1848145</ele>
        <time>2011-02-05T11:27:01Z</time>
      </trkpt>
      <trkpt lat="43.73797" lon="7.04966">
        <ele>970.5881348</ele>
        <time>2011-02-05T11:27:14Z</time>
      </trkpt>
      <trkpt lat="43.73797" lon="7.04966">
        <ele>973.9528809</ele>
        <time>2011-02-05T11:27:27Z</time>
      </trkpt>
      <trkpt lat="43.73816" lon="7.04978">
        <ele>975.8754883</ele>
        <time>2011-02-05T11:27:39Z</time>
      </trkpt>
      <trkpt lat="43.73816" lon="7.04978">
        <ele>976.3562012</ele>
        <time>2011-02-05T11:27:43Z</time>
      </trkpt>
      <trkpt lat="43.73816" lon="7.04978">
        <ele>978.7595215</ele>
        <time>2011-02-05T11:27:59Z</time>
      </trkpt>
      <trkpt lat="43.73816" lon="7.04978">
        <ele>981.6433105</ele>
        <time>2011-02-05T11:28:15Z</time>
      </trkpt>
      <trkpt lat="43.73816" lon="7.04978">
        <ele>982.1240234</ele>
        <time>2011-02-05T11:28:22Z</time>
      </trkpt>
      <trkpt lat="43.73816" lon="7.04978">
        <ele>985.0080566</ele>
        <time>2011-02-05T11:28:40Z</time>
      </trkpt>
      <trkpt lat="43.73816" lon="7.04978">
        <ele>987.4111328</ele>
        <time>2011-02-05T11:28:54Z</time>
      </trkpt>
      <trkpt lat="43.73816" lon="7.04978">
        <ele>988.8535156</ele>
        <time>2011-02-05T11:29:13Z</time>
      </trkpt>
      <trkpt lat="43.73816" lon="7.04978">
        <ele>992.2180176</ele>
        <time>2011-02-05T11:29:25Z</time>
      </trkpt>
      <trkpt lat="43.73816" lon="7.04978">
        <ele>993.1791992</ele>
        <time>2011-02-05T11:29:41Z</time>
      </trkpt>
      <trkpt lat="43.73887" lon="7.0506">
        <ele>996.0632324</ele>
        <time>2011-02-05T11:29:54Z</time>
      </trkpt>
      <trkpt lat="43.73887" lon="7.0506">
        <ele>997.9858398</ele>
        <time>2011-02-05T11:30:11Z</time>
      </trkpt>
      <trkpt lat="43.73887" lon="7.0506">
        <ele>1001.3503418</ele>
        <time>2011-02-05T11:30:30Z</time>
      </trkpt>
      <trkpt lat="43.73887" lon="7.0506">
        <ele>1003.7536621</ele>
        <time>2011-02-05T11:30:45Z</time>
      </trkpt>
      <trkpt lat="43.73887" lon="7.0506">
        <ele>1005.6765137</ele>
        <time>2011-02-05T11:30:57Z</time>
      </trkpt>
      <trkpt lat="43.73887" lon="7.0506">
        <ele>1008.5603027</ele>
        <time>2011-02-05T11:31:14Z</time>
      </trkpt>
      <trkpt lat="43.73887" lon="7.0506">
        <ele>1011.4443359</ele>
        <time>2011-02-05T11:31:35Z</time>
      </trkpt>
      <trkpt lat="43.73887" lon="7.0506">
        <ele>1014.328125</ele>
        <time>2011-02-05T11:31:49Z</time>
      </trkpt>
      <trkpt lat="43.73973" lon="7.05089">
        <ele>1015.7702637</ele>
        <time>2011-02-05T11:32:04Z</time>
      </trkpt>
      <trkpt lat="43.73973" lon="7.05089">
        <ele>1018.6540527</ele>
        <time>2011-02-05T11:32:15Z</time>
      </trkpt>
      <trkpt lat="43.73973" lon="7.05089">
        <ele>1020.5769043</ele>
        <time>2011-02-05T11:32:31Z</time>
      </trkpt>
      <trkpt lat="43.73973" lon="7.05089">
        <ele>1023.4609375</ele>
        <time>2011-02-05T11:32:46Z</time>
      </trkpt>
      <trkpt lat="43.73973" lon="7.05089">
        <ele>1024.4221191</ele>
        <time>2011-02-05T11:32:57Z</time>
      </trkpt>
      <trkpt lat="43.73973" lon="7.05089">
        <ele>1024.4221191</ele>
        <time>2011-02-05T11:33:09Z</time>
      </trkpt>
      <trkpt lat="43.73973" lon="7.05089">
        <ele>1024.902832</ele>
        <time>2011-02-05T11:33:22Z</time>
      </trkpt>
      <trkpt lat="43.73973" lon="7.05089">
        <ele>1024.902832</ele>
        <time>2011-02-05T11:33:36Z</time>
      </trkpt>
      <trkpt lat="43.73973" lon="7.05089">
        <ele>1024.4221191</ele>
        <time>2011-02-05T11:34:12Z</time>
      </trkpt>
      <trkpt lat="43.73973" lon="7.05089">
        <ele>1023.4609375</ele>
        <time>2011-02-05T11:34:29Z</time>
      </trkpt>
      <trkpt lat="43.73973" lon="7.05089">
        <ele>1023.4609375</ele>
        <time>2011-02-05T11:36:21Z</time>
      </trkpt>
      <trkpt lat="43.73973" lon="7.05089">
        <ele>1023.9414063</ele>
        <time>2011-02-05T11:36:55Z</time>
      </trkpt>
      <trkpt lat="43.73973" lon="7.05089">
        <ele>1022.0187988</ele>
        <time>2011-02-05T11:37:01Z</time>
      </trkpt>
      <trkpt lat="43.73973" lon="7.05089">
        <ele>1023.9414063</ele>
        <time>2011-02-05T11:37:06Z</time>
      </trkpt>
      <trkpt lat="43.73973" lon="7.05089">
        <ele>1022.0187988</ele>
        <time>2011-02-05T11:37:14Z</time>
      </trkpt>
      <trkpt lat="43.73973" lon="7.05089">
        <ele>1022.4995117</ele>
        <time>2011-02-05T11:37:33Z</time>
      </trkpt>
      <trkpt lat="43.73973" lon="7.05089">
        <ele>1023.9414063</ele>
        <time>2011-02-05T11:37:35Z</time>
      </trkpt>
      <trkpt lat="43.73973" lon="7.05089">
        <ele>1024.4221191</ele>
        <time>2011-02-05T11:37:44Z</time>
      </trkpt>
      <trkpt lat="43.73973" lon="7.05089">
        <ele>1022.9802246</ele>
        <time>2011-02-05T11:37:46Z</time>
      </trkpt>
      <trkpt lat="43.73973" lon="7.05089">
        <ele>1021.5380859</ele>
        <time>2011-02-05T11:38:13Z</time>
      </trkpt>
      <trkpt lat="43.73973" lon="7.05089">
        <ele>1022.9802246</ele>
        <time>2011-02-05T11:38:15Z</time>
      </trkpt>
      <trkpt lat="43.73973" lon="7.05089">
        <ele>1022.0187988</ele>
        <time>2011-02-05T11:38:20Z</time>
      </trkpt>
      <trkpt lat="43.73973" lon="7.05089">
        <ele>1023.9414063</ele>
        <time>2011-02-05T11:38:22Z</time>
      </trkpt>
      <trkpt lat="43.73973" lon="7.05089">
        <ele>1021.5380859</ele>
        <time>2011-02-05T11:38:45Z</time>
      </trkpt>
      <trkpt lat="43.73973" lon="7.05089">
        <ele>1023.9414063</ele>
        <time>2011-02-05T11:38:49Z</time>
      </trkpt>
      <trkpt lat="43.73973" lon="7.05089">
        <ele>1022.4995117</ele>
        <time>2011-02-05T11:38:53Z</time>
      </trkpt>
      <trkpt lat="43.73973" lon="7.05089">
        <ele>1024.4221191</ele>
        <time>2011-02-05T11:43:02Z</time>
      </trkpt>
      <trkpt lat="43.73973" lon="7.05089">
        <ele>1024.4221191</ele>
        <time>2011-02-05T11:43:17Z</time>
      </trkpt>
      <trkpt lat="43.73973" lon="7.05089">
        <ele>1023.4609375</ele>
        <time>2011-02-05T12:07:53Z</time>
      </trkpt>
      <trkpt lat="43.73973" lon="7.05089">
        <ele>1023.9414063</ele>
        <time>2011-02-05T12:08:45Z</time>
      </trkpt>
      <trkpt lat="43.73973" lon="7.05089">
        <ele>1024.4221191</ele>
        <time>2011-02-05T12:09:01Z</time>
      </trkpt>
      <trkpt lat="43.73973" lon="7.05089">
        <ele>1024.4221191</ele>
        <time>2011-02-05T12:09:02Z</time>
      </trkpt>
      <trkpt lat="43.74007" lon="7.05105">
        <ele>1026.3447266</ele>
        <time>2011-02-05T12:09:08Z</time>
      </trkpt>
      <trkpt lat="43.74016" lon="7.05114">
        <ele>1027.7866211</ele>
        <time>2011-02-05T12:09:15Z</time>
      </trkpt>
      <trkpt lat="43.74027" lon="7.05112">
        <ele>1029.7092285</ele>
        <time>2011-02-05T12:09:26Z</time>
      </trkpt>
      <trkpt lat="43.74034" lon="7.05112">
        <ele>1030.1899414</ele>
        <time>2011-02-05T12:09:39Z</time>
      </trkpt>
      <trkpt lat="43.7406" lon="7.05122">
        <ele>1031.1513672</ele>
        <time>2011-02-05T12:09:50Z</time>
      </trkpt>
      <trkpt lat="43.74064" lon="7.05124">
        <ele>1031.1513672</ele>
        <time>2011-02-05T12:09:52Z</time>
      </trkpt>
      <trkpt lat="43.74083" lon="7.05124">
        <ele>1030.1899414</ele>
        <time>2011-02-05T12:10:03Z</time>
      </trkpt>
      <trkpt lat="43.74085" lon="7.05123">
        <ele>1031.1513672</ele>
        <time>2011-02-05T12:10:12Z</time>
      </trkpt>
      <trkpt lat="43.74085" lon="7.05123">
        <ele>1031.1513672</ele>
        <time>2011-02-05T12:10:25Z</time>
      </trkpt>
      <trkpt lat="43.741" lon="7.05127">
        <ele>1031.1513672</ele>
        <time>2011-02-05T12:10:41Z</time>
      </trkpt>
      <trkpt lat="43.74103" lon="7.05127">
        <ele>1030.1899414</ele>
        <time>2011-02-05T12:10:45Z</time>
      </trkpt>
      <trkpt lat="43.74107" lon="7.05124">
        <ele>1030.6706543</ele>
        <time>2011-02-05T12:10:49Z</time>
      </trkpt>
      <trkpt lat="43.74108" lon="7.05121">
        <ele>1030.1899414</ele>
        <time>2011-02-05T12:11:03Z</time>
      </trkpt>
      <trkpt lat="43.74108" lon="7.05121">
        <ele>1029.7092285</ele>
        <time>2011-02-05T12:11:16Z</time>
      </trkpt>
      <trkpt lat="43.74108" lon="7.05121">
        <ele>1029.7092285</ele>
        <time>2011-02-05T12:11:38Z</time>
      </trkpt>
      <trkpt lat="43.74108" lon="7.05121">
        <ele>1029.7092285</ele>
        <time>2011-02-05T12:12:05Z</time>
      </trkpt>
      <trkpt lat="43.74108" lon="7.05121">
        <ele>1029.2285156</ele>
        <time>2011-02-05T12:13:38Z</time>
      </trkpt>
      <trkpt lat="43.74108" lon="7.05121">
        <ele>1029.7092285</ele>
        <time>2011-02-05T12:13:59Z</time>
      </trkpt>
      <trkpt lat="43.74108" lon="7.05121">
        <ele>1029.7092285</ele>
        <time>2011-02-05T12:14:16Z</time>
      </trkpt>
      <trkpt lat="43.74108" lon="7.05121">
        <ele>1029.2285156</ele>
        <time>2011-02-05T12:14:57Z</time>
      </trkpt>
      <trkpt lat="43.74108" lon="7.05121">
        <ele>1028.7480469</ele>
        <time>2011-02-05T12:15:16Z</time>
      </trkpt>
      <trkpt lat="43.74108" lon="7.05121">
        <ele>1029.7092285</ele>
        <time>2011-02-05T12:15:54Z</time>
      </trkpt>
      <trkpt lat="43.74108" lon="7.05121">
        <ele>1029.2285156</ele>
        <time>2011-02-05T12:16:07Z</time>
      </trkpt>
      <trkpt lat="43.74108" lon="7.05121">
        <ele>1029.2285156</ele>
        <time>2011-02-05T12:16:19Z</time>
      </trkpt>
      <trkpt lat="43.74108" lon="7.05121">
        <ele>1029.2285156</ele>
        <time>2011-02-05T12:16:33Z</time>
      </trkpt>
      <trkpt lat="43.74108" lon="7.05121">
        <ele>1029.2285156</ele>
        <time>2011-02-05T12:16:51Z</time>
      </trkpt>
      <trkpt lat="43.74108" lon="7.05121">
        <ele>1029.2285156</ele>
        <time>2011-02-05T12:17:11Z</time>
      </trkpt>
      <trkpt lat="43.74108" lon="7.05121">
        <ele>1029.2285156</ele>
        <time>2011-02-05T12:17:23Z</time>
      </trkpt>
      <trkpt lat="43.74108" lon="7.05121">
        <ele>1029.7092285</ele>
        <time>2011-02-05T12:17:43Z</time>
      </trkpt>
      <trkpt lat="43.74108" lon="7.05121">
        <ele>1029.2285156</ele>
        <time>2011-02-05T12:17:56Z</time>
      </trkpt>
      <trkpt lat="43.74108" lon="7.05121">
        <ele>1028.7480469</ele>
        <time>2011-02-05T12:18:07Z</time>
      </trkpt>
      <trkpt lat="43.74108" lon="7.05121">
        <ele>1030.1899414</ele>
        <time>2011-02-05T12:18:12Z</time>
      </trkpt>
      <trkpt lat="43.74111" lon="7.05115">
        <ele>1029.2285156</ele>
        <time>2011-02-05T12:18:14Z</time>
      </trkpt>
      <trkpt lat="43.74112" lon="7.05115">
        <ele>1028.7480469</ele>
        <time>2011-02-05T12:18:18Z</time>
      </trkpt>
      <trkpt lat="43.74126" lon="7.05109">
        <ele>1030.1899414</ele>
        <time>2011-02-05T12:18:31Z</time>
      </trkpt>
      <trkpt lat="43.7413" lon="7.05104">
        <ele>1030.1899414</ele>
        <time>2011-02-05T12:18:34Z</time>
      </trkpt>
      <trkpt lat="43.74131" lon="7.05099">
        <ele>1030.1899414</ele>
        <time>2011-02-05T12:18:46Z</time>
      </trkpt>
      <trkpt lat="43.74131" lon="7.05099">
        <ele>1029.7092285</ele>
        <time>2011-02-05T12:18:52Z</time>
      </trkpt>
      <trkpt lat="43.74146" lon="7.05101">
        <ele>1029.2285156</ele>
        <time>2011-02-05T12:18:57Z</time>
      </trkpt>
      <trkpt lat="43.74164" lon="7.05105">
        <ele>1028.7480469</ele>
        <time>2011-02-05T12:19:10Z</time>
      </trkpt>
      <trkpt lat="43.74168" lon="7.05108">
        <ele>1028.267334</ele>
        <time>2011-02-05T12:19:16Z</time>
      </trkpt>
      <trkpt lat="43.74175" lon="7.051">
        <ele>1028.267334</ele>
        <time>2011-02-05T12:19:26Z</time>
      </trkpt>
      <trkpt lat="43.74176" lon="7.05097">
        <ele>1028.267334</ele>
        <time>2011-02-05T12:19:34Z</time>
      </trkpt>
      <trkpt lat="43.74184" lon="7.05092">
        <ele>1028.267334</ele>
        <time>2011-02-05T12:19:44Z</time>
      </trkpt>
      <trkpt lat="43.74187" lon="7.05092">
        <ele>1028.267334</ele>
        <time>2011-02-05T12:19:51Z</time>
      </trkpt>
      <trkpt lat="43.74191" lon="7.0509">
        <ele>1027.7866211</ele>
        <time>2011-02-05T12:19:54Z</time>
      </trkpt>
      <trkpt lat="43.74217" lon="7.05081">
        <ele>1025.8640137</ele>
        <time>2011-02-05T12:20:07Z</time>
      </trkpt>
      <trkpt lat="43.74238" lon="7.0507">
        <ele>1022.9802246</ele>
        <time>2011-02-05T12:20:15Z</time>
      </trkpt>
      <trkpt lat="43.74257" lon="7.05053">
        <ele>1022.0187988</ele>
        <time>2011-02-05T12:20:25Z</time>
      </trkpt>
      <trkpt lat="43.74277" lon="7.05035">
        <ele>1018.6540527</ele>
        <time>2011-02-05T12:20:37Z</time>
      </trkpt>
      <trkpt lat="43.74282" lon="7.05023">
        <ele>1017.692627</ele>
        <time>2011-02-05T12:20:49Z</time>
      </trkpt>
      <trkpt lat="43.74284" lon="7.05011">
        <ele>1017.2121582</ele>
        <time>2011-02-05T12:21:01Z</time>
      </trkpt>
      <trkpt lat="43.74286" lon="7.05009">
        <ele>1017.2121582</ele>
        <time>2011-02-05T12:21:04Z</time>
      </trkpt>
      <trkpt lat="43.7429" lon="7.05003">
        <ele>1016.2507324</ele>
        <time>2011-02-05T12:21:10Z</time>
      </trkpt>
      <trkpt lat="43.74292" lon="7.04999">
        <ele>1016.2507324</ele>
        <time>2011-02-05T12:21:16Z</time>
      </trkpt>
      <trkpt lat="43.74298" lon="7.05">
        <ele>1015.7702637</ele>
        <time>2011-02-05T12:21:21Z</time>
      </trkpt>
      <trkpt lat="43.74326" lon="7.05007">
        <ele>1016.7314453</ele>
        <time>2011-02-05T12:21:34Z</time>
      </trkpt>
      <trkpt lat="43.74355" lon="7.04999">
        <ele>1015.7702637</ele>
        <time>2011-02-05T12:21:48Z</time>
      </trkpt>
      <trkpt lat="43.74375" lon="7.04987">
        <ele>1016.2507324</ele>
        <time>2011-02-05T12:22:01Z</time>
      </trkpt>
      <trkpt lat="43.74378" lon="7.04986">
        <ele>1015.7702637</ele>
        <time>2011-02-05T12:22:04Z</time>
      </trkpt>
      <trkpt lat="43.7438" lon="7.04983">
        <ele>1016.2507324</ele>
        <time>2011-02-05T12:22:07Z</time>
      </trkpt>
      <trkpt lat="43.74386" lon="7.04982">
        <ele>1016.7314453</ele>
        <time>2011-02-05T12:22:11Z</time>
      </trkpt>
      <trkpt lat="43.74406" lon="7.04976">
        <ele>1019.1347656</ele>
        <time>2011-02-05T12:22:26Z</time>
      </trkpt>
      <trkpt lat="43.74411" lon="7.04969">
        <ele>1020.5769043</ele>
        <time>2011-02-05T12:22:37Z</time>
      </trkpt>
      <trkpt lat="43.74413" lon="7.04969">
        <ele>1020.5769043</ele>
        <time>2011-02-05T12:22:40Z</time>
      </trkpt>
      <trkpt lat="43.74416" lon="7.04968">
        <ele>1021.0576172</ele>
        <time>2011-02-05T12:22:43Z</time>
      </trkpt>
      <trkpt lat="43.74418" lon="7.04976">
        <ele>1022.0187988</ele>
        <time>2011-02-05T12:22:55Z</time>
      </trkpt>
      <trkpt lat="43.74418" lon="7.04974">
        <ele>1022.0187988</ele>
        <time>2011-02-05T12:23:20Z</time>
      </trkpt>
      <trkpt lat="43.74427" lon="7.04969">
        <ele>1024.4221191</ele>
        <time>2011-02-05T12:23:29Z</time>
      </trkpt>
      <trkpt lat="43.74429" lon="7.04968">
        <ele>1024.4221191</ele>
        <time>2011-02-05T12:23:31Z</time>
      </trkpt>
      <trkpt lat="43.74436" lon="7.04967">
        <ele>1025.8640137</ele>
        <time>2011-02-05T12:23:38Z</time>
      </trkpt>
      <trkpt lat="43.74445" lon="7.0496">
        <ele>1026.3447266</ele>
        <time>2011-02-05T12:23:48Z</time>
      </trkpt>
      <trkpt lat="43.74447" lon="7.04962">
        <ele>1026.8254395</ele>
        <time>2011-02-05T12:23:51Z</time>
      </trkpt>
      <trkpt lat="43.7445" lon="7.04979">
        <ele>1026.8254395</ele>
        <time>2011-02-05T12:24:02Z</time>
      </trkpt>
      <trkpt lat="43.74451" lon="7.04982">
        <ele>1026.3447266</ele>
        <time>2011-02-05T12:24:04Z</time>
      </trkpt>
      <trkpt lat="43.74473" lon="7.05005">
        <ele>1025.8640137</ele>
        <time>2011-02-05T12:24:19Z</time>
      </trkpt>
      <trkpt lat="43.74504" lon="7.04998">
        <ele>1025.8640137</ele>
        <time>2011-02-05T12:24:34Z</time>
      </trkpt>
      <trkpt lat="43.74543" lon="7.04999">
        <ele>1027.3061523</ele>
        <time>2011-02-05T12:24:50Z</time>
      </trkpt>
      <trkpt lat="43.74572" lon="7.05">
        <ele>1026.3447266</ele>
        <time>2011-02-05T12:25:04Z</time>
      </trkpt>
      <trkpt lat="43.74599" lon="7.04999">
        <ele>1025.3833008</ele>
        <time>2011-02-05T12:25:19Z</time>
      </trkpt>
      <trkpt lat="43.74606" lon="7.05">
        <ele>1024.902832</ele>
        <time>2011-02-05T12:25:30Z</time>
      </trkpt>
      <trkpt lat="43.74611" lon="7.05003">
        <ele>1023.9414063</ele>
        <time>2011-02-05T12:25:56Z</time>
      </trkpt>
      <trkpt lat="43.74613" lon="7.05004">
        <ele>1023.9414063</ele>
        <time>2011-02-05T12:25:58Z</time>
      </trkpt>
      <trkpt lat="43.74632" lon="7.05012">
        <ele>1021.0576172</ele>
        <time>2011-02-05T12:26:09Z</time>
      </trkpt>
      <trkpt lat="43.74653" lon="7.05033">
        <ele>1018.1733398</ele>
        <time>2011-02-05T12:26:21Z</time>
      </trkpt>
      <trkpt lat="43.74669" lon="7.05051">
        <ele>1015.7702637</ele>
        <time>2011-02-05T12:26:33Z</time>
      </trkpt>
      <trkpt lat="43.74669" lon="7.05051">
        <ele>1015.7702637</ele>
        <time>2011-02-05T12:26:34Z</time>
      </trkpt>
      <trkpt lat="43.74674" lon="7.05061">
        <ele>1015.7702637</ele>
        <time>2011-02-05T12:26:39Z</time>
      </trkpt>
      <trkpt lat="43.74697" lon="7.05095">
        <ele>1013.3669434</ele>
        <time>2011-02-05T12:26:55Z</time>
      </trkpt>
      <trkpt lat="43.74713" lon="7.05127">
        <ele>1011.9250488</ele>
        <time>2011-02-05T12:27:09Z</time>
      </trkpt>
      <trkpt lat="43.74726" lon="7.05148">
        <ele>1008.5603027</ele>
        <time>2011-02-05T12:27:22Z</time>
      </trkpt>
      <trkpt lat="43.74734" lon="7.0515">
        <ele>1006.6376953</ele>
        <time>2011-02-05T12:27:26Z</time>
      </trkpt>
      <trkpt lat="43.74742" lon="7.05155">
        <ele>1004.7150879</ele>
        <time>2011-02-05T12:27:32Z</time>
      </trkpt>
      <trkpt lat="43.7475" lon="7.05183">
        <ele>1000.8696289</ele>
        <time>2011-02-05T12:27:43Z</time>
      </trkpt>
      <trkpt lat="43.74751" lon="7.05187">
        <ele>999.9084473</ele>
        <time>2011-02-05T12:27:45Z</time>
      </trkpt>
      <trkpt lat="43.74753" lon="7.0522">
        <ele>998.4663086</ele>
        <time>2011-02-05T12:27:57Z</time>
      </trkpt>
      <trkpt lat="43.74757" lon="7.05227">
        <ele>997.0244141</ele>
        <time>2011-02-05T12:28:01Z</time>
      </trkpt>
      <trkpt lat="43.74759" lon="7.0523">
        <ele>996.0632324</ele>
        <time>2011-02-05T12:28:14Z</time>
      </trkpt>
      <trkpt lat="43.74759" lon="7.05231">
        <ele>996.0632324</ele>
        <time>2011-02-05T12:29:03Z</time>
      </trkpt>
      <trkpt lat="43.74765" lon="7.05248">
        <ele>995.1018066</ele>
        <time>2011-02-05T12:29:11Z</time>
      </trkpt>
      <trkpt lat="43.74768" lon="7.05255">
        <ele>994.6210938</ele>
        <time>2011-02-05T12:29:14Z</time>
      </trkpt>
      <trkpt lat="43.74778" lon="7.05262">
        <ele>993.1791992</ele>
        <time>2011-02-05T12:29:20Z</time>
      </trkpt>
      <trkpt lat="43.74796" lon="7.05291">
        <ele>990.7758789</ele>
        <time>2011-02-05T12:29:33Z</time>
      </trkpt>
      <trkpt lat="43.7482" lon="7.05312">
        <ele>989.3339844</ele>
        <time>2011-02-05T12:29:47Z</time>
      </trkpt>
      <trkpt lat="43.74828" lon="7.05312">
        <ele>987.8918457</ele>
        <time>2011-02-05T12:29:51Z</time>
      </trkpt>
      <trkpt lat="43.7483" lon="7.05311">
        <ele>987.4111328</ele>
        <time>2011-02-05T12:30:05Z</time>
      </trkpt>
      <trkpt lat="43.74845" lon="7.05311">
        <ele>984.5273438</ele>
        <time>2011-02-05T12:30:13Z</time>
      </trkpt>
      <trkpt lat="43.74847" lon="7.05312">
        <ele>984.5273438</ele>
        <time>2011-02-05T12:30:14Z</time>
      </trkpt>
      <trkpt lat="43.74855" lon="7.05313">
        <ele>982.6047363</ele>
        <time>2011-02-05T12:30:19Z</time>
      </trkpt>
      <trkpt lat="43.74863" lon="7.05313">
        <ele>980.201416</ele>
        <time>2011-02-05T12:30:23Z</time>
      </trkpt>
      <trkpt lat="43.74876" lon="7.05317">
        <ele>977.317627</ele>
        <time>2011-02-05T12:30:29Z</time>
      </trkpt>
      <trkpt lat="43.74878" lon="7.05317">
        <ele>975.8754883</ele>
        <time>2011-02-05T12:30:42Z</time>
      </trkpt>
      <trkpt lat="43.74878" lon="7.05318">
        <ele>976.3562012</ele>
        <time>2011-02-05T12:30:53Z</time>
      </trkpt>
      <trkpt lat="43.74873" lon="7.0536">
        <ele>975.8754883</ele>
        <time>2011-02-05T12:31:08Z</time>
      </trkpt>
      <trkpt lat="43.74874" lon="7.05388">
        <ele>974.4335938</ele>
        <time>2011-02-05T12:31:19Z</time>
      </trkpt>
      <trkpt lat="43.74875" lon="7.05401">
        <ele>974.4335938</ele>
        <time>2011-02-05T12:31:50Z</time>
      </trkpt>
      <trkpt lat="43.74896" lon="7.0544">
        <ele>973.9528809</ele>
        <time>2011-02-05T12:32:06Z</time>
      </trkpt>
      <trkpt lat="43.74911" lon="7.05466">
        <ele>972.0302734</ele>
        <time>2011-02-05T12:32:20Z</time>
      </trkpt>
      <trkpt lat="43.74913" lon="7.05469">
        <ele>972.5109863</ele>
        <time>2011-02-05T12:32:32Z</time>
      </trkpt>
      <trkpt lat="43.74942" lon="7.05488">
        <ele>971.5493164</ele>
        <time>2011-02-05T12:32:49Z</time>
      </trkpt>
      <trkpt lat="43.74956" lon="7.05495">
        <ele>970.5881348</ele>
        <time>2011-02-05T12:32:59Z</time>
      </trkpt>
      <trkpt lat="43.74958" lon="7.05501">
        <ele>970.5881348</ele>
        <time>2011-02-05T12:33:02Z</time>
      </trkpt>
      <trkpt lat="43.74975" lon="7.05504">
        <ele>969.1462402</ele>
        <time>2011-02-05T12:33:10Z</time>
      </trkpt>
      <trkpt lat="43.75002" lon="7.05526">
        <ele>968.6655273</ele>
        <time>2011-02-05T12:33:21Z</time>
      </trkpt>
      <trkpt lat="43.75044" lon="7.05548">
        <ele>969.1462402</ele>
        <time>2011-02-05T12:33:37Z</time>
      </trkpt>
      <trkpt lat="43.75072" lon="7.05547">
        <ele>967.7041016</ele>
        <time>2011-02-05T12:33:48Z</time>
      </trkpt>
      <trkpt lat="43.75091" lon="7.05558">
        <ele>966.7429199</ele>
        <time>2011-02-05T12:33:59Z</time>
      </trkpt>
      <trkpt lat="43.75099" lon="7.05568">
        <ele>966.7429199</ele>
        <time>2011-02-05T12:34:05Z</time>
      </trkpt>
      <trkpt lat="43.75114" lon="7.0556">
        <ele>965.3010254</ele>
        <time>2011-02-05T12:34:15Z</time>
      </trkpt>
      <trkpt lat="43.75116" lon="7.05559">
        <ele>964.8203125</ele>
        <time>2011-02-05T12:34:28Z</time>
      </trkpt>
      <trkpt lat="43.75116" lon="7.05558">
        <ele>964.8203125</ele>
        <time>2011-02-05T12:34:59Z</time>
      </trkpt>
      <trkpt lat="43.75142" lon="7.05542">
        <ele>964.3395996</ele>
        <time>2011-02-05T12:35:11Z</time>
      </trkpt>
      <trkpt lat="43.75175" lon="7.05495">
        <ele>961.4558105</ele>
        <time>2011-02-05T12:35:27Z</time>
      </trkpt>
      <trkpt lat="43.75198" lon="7.05474">
        <ele>961.4558105</ele>
        <time>2011-02-05T12:35:38Z</time>
      </trkpt>
      <trkpt lat="43.75231" lon="7.05447">
        <ele>962.4169922</ele>
        <time>2011-02-05T12:35:54Z</time>
      </trkpt>
      <trkpt lat="43.75259" lon="7.05412">
        <ele>964.8203125</ele>
        <time>2011-02-05T12:36:12Z</time>
      </trkpt>
      <trkpt lat="43.7527" lon="7.05372">
        <ele>966.262207</ele>
        <time>2011-02-05T12:36:28Z</time>
      </trkpt>
      <trkpt lat="43.75286" lon="7.05323">
        <ele>967.7041016</ele>
        <time>2011-02-05T12:36:42Z</time>
      </trkpt>
      <trkpt lat="43.75304" lon="7.05284">
        <ele>967.2236328</ele>
        <time>2011-02-05T12:36:54Z</time>
      </trkpt>
      <trkpt lat="43.75332" lon="7.05245">
        <ele>967.7041016</ele>
        <time>2011-02-05T12:37:08Z</time>
      </trkpt>
      <trkpt lat="43.75357" lon="7.05206">
        <ele>969.6269531</ele>
        <time>2011-02-05T12:37:24Z</time>
      </trkpt>
      <trkpt lat="43.75379" lon="7.05166">
        <ele>969.1462402</ele>
        <time>2011-02-05T12:37:39Z</time>
      </trkpt>
      <trkpt lat="43.75393" lon="7.05142">
        <ele>967.7041016</ele>
        <time>2011-02-05T12:37:46Z</time>
      </trkpt>
      <trkpt lat="43.7543" lon="7.05124">
        <ele>969.1462402</ele>
        <time>2011-02-05T12:38:01Z</time>
      </trkpt>
      <trkpt lat="43.75439" lon="7.05105">
        <ele>969.1462402</ele>
        <time>2011-02-05T12:38:08Z</time>
      </trkpt>
      <trkpt lat="43.75448" lon="7.05066">
        <ele>968.6655273</ele>
        <time>2011-02-05T12:38:19Z</time>
      </trkpt>
      <trkpt lat="43.75453" lon="7.05015">
        <ele>968.6655273</ele>
        <time>2011-02-05T12:38:31Z</time>
      </trkpt>
      <trkpt lat="43.75467" lon="7.0498">
        <ele>970.1074219</ele>
        <time>2011-02-05T12:38:39Z</time>
      </trkpt>
      <trkpt lat="43.75496" lon="7.04941">
        <ele>972.0302734</ele>
        <time>2011-02-05T12:38:52Z</time>
      </trkpt>
      <trkpt lat="43.75499" lon="7.04931">
        <ele>971.0688477</ele>
        <time>2011-02-05T12:38:54Z</time>
      </trkpt>
      <trkpt lat="43.75501" lon="7.0492">
        <ele>970.1074219</ele>
        <time>2011-02-05T12:38:56Z</time>
      </trkpt>
      <trkpt lat="43.75502" lon="7.04914">
        <ele>969.1462402</ele>
        <time>2011-02-05T12:38:57Z</time>
      </trkpt>
      <trkpt lat="43.75504" lon="7.04893">
        <ele>967.7041016</ele>
        <time>2011-02-05T12:39:00Z</time>
      </trkpt>
      <trkpt lat="43.75505" lon="7.04886">
        <ele>967.2236328</ele>
        <time>2011-02-05T12:39:01Z</time>
      </trkpt>
      <trkpt lat="43.75509" lon="7.04865">
        <ele>965.7817383</ele>
        <time>2011-02-05T12:39:05Z</time>
      </trkpt>
      <trkpt lat="43.75516" lon="7.04845">
        <ele>964.8203125</ele>
        <time>2011-02-05T12:39:09Z</time>
      </trkpt>
      <trkpt lat="43.75526" lon="7.04816">
        <ele>963.8588867</ele>
        <time>2011-02-05T12:39:15Z</time>
      </trkpt>
      <trkpt lat="43.75533" lon="7.04796">
        <ele>961.9365234</ele>
        <time>2011-02-05T12:39:19Z</time>
      </trkpt>
      <trkpt lat="43.75561" lon="7.04742">
        <ele>961.9365234</ele>
        <time>2011-02-05T12:39:30Z</time>
      </trkpt>
      <trkpt lat="43.75589" lon="7.04706">
        <ele>964.3395996</ele>
        <time>2011-02-05T12:39:40Z</time>
      </trkpt>
      <trkpt lat="43.75601" lon="7.04689">
        <ele>964.3395996</ele>
        <time>2011-02-05T12:39:44Z</time>
      </trkpt>
      <trkpt lat="43.75631" lon="7.04658">
        <ele>965.3010254</ele>
        <time>2011-02-05T12:39:57Z</time>
      </trkpt>
      <trkpt lat="43.75659" lon="7.04629">
        <ele>966.7429199</ele>
        <time>2011-02-05T12:40:11Z</time>
      </trkpt>
      <trkpt lat="43.7567" lon="7.04617">
        <ele>968.1848145</ele>
        <time>2011-02-05T12:40:17Z</time>
      </trkpt>
      <trkpt lat="43.75701" lon="7.04585">
        <ele>968.6655273</ele>
        <time>2011-02-05T12:40:36Z</time>
      </trkpt>
      <trkpt lat="43.75709" lon="7.04577">
        <ele>968.6655273</ele>
        <time>2011-02-05T12:40:45Z</time>
      </trkpt>
      <trkpt lat="43.75713" lon="7.04572">
        <ele>968.1848145</ele>
        <time>2011-02-05T12:40:48Z</time>
      </trkpt>
      <trkpt lat="43.75717" lon="7.04567">
        <ele>968.6655273</ele>
        <time>2011-02-05T12:40:53Z</time>
      </trkpt>
      <trkpt lat="43.75719" lon="7.04565">
        <ele>969.1462402</ele>
        <time>2011-02-05T12:41:07Z</time>
      </trkpt>
      <trkpt lat="43.75719" lon="7.04565">
        <ele>968.6655273</ele>
        <time>2011-02-05T12:41:48Z</time>
      </trkpt>
      <trkpt lat="43.75719" lon="7.04565">
        <ele>969.1462402</ele>
        <time>2011-02-05T12:42:03Z</time>
      </trkpt>
      <trkpt lat="43.75743" lon="7.04537">
        <ele>970.1074219</ele>
        <time>2011-02-05T12:42:17Z</time>
      </trkpt>
      <trkpt lat="43.75743" lon="7.04537">
        <ele>970.1074219</ele>
        <time>2011-02-05T12:42:35Z</time>
      </trkpt>
      <trkpt lat="43.75743" lon="7.04537">
        <ele>970.1074219</ele>
        <time>2011-02-05T12:43:36Z</time>
      </trkpt>
      <trkpt lat="43.75743" lon="7.04537">
        <ele>970.5881348</ele>
        <time>2011-02-05T12:44:30Z</time>
      </trkpt>
      <trkpt lat="43.75743" lon="7.04537">
        <ele>970.5881348</ele>
        <time>2011-02-05T12:44:53Z</time>
      </trkpt>
      <trkpt lat="43.75774" lon="7.04488">
        <ele>970.5881348</ele>
        <time>2011-02-05T12:45:09Z</time>
      </trkpt>
      <trkpt lat="43.7581" lon="7.04437">
        <ele>969.6269531</ele>
        <time>2011-02-05T12:45:26Z</time>
      </trkpt>
      <trkpt lat="43.75831" lon="7.0441">
        <ele>969.1462402</ele>
        <time>2011-02-05T12:45:39Z</time>
      </trkpt>
      <trkpt lat="43.75836" lon="7.04405">
        <ele>969.6269531</ele>
        <time>2011-02-05T12:45:56Z</time>
      </trkpt>
      <trkpt lat="43.75838" lon="7.04404">
        <ele>969.1462402</ele>
        <time>2011-02-05T12:46:07Z</time>
      </trkpt>
      <trkpt lat="43.75838" lon="7.04404">
        <ele>968.6655273</ele>
        <time>2011-02-05T12:46:24Z</time>
      </trkpt>
      <trkpt lat="43.75838" lon="7.04404">
        <ele>969.6269531</ele>
        <time>2011-02-05T12:46:27Z</time>
      </trkpt>
      <trkpt lat="43.75838" lon="7.04404">
        <ele>969.6269531</ele>
        <time>2011-02-05T12:46:29Z</time>
      </trkpt>
      <trkpt lat="43.7586" lon="7.04383">
        <ele>969.6269531</ele>
        <time>2011-02-05T12:46:45Z</time>
      </trkpt>
      <trkpt lat="43.7586" lon="7.04383">
        <ele>969.6269531</ele>
        <time>2011-02-05T12:47:12Z</time>
      </trkpt>
      <trkpt lat="43.7586" lon="7.04383">
        <ele>970.1074219</ele>
        <time>2011-02-05T12:47:27Z</time>
      </trkpt>
      <trkpt lat="43.75846" lon="7.04395">
        <ele>969.1462402</ele>
        <time>2011-02-05T12:47:40Z</time>
      </trkpt>
      <trkpt lat="43.75846" lon="7.04395">
        <ele>969.6269531</ele>
        <time>2011-02-05T12:49:29Z</time>
      </trkpt>
      <trkpt lat="43.75846" lon="7.04395">
        <ele>969.1462402</ele>
        <time>2011-02-05T12:49:34Z</time>
      </trkpt>
      <trkpt lat="43.75857" lon="7.04385">
        <ele>969.1462402</ele>
        <time>2011-02-05T12:49:46Z</time>
      </trkpt>
      <trkpt lat="43.75857" lon="7.04385">
        <ele>969.6269531</ele>
        <time>2011-02-05T12:50:24Z</time>
      </trkpt>
      <trkpt lat="43.75857" lon="7.04385">
        <ele>969.1462402</ele>
        <time>2011-02-05T12:50:57Z</time>
      </trkpt>
      <trkpt lat="43.75862" lon="7.04382">
        <ele>970.1074219</ele>
        <time>2011-02-05T12:51:25Z</time>
      </trkpt>
      <trkpt lat="43.7588" lon="7.04371">
        <ele>970.5881348</ele>
        <time>2011-02-05T12:51:36Z</time>
      </trkpt>
      <trkpt lat="43.75885" lon="7.04369">
        <ele>971.0688477</ele>
        <time>2011-02-05T12:51:41Z</time>
      </trkpt>
      <trkpt lat="43.75868" lon="7.04378">
        <ele>969.6269531</ele>
        <time>2011-02-05T12:51:55Z</time>
      </trkpt>
      <trkpt lat="43.75868" lon="7.04378">
        <ele>969.6269531</ele>
        <time>2011-02-05T12:52:48Z</time>
      </trkpt>
      <trkpt lat="43.75868" lon="7.04378">
        <ele>970.5881348</ele>
        <time>2011-02-05T12:52:56Z</time>
      </trkpt>
      <trkpt lat="43.75868" lon="7.04378">
        <ele>970.1074219</ele>
        <time>2011-02-05T12:54:01Z</time>
      </trkpt>
      <trkpt lat="43.75868" lon="7.04378">
        <ele>970.1074219</ele>
        <time>2011-02-05T12:56:07Z</time>
      </trkpt>
      <trkpt lat="43.75868" lon="7.04378">
        <ele>970.1074219</ele>
        <time>2011-02-05T12:56:46Z</time>
      </trkpt>
      <trkpt lat="43.75868" lon="7.04378">
        <ele>970.5881348</ele>
        <time>2011-02-05T12:57:43Z</time>
      </trkpt>
      <trkpt lat="43.75868" lon="7.04378">
        <ele>970.5881348</ele>
        <time>2011-02-05T12:58:42Z</time>
      </trkpt>
      <trkpt lat="43.75868" lon="7.04378">
        <ele>971.0688477</ele>
        <time>2011-02-05T12:59:09Z</time>
      </trkpt>
      <trkpt lat="43.75868" lon="7.04378">
        <ele>970.5881348</ele>
        <time>2011-02-05T12:59:45Z</time>
      </trkpt>
      <trkpt lat="43.75851" lon="7.04389">
        <ele>970.5881348</ele>
        <time>2011-02-05T12:59:53Z</time>
      </trkpt>
      <trkpt lat="43.75843" lon="7.04399">
        <ele>970.1074219</ele>
        <time>2011-02-05T12:59:58Z</time>
      </trkpt>
      <trkpt lat="43.75843" lon="7.04397">
        <ele>970.5881348</ele>
        <time>2011-02-05T13:00:06Z</time>
      </trkpt>
      <trkpt lat="43.75849" lon="7.04393">
        <ele>970.5881348</ele>
        <time>2011-02-05T13:00:12Z</time>
      </trkpt>
      <trkpt lat="43.75859" lon="7.04381">
        <ele>971.5493164</ele>
        <time>2011-02-05T13:00:22Z</time>
      </trkpt>
      <trkpt lat="43.75861" lon="7.04379">
        <ele>970.5881348</ele>
        <time>2011-02-05T13:00:37Z</time>
      </trkpt>
      <trkpt lat="43.75863" lon="7.04379">
        <ele>970.5881348</ele>
        <time>2011-02-05T13:01:31Z</time>
      </trkpt>
      <trkpt lat="43.75867" lon="7.04377">
        <ele>971.5493164</ele>
        <time>2011-02-05T13:01:35Z</time>
      </trkpt>
      <trkpt lat="43.759" lon="7.04362">
        <ele>971.5493164</ele>
        <time>2011-02-05T13:01:52Z</time>
      </trkpt>
      <trkpt lat="43.75962" lon="7.04341">
        <ele>970.1074219</ele>
        <time>2011-02-05T13:02:12Z</time>
      </trkpt>
      <trkpt lat="43.75965" lon="7.0434">
        <ele>970.1074219</ele>
        <time>2011-02-05T13:02:13Z</time>
      </trkpt>
      <trkpt lat="43.76002" lon="7.04302">
        <ele>970.5881348</ele>
        <time>2011-02-05T13:02:27Z</time>
      </trkpt>
      <trkpt lat="43.76022" lon="7.04273">
        <ele>969.6269531</ele>
        <time>2011-02-05T13:02:34Z</time>
      </trkpt>
      <trkpt lat="43.76088" lon="7.04199">
        <ele>968.1848145</ele>
        <time>2011-02-05T13:02:52Z</time>
      </trkpt>
      <trkpt lat="43.76134" lon="7.04153">
        <ele>967.7041016</ele>
        <time>2011-02-05T13:03:06Z</time>
      </trkpt>
      <trkpt lat="43.7618" lon="7.041">
        <ele>968.6655273</ele>
        <time>2011-02-05T13:03:22Z</time>
      </trkpt>
      <trkpt lat="43.76208" lon="7.0406">
        <ele>968.6655273</ele>
        <time>2011-02-05T13:03:33Z</time>
      </trkpt>
      <trkpt lat="43.76257" lon="7.04026">
        <ele>968.1848145</ele>
        <time>2011-02-05T13:03:47Z</time>
      </trkpt>
      <trkpt lat="43.76279" lon="7.04011">
        <ele>967.2236328</ele>
        <time>2011-02-05T13:03:53Z</time>
      </trkpt>
      <trkpt lat="43.76331" lon="7.03955">
        <ele>965.7817383</ele>
        <time>2011-02-05T13:04:06Z</time>
      </trkpt>
      <trkpt lat="43.76352" lon="7.03933">
        <ele>965.3010254</ele>
        <time>2011-02-05T13:04:12Z</time>
      </trkpt>
      <trkpt lat="43.76363" lon="7.03905">
        <ele>966.262207</ele>
        <time>2011-02-05T13:04:18Z</time>
      </trkpt>
      <trkpt lat="43.76393" lon="7.03858">
        <ele>966.7429199</ele>
        <time>2011-02-05T13:04:30Z</time>
      </trkpt>
      <trkpt lat="43.76435" lon="7.03847">
        <ele>966.262207</ele>
        <time>2011-02-05T13:04:44Z</time>
      </trkpt>
      <trkpt lat="43.76429" lon="7.03793">
        <ele>966.7429199</ele>
        <time>2011-02-05T13:04:55Z</time>
      </trkpt>
      <trkpt lat="43.76427" lon="7.03781">
        <ele>964.8203125</ele>
        <time>2011-02-05T13:05:09Z</time>
      </trkpt>
      <trkpt lat="43.76427" lon="7.03781">
        <ele>964.3395996</ele>
        <time>2011-02-05T13:05:26Z</time>
      </trkpt>
      <trkpt lat="43.76427" lon="7.03781">
        <ele>964.3395996</ele>
        <time>2011-02-05T13:05:27Z</time>
      </trkpt>
      <trkpt lat="43.76398" lon="7.03745">
        <ele>961.9365234</ele>
        <time>2011-02-05T13:05:37Z</time>
      </trkpt>
      <trkpt lat="43.76395" lon="7.03718">
        <ele>960.0136719</ele>
        <time>2011-02-05T13:05:42Z</time>
      </trkpt>
      <trkpt lat="43.76386" lon="7.03693">
        <ele>958.5717773</ele>
        <time>2011-02-05T13:05:48Z</time>
      </trkpt>
      <trkpt lat="43.76368" lon="7.03672">
        <ele>958.0913086</ele>
        <time>2011-02-05T13:05:54Z</time>
      </trkpt>
      <trkpt lat="43.76329" lon="7.03625">
        <ele>956.168457</ele>
        <time>2011-02-05T13:06:06Z</time>
      </trkpt>
      <trkpt lat="43.76283" lon="7.03587">
        <ele>955.2070313</ele>
        <time>2011-02-05T13:06:24Z</time>
      </trkpt>
      <trkpt lat="43.76256" lon="7.03556">
        <ele>955.2070313</ele>
        <time>2011-02-05T13:06:37Z</time>
      </trkpt>
      <trkpt lat="43.76251" lon="7.03552">
        <ele>954.2458496</ele>
        <time>2011-02-05T13:06:39Z</time>
      </trkpt>
      <trkpt lat="43.76234" lon="7.03538">
        <ele>952.8037109</ele>
        <time>2011-02-05T13:06:45Z</time>
      </trkpt>
      <trkpt lat="43.76209" lon="7.03516">
        <ele>949.439209</ele>
        <time>2011-02-05T13:06:51Z</time>
      </trkpt>
      <trkpt lat="43.76194" lon="7.03488">
        <ele>947.0358887</ele>
        <time>2011-02-05T13:06:56Z</time>
      </trkpt>
      <trkpt lat="43.7618" lon="7.03475">
        <ele>946.5554199</ele>
        <time>2011-02-05T13:06:59Z</time>
      </trkpt>
      <trkpt lat="43.7615" lon="7.03436">
        <ele>943.1906738</ele>
        <time>2011-02-05T13:07:07Z</time>
      </trkpt>
      <trkpt lat="43.76122" lon="7.0338">
        <ele>941.2680664</ele>
        <time>2011-02-05T13:07:18Z</time>
      </trkpt>
      <trkpt lat="43.76103" lon="7.03333">
        <ele>942.7102051</ele>
        <time>2011-02-05T13:07:30Z</time>
      </trkpt>
      <trkpt lat="43.76103" lon="7.03333">
        <ele>943.6713867</ele>
        <time>2011-02-05T13:07:33Z</time>
      </trkpt>
      <trkpt lat="43.76074" lon="7.03296">
        <ele>943.1906738</ele>
        <time>2011-02-05T13:07:46Z</time>
      </trkpt>
      <trkpt lat="43.76041" lon="7.03262">
        <ele>942.2294922</ele>
        <time>2011-02-05T13:07:57Z</time>
      </trkpt>
      <trkpt lat="43.7601" lon="7.03215">
        <ele>939.3452148</ele>
        <time>2011-02-05T13:08:11Z</time>
      </trkpt>
      <trkpt lat="43.76" lon="7.03172">
        <ele>939.3452148</ele>
        <time>2011-02-05T13:08:24Z</time>
      </trkpt>
      <trkpt lat="43.75977" lon="7.03124">
        <ele>940.3068848</ele>
        <time>2011-02-05T13:08:40Z</time>
      </trkpt>
      <trkpt lat="43.75956" lon="7.03084">
        <ele>939.8259277</ele>
        <time>2011-02-05T13:08:54Z</time>
      </trkpt>
      <trkpt lat="43.75931" lon="7.03043">
        <ele>937.4226074</ele>
        <time>2011-02-05T13:09:07Z</time>
      </trkpt>
      <trkpt lat="43.75903" lon="7.02993">
        <ele>936.9418945</ele>
        <time>2011-02-05T13:09:20Z</time>
      </trkpt>
      <trkpt lat="43.75899" lon="7.02987">
        <ele>937.4226074</ele>
        <time>2011-02-05T13:09:22Z</time>
      </trkpt>
      <trkpt lat="43.75887" lon="7.02946">
        <ele>935.5</ele>
        <time>2011-02-05T13:09:37Z</time>
      </trkpt>
      <trkpt lat="43.75887" lon="7.02946">
        <ele>935.0195313</ele>
        <time>2011-02-05T13:09:44Z</time>
      </trkpt>
      <trkpt lat="43.75887" lon="7.02946">
        <ele>935.0195313</ele>
        <time>2011-02-05T13:09:47Z</time>
      </trkpt>
      <trkpt lat="43.75883" lon="7.02936">
        <ele>935.5</ele>
        <time>2011-02-05T13:09:49Z</time>
      </trkpt>
      <trkpt lat="43.75858" lon="7.02903">
        <ele>936.4614258</ele>
        <time>2011-02-05T13:10:01Z</time>
      </trkpt>
      <trkpt lat="43.75829" lon="7.02852">
        <ele>938.3840332</ele>
        <time>2011-02-05T13:10:15Z</time>
      </trkpt>
      <trkpt lat="43.75818" lon="7.02832">
        <ele>936.9418945</ele>
        <time>2011-02-05T13:10:24Z</time>
      </trkpt>
      <trkpt lat="43.75815" lon="7.02824">
        <ele>937.9033203</ele>
        <time>2011-02-05T13:10:28Z</time>
      </trkpt>
      <trkpt lat="43.75804" lon="7.0279">
        <ele>937.9033203</ele>
        <time>2011-02-05T13:10:41Z</time>
      </trkpt>
      <trkpt lat="43.7579" lon="7.02752">
        <ele>939.3452148</ele>
        <time>2011-02-05T13:11:01Z</time>
      </trkpt>
      <trkpt lat="43.75779" lon="7.02708">
        <ele>939.8259277</ele>
        <time>2011-02-05T13:11:12Z</time>
      </trkpt>
      <trkpt lat="43.75775" lon="7.0267">
        <ele>939.8259277</ele>
        <time>2011-02-05T13:11:25Z</time>
      </trkpt>
      <trkpt lat="43.75779" lon="7.02615">
        <ele>937.4226074</ele>
        <time>2011-02-05T13:11:37Z</time>
      </trkpt>
      <trkpt lat="43.75784" lon="7.02557">
        <ele>935.9807129</ele>
        <time>2011-02-05T13:11:51Z</time>
      </trkpt>
      <trkpt lat="43.75779" lon="7.02499">
        <ele>935.0195313</ele>
        <time>2011-02-05T13:12:06Z</time>
      </trkpt>
      <trkpt lat="43.75779" lon="7.02495">
        <ele>935.0195313</ele>
        <time>2011-02-05T13:12:07Z</time>
      </trkpt>
      <trkpt lat="43.75779" lon="7.02484">
        <ele>935.0195313</ele>
        <time>2011-02-05T13:12:10Z</time>
      </trkpt>
      <trkpt lat="43.75769" lon="7.02431">
        <ele>935.5</ele>
        <time>2011-02-05T13:12:26Z</time>
      </trkpt>
      <trkpt lat="43.75769" lon="7.02412">
        <ele>936.4614258</ele>
        <time>2011-02-05T13:12:33Z</time>
      </trkpt>
      <trkpt lat="43.75775" lon="7.02366">
        <ele>936.4614258</ele>
        <time>2011-02-05T13:12:47Z</time>
      </trkpt>
      <trkpt lat="43.75775" lon="7.02363">
        <ele>936.4614258</ele>
        <time>2011-02-05T13:12:48Z</time>
      </trkpt>
      <trkpt lat="43.75784" lon="7.02323">
        <ele>935.9807129</ele>
        <time>2011-02-05T13:13:02Z</time>
      </trkpt>
      <trkpt lat="43.75785" lon="7.02302">
        <ele>936.4614258</ele>
        <time>2011-02-05T13:13:09Z</time>
      </trkpt>
      <trkpt lat="43.75782" lon="7.0229">
        <ele>936.4614258</ele>
        <time>2011-02-05T13:13:14Z</time>
      </trkpt>
      <trkpt lat="43.75773" lon="7.02262">
        <ele>937.4226074</ele>
        <time>2011-02-05T13:13:28Z</time>
      </trkpt>
      <trkpt lat="43.75772" lon="7.02234">
        <ele>939.3452148</ele>
        <time>2011-02-05T13:13:42Z</time>
      </trkpt>
      <trkpt lat="43.75773" lon="7.02225">
        <ele>940.7873535</ele>
        <time>2011-02-05T13:13:46Z</time>
      </trkpt>
      <trkpt lat="43.75769" lon="7.02187">
        <ele>940.3068848</ele>
        <time>2011-02-05T13:13:58Z</time>
      </trkpt>
      <trkpt lat="43.75769" lon="7.02182">
        <ele>941.2680664</ele>
        <time>2011-02-05T13:14:00Z</time>
      </trkpt>
      <trkpt lat="43.75773" lon="7.02172">
        <ele>941.7487793</ele>
        <time>2011-02-05T13:14:05Z</time>
      </trkpt>
      <trkpt lat="43.75781" lon="7.02157">
        <ele>941.7487793</ele>
        <time>2011-02-05T13:14:11Z</time>
      </trkpt>
      <trkpt lat="43.75791" lon="7.02099">
        <ele>940.7873535</ele>
        <time>2011-02-05T13:14:28Z</time>
      </trkpt>
      <trkpt lat="43.75802" lon="7.02059">
        <ele>941.7487793</ele>
        <time>2011-02-05T13:14:43Z</time>
      </trkpt>
      <trkpt lat="43.75803" lon="7.02057">
        <ele>941.7487793</ele>
        <time>2011-02-05T13:14:44Z</time>
      </trkpt>
      <trkpt lat="43.75803" lon="7.02049">
        <ele>942.2294922</ele>
        <time>2011-02-05T13:14:47Z</time>
      </trkpt>
      <trkpt lat="43.75805" lon="7.02039">
        <ele>943.1906738</ele>
        <time>2011-02-05T13:14:52Z</time>
      </trkpt>
      <trkpt lat="43.75807" lon="7.02019">
        <ele>944.6325684</ele>
        <time>2011-02-05T13:15:00Z</time>
      </trkpt>
      <trkpt lat="43.75802" lon="7.01997">
        <ele>948.9584961</ele>
        <time>2011-02-05T13:15:09Z</time>
      </trkpt>
      <trkpt lat="43.75801" lon="7.0198">
        <ele>950.4006348</ele>
        <time>2011-02-05T13:15:15Z</time>
      </trkpt>
      <trkpt lat="43.75805" lon="7.01926">
        <ele>951.3618164</ele>
        <time>2011-02-05T13:15:37Z</time>
      </trkpt>
      <trkpt lat="43.75805" lon="7.01923">
        <ele>951.8425293</ele>
        <time>2011-02-05T13:15:48Z</time>
      </trkpt>
      <trkpt lat="43.75805" lon="7.01911">
        <ele>952.322998</ele>
        <time>2011-02-05T13:15:53Z</time>
      </trkpt>
      <trkpt lat="43.75806" lon="7.01895">
        <ele>952.322998</ele>
        <time>2011-02-05T13:15:57Z</time>
      </trkpt>
      <trkpt lat="43.75805" lon="7.01893">
        <ele>953.2844238</ele>
        <time>2011-02-05T13:16:00Z</time>
      </trkpt>
      <trkpt lat="43.75805" lon="7.01891">
        <ele>953.2844238</ele>
        <time>2011-02-05T13:16:03Z</time>
      </trkpt>
      <trkpt lat="43.75797" lon="7.01907">
        <ele>953.2844238</ele>
        <time>2011-02-05T13:16:10Z</time>
      </trkpt>
      <trkpt lat="43.75804" lon="7.0191">
        <ele>953.2844238</ele>
        <time>2011-02-05T13:16:13Z</time>
      </trkpt>
      <trkpt lat="43.75805" lon="7.01892">
        <ele>953.2844238</ele>
        <time>2011-02-05T13:16:24Z</time>
      </trkpt>
      <trkpt lat="43.75804" lon="7.01892">
        <ele>952.322998</ele>
        <time>2011-02-05T13:16:37Z</time>
      </trkpt>
      <trkpt lat="43.75805" lon="7.01892">
        <ele>952.8037109</ele>
        <time>2011-02-05T13:17:22Z</time>
      </trkpt>
      <trkpt lat="43.75804" lon="7.01892">
        <ele>953.7651367</ele>
        <time>2011-02-05T13:17:41Z</time>
      </trkpt>
      <trkpt lat="43.75805" lon="7.0189">
        <ele>952.8037109</ele>
        <time>2011-02-05T13:17:51Z</time>
      </trkpt>
      <trkpt lat="43.7581" lon="7.01888">
        <ele>953.2844238</ele>
        <time>2011-02-05T13:18:05Z</time>
      </trkpt>
      <trkpt lat="43.75808" lon="7.01889">
        <ele>954.2458496</ele>
        <time>2011-02-05T13:18:44Z</time>
      </trkpt>
      <trkpt lat="43.75808" lon="7.0189">
        <ele>954.2458496</ele>
        <time>2011-02-05T13:20:35Z</time>
      </trkpt>
      <trkpt lat="43.75806" lon="7.01892">
        <ele>954.7263184</ele>
        <time>2011-02-05T13:21:14Z</time>
      </trkpt>
      <trkpt lat="43.75806" lon="7.01891">
        <ele>954.2458496</ele>
        <time>2011-02-05T13:21:23Z</time>
      </trkpt>
      <trkpt lat="43.75806" lon="7.01849">
        <ele>955.2070313</ele>
        <time>2011-02-05T13:21:39Z</time>
      </trkpt>
      <trkpt lat="43.75806" lon="7.01776">
        <ele>957.6105957</ele>
        <time>2011-02-05T13:21:58Z</time>
      </trkpt>
      <trkpt lat="43.75811" lon="7.01727">
        <ele>957.6105957</ele>
        <time>2011-02-05T13:22:13Z</time>
      </trkpt>
      <trkpt lat="43.75815" lon="7.01692">
        <ele>960.9750977</ele>
        <time>2011-02-05T13:22:24Z</time>
      </trkpt>
      <trkpt lat="43.75797" lon="7.01645">
        <ele>960.9750977</ele>
        <time>2011-02-05T13:22:40Z</time>
      </trkpt>
      <trkpt lat="43.75798" lon="7.01604">
        <ele>961.4558105</ele>
        <time>2011-02-05T13:22:54Z</time>
      </trkpt>
      <trkpt lat="43.75798" lon="7.01599">
        <ele>961.4558105</ele>
        <time>2011-02-05T13:22:56Z</time>
      </trkpt>
      <trkpt lat="43.75807" lon="7.01583">
        <ele>962.4169922</ele>
        <time>2011-02-05T13:23:05Z</time>
      </trkpt>
      <trkpt lat="43.758" lon="7.0157">
        <ele>961.9365234</ele>
        <time>2011-02-05T13:23:16Z</time>
      </trkpt>
      <trkpt lat="43.75795" lon="7.01569">
        <ele>960.9750977</ele>
        <time>2011-02-05T13:23:26Z</time>
      </trkpt>
      <trkpt lat="43.75795" lon="7.0157">
        <ele>960.4943848</ele>
        <time>2011-02-05T13:24:01Z</time>
      </trkpt>
      <trkpt lat="43.75794" lon="7.01569">
        <ele>960.9750977</ele>
        <time>2011-02-05T13:25:00Z</time>
      </trkpt>
      <trkpt lat="43.75793" lon="7.01569">
        <ele>961.4558105</ele>
        <time>2011-02-05T13:25:01Z</time>
      </trkpt>
      <trkpt lat="43.75794" lon="7.0156">
        <ele>960.9750977</ele>
        <time>2011-02-05T13:25:05Z</time>
      </trkpt>
      <trkpt lat="43.75811" lon="7.01533">
        <ele>958.5717773</ele>
        <time>2011-02-05T13:25:16Z</time>
      </trkpt>
      <trkpt lat="43.75824" lon="7.01526">
        <ele>955.2070313</ele>
        <time>2011-02-05T13:25:20Z</time>
      </trkpt>
      <trkpt lat="43.75827" lon="7.01525">
        <ele>955.2070313</ele>
        <time>2011-02-05T13:25:21Z</time>
      </trkpt>
      <trkpt lat="43.75841" lon="7.01515">
        <ele>952.8037109</ele>
        <time>2011-02-05T13:25:27Z</time>
      </trkpt>
      <trkpt lat="43.75851" lon="7.01506">
        <ele>951.8425293</ele>
        <time>2011-02-05T13:25:31Z</time>
      </trkpt>
      <trkpt lat="43.75859" lon="7.01501">
        <ele>950.8811035</ele>
        <time>2011-02-05T13:25:33Z</time>
      </trkpt>
      <trkpt lat="43.75871" lon="7.01491">
        <ele>948.9584961</ele>
        <time>2011-02-05T13:25:36Z</time>
      </trkpt>
      <trkpt lat="43.75889" lon="7.01477">
        <ele>946.074707</ele>
        <time>2011-02-05T13:25:40Z</time>
      </trkpt>
      <trkpt lat="43.75896" lon="7.0147">
        <ele>942.2294922</ele>
        <time>2011-02-05T13:25:42Z</time>
      </trkpt>
      <trkpt lat="43.75907" lon="7.01463">
        <ele>940.7873535</ele>
        <time>2011-02-05T13:25:45Z</time>
      </trkpt>
      <trkpt lat="43.75913" lon="7.0146">
        <ele>939.3452148</ele>
        <time>2011-02-05T13:25:47Z</time>
      </trkpt>
      <trkpt lat="43.7592" lon="7.01457">
        <ele>937.4226074</ele>
        <time>2011-02-05T13:25:50Z</time>
      </trkpt>
      <trkpt lat="43.75923" lon="7.01456">
        <ele>936.4614258</ele>
        <time>2011-02-05T13:25:51Z</time>
      </trkpt>
      <trkpt lat="43.75941" lon="7.0145">
        <ele>934.0581055</ele>
        <time>2011-02-05T13:25:57Z</time>
      </trkpt>
      <trkpt lat="43.75968" lon="7.01433">
        <ele>930.6936035</ele>
        <time>2011-02-05T13:26:05Z</time>
      </trkpt>
      <trkpt lat="43.75988" lon="7.01417">
        <ele>928.2902832</ele>
        <time>2011-02-05T13:26:10Z</time>
      </trkpt>
      <trkpt lat="43.75993" lon="7.01413">
        <ele>926.8483887</ele>
        <time>2011-02-05T13:26:12Z</time>
      </trkpt>
      <trkpt lat="43.76004" lon="7.01399">
        <ele>925.8869629</ele>
        <time>2011-02-05T13:26:15Z</time>
      </trkpt>
      <trkpt lat="43.76012" lon="7.01388">
        <ele>924.9257813</ele>
        <time>2011-02-05T13:26:17Z</time>
      </trkpt>
      <trkpt lat="43.76018" lon="7.01377">
        <ele>920.1188965</ele>
        <time>2011-02-05T13:26:19Z</time>
      </trkpt>
      <trkpt lat="43.7602" lon="7.01373">
        <ele>920.1188965</ele>
        <time>2011-02-05T13:26:20Z</time>
      </trkpt>
      <trkpt lat="43.76024" lon="7.01365">
        <ele>919.1577148</ele>
        <time>2011-02-05T13:26:22Z</time>
      </trkpt>
      <trkpt lat="43.76027" lon="7.0136">
        <ele>917.7155762</ele>
        <time>2011-02-05T13:26:24Z</time>
      </trkpt>
      <trkpt lat="43.76033" lon="7.01352">
        <ele>916.2736816</ele>
        <time>2011-02-05T13:26:27Z</time>
      </trkpt>
      <trkpt lat="43.7604" lon="7.01344">
        <ele>915.3125</ele>
        <time>2011-02-05T13:26:30Z</time>
      </trkpt>
      <trkpt lat="43.76048" lon="7.01327">
        <ele>912.9091797</ele>
        <time>2011-02-05T13:26:34Z</time>
      </trkpt>
      <trkpt lat="43.76048" lon="7.01324">
        <ele>911.947998</ele>
        <time>2011-02-05T13:26:35Z</time>
      </trkpt>
      <trkpt lat="43.76048" lon="7.01306">
        <ele>909.5446777</ele>
        <time>2011-02-05T13:26:40Z</time>
      </trkpt>
      <trkpt lat="43.76058" lon="7.01268">
        <ele>906.1796875</ele>
        <time>2011-02-05T13:26:49Z</time>
      </trkpt>
      <trkpt lat="43.76058" lon="7.01256">
        <ele>906.1796875</ele>
        <time>2011-02-05T13:26:52Z</time>
      </trkpt>
      <trkpt lat="43.76053" lon="7.01237">
        <ele>902.8151855</ele>
        <time>2011-02-05T13:26:56Z</time>
      </trkpt>
      <trkpt lat="43.76051" lon="7.01225">
        <ele>901.373291</ele>
        <time>2011-02-05T13:26:58Z</time>
      </trkpt>
      <trkpt lat="43.7605" lon="7.01208">
        <ele>900.4121094</ele>
        <time>2011-02-05T13:27:01Z</time>
      </trkpt>
      <trkpt lat="43.76051" lon="7.01195">
        <ele>897.0473633</ele>
        <time>2011-02-05T13:27:05Z</time>
      </trkpt>
      <trkpt lat="43.76051" lon="7.01195">
        <ele>896.5668945</ele>
        <time>2011-02-05T13:27:29Z</time>
      </trkpt>
      <trkpt lat="43.76051" lon="7.01195">
        <ele>897.0473633</ele>
        <time>2011-02-05T13:28:11Z</time>
      </trkpt>
      <trkpt lat="43.76051" lon="7.01195">
        <ele>896.5668945</ele>
        <time>2011-02-05T13:28:30Z</time>
      </trkpt>
      <trkpt lat="43.76051" lon="7.01195">
        <ele>897.0473633</ele>
        <time>2011-02-05T13:28:57Z</time>
      </trkpt>
      <trkpt lat="43.76051" lon="7.01195">
        <ele>896.5668945</ele>
        <time>2011-02-05T13:29:26Z</time>
      </trkpt>
      <trkpt lat="43.76052" lon="7.01182">
        <ele>897.0473633</ele>
        <time>2011-02-05T13:30:02Z</time>
      </trkpt>
      <trkpt lat="43.76052" lon="7.01166">
        <ele>897.5280762</ele>
        <time>2011-02-05T13:30:11Z</time>
      </trkpt>
      <trkpt lat="43.7607" lon="7.01144">
        <ele>898.0087891</ele>
        <time>2011-02-05T13:30:19Z</time>
      </trkpt>
      <trkpt lat="43.76083" lon="7.01112">
        <ele>898.9699707</ele>
        <time>2011-02-05T13:30:28Z</time>
      </trkpt>
      <trkpt lat="43.76086" lon="7.01087">
        <ele>898.4892578</ele>
        <time>2011-02-05T13:30:33Z</time>
      </trkpt>
      <trkpt lat="43.76093" lon="7.01042">
        <ele>895.1247559</ele>
        <time>2011-02-05T13:30:42Z</time>
      </trkpt>
      <trkpt lat="43.76093" lon="7.01037">
        <ele>895.1247559</ele>
        <time>2011-02-05T13:30:43Z</time>
      </trkpt>
      <trkpt lat="43.76101" lon="7.00984">
        <ele>892.2409668</ele>
        <time>2011-02-05T13:30:53Z</time>
      </trkpt>
      <trkpt lat="43.76113" lon="7.00955">
        <ele>892.7216797</ele>
        <time>2011-02-05T13:31:04Z</time>
      </trkpt>
      <trkpt lat="43.76115" lon="7.0095">
        <ele>892.2409668</ele>
        <time>2011-02-05T13:31:08Z</time>
      </trkpt>
      <trkpt lat="43.76123" lon="7.00927">
        <ele>891.7600098</ele>
        <time>2011-02-05T13:31:18Z</time>
      </trkpt>
      <trkpt lat="43.76109" lon="7.00899">
        <ele>888.8762207</ele>
        <time>2011-02-05T13:31:28Z</time>
      </trkpt>
      <trkpt lat="43.76086" lon="7.00866">
        <ele>886.4729004</ele>
        <time>2011-02-05T13:31:36Z</time>
      </trkpt>
      <trkpt lat="43.76084" lon="7.00845">
        <ele>884.0695801</ele>
        <time>2011-02-05T13:31:40Z</time>
      </trkpt>
      <trkpt lat="43.76079" lon="7.0082">
        <ele>885.5114746</ele>
        <time>2011-02-05T13:31:46Z</time>
      </trkpt>
      <trkpt lat="43.76074" lon="7.00792">
        <ele>886.9533691</ele>
        <time>2011-02-05T13:31:53Z</time>
      </trkpt>
      <trkpt lat="43.76064" lon="7.00739">
        <ele>887.434082</ele>
        <time>2011-02-05T13:32:06Z</time>
      </trkpt>
      <trkpt lat="43.76062" lon="7.00734">
        <ele>887.434082</ele>
        <time>2011-02-05T13:32:08Z</time>
      </trkpt>
      <trkpt lat="43.76052" lon="7.00692">
        <ele>886.9533691</ele>
        <time>2011-02-05T13:32:20Z</time>
      </trkpt>
      <trkpt lat="43.76051" lon="7.00688">
        <ele>886.4729004</ele>
        <time>2011-02-05T13:32:21Z</time>
      </trkpt>
      <trkpt lat="43.76049" lon="7.00674">
        <ele>885.5114746</ele>
        <time>2011-02-05T13:32:25Z</time>
      </trkpt>
      <trkpt lat="43.76046" lon="7.00653">
        <ele>885.5114746</ele>
        <time>2011-02-05T13:32:30Z</time>
      </trkpt>
      <trkpt lat="43.76052" lon="7.00612">
        <ele>884.0695801</ele>
        <time>2011-02-05T13:32:37Z</time>
      </trkpt>
      <trkpt lat="43.76055" lon="7.00597">
        <ele>883.1081543</ele>
        <time>2011-02-05T13:32:40Z</time>
      </trkpt>
      <trkpt lat="43.76056" lon="7.00594">
        <ele>882.6276855</ele>
        <time>2011-02-05T13:32:41Z</time>
      </trkpt>
      <trkpt lat="43.76077" lon="7.00561">
        <ele>880.7050781</ele>
        <time>2011-02-05T13:32:49Z</time>
      </trkpt>
      <trkpt lat="43.76107" lon="7.00515">
        <ele>876.8598633</ele>
        <time>2011-02-05T13:32:57Z</time>
      </trkpt>
      <trkpt lat="43.76123" lon="7.00499">
        <ele>874.4562988</ele>
        <time>2011-02-05T13:33:03Z</time>
      </trkpt>
      <trkpt lat="43.7613" lon="7.00475">
        <ele>872.0529785</ele>
        <time>2011-02-05T13:33:19Z</time>
      </trkpt>
      <trkpt lat="43.76132" lon="7.00468">
        <ele>869.1691895</ele>
        <time>2011-02-05T13:33:21Z</time>
      </trkpt>
      <trkpt lat="43.7614" lon="7.00453">
        <ele>866.2851563</ele>
        <time>2011-02-05T13:33:24Z</time>
      </trkpt>
      <trkpt lat="43.7615" lon="7.00439">
        <ele>864.3625488</ele>
        <time>2011-02-05T13:33:27Z</time>
      </trkpt>
      <trkpt lat="43.76143" lon="7.00432">
        <ele>862.9206543</ele>
        <time>2011-02-05T13:33:31Z</time>
      </trkpt>
      <trkpt lat="43.76133" lon="7.00432">
        <ele>861.4787598</ele>
        <time>2011-02-05T13:33:33Z</time>
      </trkpt>
      <trkpt lat="43.76125" lon="7.00431">
        <ele>860.0366211</ele>
        <time>2011-02-05T13:33:35Z</time>
      </trkpt>
      <trkpt lat="43.76123" lon="7.0043">
        <ele>857.6333008</ele>
        <time>2011-02-05T13:33:37Z</time>
      </trkpt>
      <trkpt lat="43.76098" lon="7.00396">
        <ele>854.2687988</ele>
        <time>2011-02-05T13:33:39Z</time>
      </trkpt>
      <trkpt lat="43.76098" lon="7.00396">
        <ele>854.2687988</ele>
        <time>2011-02-05T13:33:40Z</time>
      </trkpt>
      <trkpt lat="43.76127" lon="7.00413">
        <ele>854.7492676</ele>
        <time>2011-02-05T13:33:46Z</time>
      </trkpt>
      <trkpt lat="43.76127" lon="7.00413">
        <ele>854.2687988</ele>
        <time>2011-02-05T13:34:10Z</time>
      </trkpt>
      <trkpt lat="43.76127" lon="7.00413">
        <ele>854.7492676</ele>
        <time>2011-02-05T13:36:30Z</time>
      </trkpt>
      <trkpt lat="43.76127" lon="7.00407">
        <ele>854.2687988</ele>
        <time>2011-02-05T13:36:47Z</time>
      </trkpt>
      <trkpt lat="43.76125" lon="7.0037">
        <ele>853.307373</ele>
        <time>2011-02-05T13:36:59Z</time>
      </trkpt>
      <trkpt lat="43.76125" lon="7.0037">
        <ele>853.307373</ele>
        <time>2011-02-05T13:37:00Z</time>
      </trkpt>
      <trkpt lat="43.76125" lon="7.0037">
        <ele>854.7492676</ele>
        <time>2011-02-05T13:37:12Z</time>
      </trkpt>
      <trkpt lat="43.76158" lon="7.00354">
        <ele>855.2299805</ele>
        <time>2011-02-05T13:37:22Z</time>
      </trkpt>
      <trkpt lat="43.76191" lon="7.00345">
        <ele>854.7492676</ele>
        <time>2011-02-05T13:37:36Z</time>
      </trkpt>
      <trkpt lat="43.76243" lon="7.00312">
        <ele>856.1911621</ele>
        <time>2011-02-05T13:37:53Z</time>
      </trkpt>
      <trkpt lat="43.76249" lon="7.00308">
        <ele>854.7492676</ele>
        <time>2011-02-05T13:37:59Z</time>
      </trkpt>
      <trkpt lat="43.76254" lon="7.00305">
        <ele>854.7492676</ele>
        <time>2011-02-05T13:38:10Z</time>
      </trkpt>
      <trkpt lat="43.76246" lon="7.00225">
        <ele>855.7106934</ele>
        <time>2011-02-05T13:38:17Z</time>
      </trkpt>
      <trkpt lat="43.76264" lon="7.00211">
        <ele>856.671875</ele>
        <time>2011-02-05T13:38:29Z</time>
      </trkpt>
      <trkpt lat="43.76277" lon="7.00202">
        <ele>857.1525879</ele>
        <time>2011-02-05T13:38:41Z</time>
      </trkpt>
      <trkpt lat="43.76295" lon="7.00188">
        <ele>856.671875</ele>
        <time>2011-02-05T13:38:52Z</time>
      </trkpt>
      <trkpt lat="43.76325" lon="7.0017">
        <ele>856.1911621</ele>
        <time>2011-02-05T13:39:05Z</time>
      </trkpt>
      <trkpt lat="43.7634" lon="7.00152">
        <ele>857.1525879</ele>
        <time>2011-02-05T13:39:13Z</time>
      </trkpt>
      <trkpt lat="43.76351" lon="7.00147">
        <ele>858.1140137</ele>
        <time>2011-02-05T13:39:21Z</time>
      </trkpt>
      <trkpt lat="43.76362" lon="7.00138">
        <ele>859.0751953</ele>
        <time>2011-02-05T13:39:28Z</time>
      </trkpt>
      <trkpt lat="43.76367" lon="7.00136">
        <ele>859.5559082</ele>
        <time>2011-02-05T13:39:31Z</time>
      </trkpt>
      <trkpt lat="43.76384" lon="7.00111">
        <ele>861.9594727</ele>
        <time>2011-02-05T13:39:48Z</time>
      </trkpt>
      <trkpt lat="43.76404" lon="7.00085">
        <ele>864.3625488</ele>
        <time>2011-02-05T13:40:03Z</time>
      </trkpt>
      <trkpt lat="43.76407" lon="7.00075">
        <ele>865.3239746</ele>
        <time>2011-02-05T13:40:09Z</time>
      </trkpt>
      <trkpt lat="43.76408" lon="7.00057">
        <ele>868.6884766</ele>
        <time>2011-02-05T13:40:24Z</time>
      </trkpt>
      <trkpt lat="43.7641" lon="7.00041">
        <ele>870.1303711</ele>
        <time>2011-02-05T13:40:40Z</time>
      </trkpt>
      <trkpt lat="43.76414" lon="7.00025">
        <ele>871.5722656</ele>
        <time>2011-02-05T13:40:51Z</time>
      </trkpt>
      <trkpt lat="43.76419" lon="6.99978">
        <ele>873.4951172</ele>
        <time>2011-02-05T13:41:09Z</time>
      </trkpt>
      <trkpt lat="43.76422" lon="6.99962">
        <ele>873.9755859</ele>
        <time>2011-02-05T13:41:15Z</time>
      </trkpt>
      <trkpt lat="43.76419" lon="6.99953">
        <ele>874.9370117</ele>
        <time>2011-02-05T13:41:19Z</time>
      </trkpt>
      <trkpt lat="43.76423" lon="6.99947">
        <ele>875.4174805</ele>
        <time>2011-02-05T13:41:23Z</time>
      </trkpt>
      <trkpt lat="43.7643" lon="6.99939">
        <ele>876.3791504</ele>
        <time>2011-02-05T13:41:38Z</time>
      </trkpt>
      <trkpt lat="43.76434" lon="6.99935">
        <ele>876.8598633</ele>
        <time>2011-02-05T13:41:42Z</time>
      </trkpt>
      <trkpt lat="43.76442" lon="6.99924">
        <ele>878.3017578</ele>
        <time>2011-02-05T13:41:54Z</time>
      </trkpt>
      <trkpt lat="43.76454" lon="6.99917">
        <ele>880.7050781</ele>
        <time>2011-02-05T13:42:09Z</time>
      </trkpt>
      <trkpt lat="43.76463" lon="6.9991">
        <ele>882.1469727</ele>
        <time>2011-02-05T13:42:21Z</time>
      </trkpt>
      <trkpt lat="43.76468" lon="6.99906">
        <ele>882.1469727</ele>
        <time>2011-02-05T13:42:37Z</time>
      </trkpt>
      <trkpt lat="43.76469" lon="6.99906">
        <ele>882.1469727</ele>
        <time>2011-02-05T13:43:05Z</time>
      </trkpt>
      <trkpt lat="43.7647" lon="6.99908">
        <ele>882.1469727</ele>
        <time>2011-02-05T13:43:54Z</time>
      </trkpt>
      <trkpt lat="43.7647" lon="6.99911">
        <ele>881.6662598</ele>
        <time>2011-02-05T13:44:49Z</time>
      </trkpt>
      <trkpt lat="43.7647" lon="6.99912">
        <ele>881.185791</ele>
        <time>2011-02-05T13:45:26Z</time>
      </trkpt>
      <trkpt lat="43.76465" lon="6.99913">
        <ele>881.6662598</ele>
        <time>2011-02-05T13:46:16Z</time>
      </trkpt>
      <trkpt lat="43.76464" lon="6.99908">
        <ele>881.185791</ele>
        <time>2011-02-05T13:46:27Z</time>
      </trkpt>
      <trkpt lat="43.76464" lon="6.99904">
        <ele>881.185791</ele>
        <time>2011-02-05T13:46:42Z</time>
      </trkpt>
      <trkpt lat="43.76467" lon="6.99898">
        <ele>880.7050781</ele>
        <time>2011-02-05T13:47:09Z</time>
      </trkpt>
      <trkpt lat="43.76471" lon="6.99902">
        <ele>881.6662598</ele>
        <time>2011-02-05T13:47:44Z</time>
      </trkpt>
      <trkpt lat="43.76473" lon="6.99906">
        <ele>881.185791</ele>
        <time>2011-02-05T13:48:10Z</time>
      </trkpt>
      <trkpt lat="43.76473" lon="6.99906">
        <ele>881.6662598</ele>
        <time>2011-02-05T13:48:31Z</time>
      </trkpt>
      <trkpt lat="43.76473" lon="6.99905">
        <ele>881.6662598</ele>
        <time>2011-02-05T13:48:54Z</time>
      </trkpt>
      <trkpt lat="43.76474" lon="6.99905">
        <ele>881.6662598</ele>
        <time>2011-02-05T13:49:26Z</time>
      </trkpt>
      <trkpt lat="43.76475" lon="6.99905">
        <ele>881.185791</ele>
        <time>2011-02-05T13:50:34Z</time>
      </trkpt>
      <trkpt lat="43.76475" lon="6.99904">
        <ele>881.185791</ele>
        <time>2011-02-05T13:50:58Z</time>
      </trkpt>
      <trkpt lat="43.76474" lon="6.99906">
        <ele>881.185791</ele>
        <time>2011-02-05T13:51:27Z</time>
      </trkpt>
      <trkpt lat="43.76474" lon="6.99906">
        <ele>881.185791</ele>
        <time>2011-02-05T13:51:44Z</time>
      </trkpt>
      <trkpt lat="43.76473" lon="6.99907">
        <ele>880.7050781</ele>
        <time>2011-02-05T13:52:04Z</time>
      </trkpt>
      <trkpt lat="43.76474" lon="6.99906">
        <ele>881.185791</ele>
        <time>2011-02-05T13:52:21Z</time>
      </trkpt>
      <trkpt lat="43.76474" lon="6.99908">
        <ele>880.7050781</ele>
        <time>2011-02-05T13:53:07Z</time>
      </trkpt>
      <trkpt lat="43.76475" lon="6.9991">
        <ele>881.185791</ele>
        <time>2011-02-05T13:53:10Z</time>
      </trkpt>
      <trkpt lat="43.76476" lon="6.99913">
        <ele>880.7050781</ele>
        <time>2011-02-05T13:53:22Z</time>
      </trkpt>
      <trkpt lat="43.76476" lon="6.99914">
        <ele>882.1469727</ele>
        <time>2011-02-05T13:53:26Z</time>
      </trkpt>
      <trkpt lat="43.76493" lon="6.99932">
        <ele>882.1469727</ele>
        <time>2011-02-05T13:53:37Z</time>
      </trkpt>
      <trkpt lat="43.7652" lon="6.99956">
        <ele>882.1469727</ele>
        <time>2011-02-05T13:53:49Z</time>
      </trkpt>
      <trkpt lat="43.76531" lon="6.99954">
        <ele>883.1081543</ele>
        <time>2011-02-05T13:53:55Z</time>
      </trkpt>
      <trkpt lat="43.76552" lon="6.99962">
        <ele>885.0310059</ele>
        <time>2011-02-05T13:54:07Z</time>
      </trkpt>
      <trkpt lat="43.76568" lon="6.99979">
        <ele>888.3955078</ele>
        <time>2011-02-05T13:54:18Z</time>
      </trkpt>
      <trkpt lat="43.76575" lon="6.99987">
        <ele>888.3955078</ele>
        <time>2011-02-05T13:54:23Z</time>
      </trkpt>
      <trkpt lat="43.76579" lon="6.99992">
        <ele>888.8762207</ele>
        <time>2011-02-05T13:54:26Z</time>
      </trkpt>
      <trkpt lat="43.7661" lon="6.99994">
        <ele>889.8374023</ele>
        <time>2011-02-05T13:54:42Z</time>
      </trkpt>
      <trkpt lat="43.76642" lon="6.99982">
        <ele>889.8374023</ele>
        <time>2011-02-05T13:54:54Z</time>
      </trkpt>
      <trkpt lat="43.76663" lon="6.99988">
        <ele>888.8762207</ele>
        <time>2011-02-05T13:55:03Z</time>
      </trkpt>
      <trkpt lat="43.7667" lon="6.99985">
        <ele>888.3955078</ele>
        <time>2011-02-05T13:55:05Z</time>
      </trkpt>
      <trkpt lat="43.76679" lon="6.99981">
        <ele>887.9147949</ele>
        <time>2011-02-05T13:55:08Z</time>
      </trkpt>
      <trkpt lat="43.76683" lon="6.99977">
        <ele>888.3955078</ele>
        <time>2011-02-05T13:55:10Z</time>
      </trkpt>
      <trkpt lat="43.76703" lon="6.99964">
        <ele>886.9533691</ele>
        <time>2011-02-05T13:55:17Z</time>
      </trkpt>
      <trkpt lat="43.7672" lon="6.99948">
        <ele>886.4729004</ele>
        <time>2011-02-05T13:55:23Z</time>
      </trkpt>
      <trkpt lat="43.76726" lon="6.99949">
        <ele>885.5114746</ele>
        <time>2011-02-05T13:55:27Z</time>
      </trkpt>
      <trkpt lat="43.7674" lon="6.99939">
        <ele>885.9921875</ele>
        <time>2011-02-05T13:55:41Z</time>
      </trkpt>
      <trkpt lat="43.76748" lon="6.99931">
        <ele>885.0310059</ele>
        <time>2011-02-05T13:55:46Z</time>
      </trkpt>
      <trkpt lat="43.76755" lon="6.99919">
        <ele>884.0695801</ele>
        <time>2011-02-05T13:55:57Z</time>
      </trkpt>
      <trkpt lat="43.76753" lon="6.99913">
        <ele>883.5888672</ele>
        <time>2011-02-05T13:56:01Z</time>
      </trkpt>
      <trkpt lat="43.76756" lon="6.99895">
        <ele>882.1469727</ele>
        <time>2011-02-05T13:56:12Z</time>
      </trkpt>
      <trkpt lat="43.76756" lon="6.99895">
        <ele>882.1469727</ele>
        <time>2011-02-05T13:57:04Z</time>
      </trkpt>
      <trkpt lat="43.76756" lon="6.99895">
        <ele>881.6662598</ele>
        <time>2011-02-05T13:57:44Z</time>
      </trkpt>
      <trkpt lat="43.76762" lon="6.99884">
        <ele>881.6662598</ele>
        <time>2011-02-05T13:57:48Z</time>
      </trkpt>
      <trkpt lat="43.76777" lon="6.99881">
        <ele>881.6662598</ele>
        <time>2011-02-05T13:57:53Z</time>
      </trkpt>
      <trkpt lat="43.76809" lon="6.99876">
        <ele>883.1081543</ele>
        <time>2011-02-05T13:58:10Z</time>
      </trkpt>
      <trkpt lat="43.76845" lon="6.99863">
        <ele>881.6662598</ele>
        <time>2011-02-05T13:58:23Z</time>
      </trkpt>
      <trkpt lat="43.76884" lon="6.99844">
        <ele>879.2629395</ele>
        <time>2011-02-05T13:58:34Z</time>
      </trkpt>
      <trkpt lat="43.76896" lon="6.99841">
        <ele>879.2629395</ele>
        <time>2011-02-05T13:58:37Z</time>
      </trkpt>
      <trkpt lat="43.76892" lon="6.99822">
        <ele>878.3017578</ele>
        <time>2011-02-05T13:58:45Z</time>
      </trkpt>
      <trkpt lat="43.76884" lon="6.99815">
        <ele>876.8598633</ele>
        <time>2011-02-05T13:58:48Z</time>
      </trkpt>
      <trkpt lat="43.76872" lon="6.99806">
        <ele>876.3791504</ele>
        <time>2011-02-05T13:58:51Z</time>
      </trkpt>
      <trkpt lat="43.76863" lon="6.998">
        <ele>874.9370117</ele>
        <time>2011-02-05T13:58:53Z</time>
      </trkpt>
      <trkpt lat="43.76847" lon="6.99793">
        <ele>872.0529785</ele>
        <time>2011-02-05T13:58:56Z</time>
      </trkpt>
      <trkpt lat="43.76836" lon="6.99789">
        <ele>870.611084</ele>
        <time>2011-02-05T13:58:58Z</time>
      </trkpt>
      <trkpt lat="43.76826" lon="6.99783">
        <ele>869.1691895</ele>
        <time>2011-02-05T13:59:00Z</time>
      </trkpt>
      <trkpt lat="43.76811" lon="6.99775">
        <ele>866.7658691</ele>
        <time>2011-02-05T13:59:03Z</time>
      </trkpt>
      <trkpt lat="43.768" lon="6.99771">
        <ele>864.8432617</ele>
        <time>2011-02-05T13:59:05Z</time>
      </trkpt>
      <trkpt lat="43.76789" lon="6.99767">
        <ele>862.9206543</ele>
        <time>2011-02-05T13:59:07Z</time>
      </trkpt>
      <trkpt lat="43.76784" lon="6.99766">
        <ele>860.9980469</ele>
        <time>2011-02-05T13:59:08Z</time>
      </trkpt>
      <trkpt lat="43.76777" lon="6.9976">
        <ele>859.0751953</ele>
        <time>2011-02-05T13:59:10Z</time>
      </trkpt>
      <trkpt lat="43.7677" lon="6.99753">
        <ele>857.1525879</ele>
        <time>2011-02-05T13:59:12Z</time>
      </trkpt>
      <trkpt lat="43.76757" lon="6.99743">
        <ele>851.3847656</ele>
        <time>2011-02-05T13:59:16Z</time>
      </trkpt>
      <trkpt lat="43.76753" lon="6.99743">
        <ele>851.3847656</ele>
        <time>2011-02-05T13:59:17Z</time>
      </trkpt>
      <trkpt lat="43.76742" lon="6.99744">
        <ele>850.423584</ele>
        <time>2011-02-05T13:59:19Z</time>
      </trkpt>
      <trkpt lat="43.76733" lon="6.99744">
        <ele>848.9814453</ele>
        <time>2011-02-05T13:59:21Z</time>
      </trkpt>
      <trkpt lat="43.76725" lon="6.99738">
        <ele>845.6169434</ele>
        <time>2011-02-05T13:59:23Z</time>
      </trkpt>
      <trkpt lat="43.76714" lon="6.99732">
        <ele>843.6940918</ele>
        <time>2011-02-05T13:59:26Z</time>
      </trkpt>
      <trkpt lat="43.76711" lon="6.9973">
        <ele>842.2521973</ele>
        <time>2011-02-05T13:59:27Z</time>
      </trkpt>
      <trkpt lat="43.76698" lon="6.99724">
        <ele>840.8100586</ele>
        <time>2011-02-05T13:59:30Z</time>
      </trkpt>
      <trkpt lat="43.76684" lon="6.99719">
        <ele>837.9262695</ele>
        <time>2011-02-05T13:59:33Z</time>
      </trkpt>
      <trkpt lat="43.76661" lon="6.99713">
        <ele>835.0424805</ele>
        <time>2011-02-05T13:59:37Z</time>
      </trkpt>
      <trkpt lat="43.76647" lon="6.99706">
        <ele>831.1972656</ele>
        <time>2011-02-05T13:59:40Z</time>
      </trkpt>
      <trkpt lat="43.7664" lon="6.99701">
        <ele>829.2744141</ele>
        <time>2011-02-05T13:59:42Z</time>
      </trkpt>
      <trkpt lat="43.76632" lon="6.99695">
        <ele>827.8322754</ele>
        <time>2011-02-05T13:59:44Z</time>
      </trkpt>
      <trkpt lat="43.76624" lon="6.99687">
        <ele>823.9870605</ele>
        <time>2011-02-05T13:59:46Z</time>
      </trkpt>
      <trkpt lat="43.7662" lon="6.99683">
        <ele>823.9870605</ele>
        <time>2011-02-05T13:59:47Z</time>
      </trkpt>
      <trkpt lat="43.76614" lon="6.99674">
        <ele>822.0644531</ele>
        <time>2011-02-05T13:59:49Z</time>
      </trkpt>
      <trkpt lat="43.7661" lon="6.99668">
        <ele>820.1418457</ele>
        <time>2011-02-05T13:59:51Z</time>
      </trkpt>
      <trkpt lat="43.76608" lon="6.99662">
        <ele>818.6999512</ele>
        <time>2011-02-05T13:59:52Z</time>
      </trkpt>
      <trkpt lat="43.76606" lon="6.99654">
        <ele>816.7773438</ele>
        <time>2011-02-05T13:59:54Z</time>
      </trkpt>
      <trkpt lat="43.76603" lon="6.99645">
        <ele>815.3354492</ele>
        <time>2011-02-05T13:59:56Z</time>
      </trkpt>
      <trkpt lat="43.76582" lon="6.99624">
        <ele>813.4128418</ele>
        <time>2011-02-05T13:59:58Z</time>
      </trkpt>
      <trkpt lat="43.76569" lon="6.99621">
        <ele>810.0478516</ele>
        <time>2011-02-05T14:00:01Z</time>
      </trkpt>
      <trkpt lat="43.76559" lon="6.99621">
        <ele>808.605957</ele>
        <time>2011-02-05T14:00:03Z</time>
      </trkpt>
      <trkpt lat="43.7655" lon="6.99621">
        <ele>807.1640625</ele>
        <time>2011-02-05T14:00:05Z</time>
      </trkpt>
      <trkpt lat="43.76544" lon="6.99618">
        <ele>805.722168</ele>
        <time>2011-02-05T14:00:06Z</time>
      </trkpt>
      <trkpt lat="43.76539" lon="6.99606">
        <ele>804.2802734</ele>
        <time>2011-02-05T14:00:08Z</time>
      </trkpt>
      <trkpt lat="43.76539" lon="6.99599">
        <ele>802.3574219</ele>
        <time>2011-02-05T14:00:10Z</time>
      </trkpt>
      <trkpt lat="43.7653" lon="6.99578">
        <ele>799.9543457</ele>
        <time>2011-02-05T14:00:14Z</time>
      </trkpt>
      <trkpt lat="43.76512" lon="6.9959">
        <ele>797.0703125</ele>
        <time>2011-02-05T14:00:16Z</time>
      </trkpt>
      <trkpt lat="43.7651" lon="6.99589">
        <ele>797.0703125</ele>
        <time>2011-02-05T14:00:17Z</time>
      </trkpt>
      <trkpt lat="43.76511" lon="6.99584">
        <ele>796.5898438</ele>
        <time>2011-02-05T14:00:19Z</time>
      </trkpt>
      <trkpt lat="43.76528" lon="6.99581">
        <ele>793.2248535</ele>
        <time>2011-02-05T14:00:26Z</time>
      </trkpt>
      <trkpt lat="43.76527" lon="6.99569">
        <ele>789.3796387</ele>
        <time>2011-02-05T14:00:31Z</time>
      </trkpt>
      <trkpt lat="43.76531" lon="6.99565">
        <ele>788.418457</ele>
        <time>2011-02-05T14:00:33Z</time>
      </trkpt>
      <trkpt lat="43.76546" lon="6.99558">
        <ele>785.0539551</ele>
        <time>2011-02-05T14:00:38Z</time>
      </trkpt>
      <trkpt lat="43.76551" lon="6.99554">
        <ele>783.6118164</ele>
        <time>2011-02-05T14:00:40Z</time>
      </trkpt>
      <trkpt lat="43.7656" lon="6.99554">
        <ele>782.6506348</ele>
        <time>2011-02-05T14:00:42Z</time>
      </trkpt>
      <trkpt lat="43.76567" lon="6.99548">
        <ele>779.7663574</ele>
        <time>2011-02-05T14:00:44Z</time>
      </trkpt>
      <trkpt lat="43.76559" lon="6.99539">
        <ele>778.8051758</ele>
        <time>2011-02-05T14:00:48Z</time>
      </trkpt>
      <trkpt lat="43.76549" lon="6.99534">
        <ele>776.8825684</ele>
        <time>2011-02-05T14:00:52Z</time>
      </trkpt>
      <trkpt lat="43.76541" lon="6.9953">
        <ele>773.9985352</ele>
        <time>2011-02-05T14:01:05Z</time>
      </trkpt>
      <trkpt lat="43.76539" lon="6.99527">
        <ele>773.0373535</ele>
        <time>2011-02-05T14:01:07Z</time>
      </trkpt>
      <trkpt lat="43.76537" lon="6.99519">
        <ele>771.1147461</ele>
        <time>2011-02-05T14:01:17Z</time>
      </trkpt>
      <trkpt lat="43.76538" lon="6.99514">
        <ele>770.1533203</ele>
        <time>2011-02-05T14:01:29Z</time>
      </trkpt>
      <trkpt lat="43.76538" lon="6.99515">
        <ele>771.5952148</ele>
        <time>2011-02-05T14:01:42Z</time>
      </trkpt>
      <trkpt lat="43.76541" lon="6.99513">
        <ele>770.1533203</ele>
        <time>2011-02-05T14:02:08Z</time>
      </trkpt>
      <trkpt lat="43.76542" lon="6.9951">
        <ele>769.1921387</ele>
        <time>2011-02-05T14:02:24Z</time>
      </trkpt>
      <trkpt lat="43.76542" lon="6.9951">
        <ele>769.6728516</ele>
        <time>2011-02-05T14:04:51Z</time>
      </trkpt>
      <trkpt lat="43.76542" lon="6.9951">
        <ele>769.6728516</ele>
        <time>2011-02-05T14:06:43Z</time>
      </trkpt>
      <trkpt lat="43.7654" lon="6.99517">
        <ele>771.5952148</ele>
        <time>2011-02-05T14:06:58Z</time>
      </trkpt>
      <trkpt lat="43.76539" lon="6.99514">
        <ele>770.1533203</ele>
        <time>2011-02-05T14:07:02Z</time>
      </trkpt>
      <trkpt lat="43.76538" lon="6.99514">
        <ele>769.6728516</ele>
        <time>2011-02-05T14:07:05Z</time>
      </trkpt>
      <trkpt lat="43.76535" lon="6.99508">
        <ele>768.2307129</ele>
        <time>2011-02-05T14:07:10Z</time>
      </trkpt>
      <trkpt lat="43.76536" lon="6.99508">
        <ele>767.75</ele>
        <time>2011-02-05T14:07:52Z</time>
      </trkpt>
      <trkpt lat="43.76525" lon="6.99498">
        <ele>764.8662109</ele>
        <time>2011-02-05T14:08:02Z</time>
      </trkpt>
      <trkpt lat="43.76514" lon="6.99488">
        <ele>761.5014648</ele>
        <time>2011-02-05T14:08:12Z</time>
      </trkpt>
      <trkpt lat="43.76514" lon="6.99488">
        <ele>761.5014648</ele>
        <time>2011-02-05T14:08:41Z</time>
      </trkpt>
      <trkpt lat="43.76507" lon="6.99477">
        <ele>759.0981445</ele>
        <time>2011-02-05T14:08:47Z</time>
      </trkpt>
      <trkpt lat="43.76503" lon="6.99472">
        <ele>757.65625</ele>
        <time>2011-02-05T14:08:51Z</time>
      </trkpt>
      <trkpt lat="43.7652" lon="6.99462">
        <ele>752.8496094</ele>
        <time>2011-02-05T14:08:59Z</time>
      </trkpt>
      <trkpt lat="43.76525" lon="6.99467">
        <ele>751.4077148</ele>
        <time>2011-02-05T14:09:01Z</time>
      </trkpt>
      <trkpt lat="43.76536" lon="6.99473">
        <ele>749.9658203</ele>
        <time>2011-02-05T14:09:04Z</time>
      </trkpt>
      <trkpt lat="43.76543" lon="6.99477">
        <ele>748.0432129</ele>
        <time>2011-02-05T14:09:06Z</time>
      </trkpt>
      <trkpt lat="43.76553" lon="6.99441">
        <ele>744.6782227</ele>
        <time>2011-02-05T14:09:08Z</time>
      </trkpt>
      <trkpt lat="43.76557" lon="6.99441">
        <ele>744.6782227</ele>
        <time>2011-02-05T14:09:09Z</time>
      </trkpt>
      <trkpt lat="43.76565" lon="6.99439">
        <ele>742.7558594</ele>
        <time>2011-02-05T14:09:18Z</time>
      </trkpt>
      <trkpt lat="43.76576" lon="6.99428">
        <ele>740.8330078</ele>
        <time>2011-02-05T14:09:25Z</time>
      </trkpt>
      <trkpt lat="43.76568" lon="6.99425">
        <ele>738.9106445</ele>
        <time>2011-02-05T14:09:29Z</time>
      </trkpt>
      <trkpt lat="43.76548" lon="6.99415">
        <ele>737.4685059</ele>
        <time>2011-02-05T14:09:35Z</time>
      </trkpt>
      <trkpt lat="43.76542" lon="6.99412">
        <ele>736.5073242</ele>
        <time>2011-02-05T14:09:37Z</time>
      </trkpt>
      <trkpt lat="43.7653" lon="6.99406">
        <ele>733.623291</ele>
        <time>2011-02-05T14:09:41Z</time>
      </trkpt>
      <trkpt lat="43.76522" lon="6.99401">
        <ele>731.7004395</ele>
        <time>2011-02-05T14:09:44Z</time>
      </trkpt>
      <trkpt lat="43.76519" lon="6.99399">
        <ele>730.7392578</ele>
        <time>2011-02-05T14:09:46Z</time>
      </trkpt>
      <trkpt lat="43.76519" lon="6.99399">
        <ele>728.8166504</ele>
        <time>2011-02-05T14:09:48Z</time>
      </trkpt>
      <trkpt lat="43.76517" lon="6.99396">
        <ele>729.2971191</ele>
        <time>2011-02-05T14:10:01Z</time>
      </trkpt>
      <trkpt lat="43.76515" lon="6.99394">
        <ele>727.3747559</ele>
        <time>2011-02-05T14:10:05Z</time>
      </trkpt>
      <trkpt lat="43.7652" lon="6.99392">
        <ele>724.9714355</ele>
        <time>2011-02-05T14:10:10Z</time>
      </trkpt>
      <trkpt lat="43.76532" lon="6.99389">
        <ele>722.0874023</ele>
        <time>2011-02-05T14:10:13Z</time>
      </trkpt>
      <trkpt lat="43.76552" lon="6.99366">
        <ele>720.1647949</ele>
        <time>2011-02-05T14:10:16Z</time>
      </trkpt>
      <trkpt lat="43.76551" lon="6.99363">
        <ele>717.2810059</ele>
        <time>2011-02-05T14:10:18Z</time>
      </trkpt>
      <trkpt lat="43.76557" lon="6.99359">
        <ele>714.8774414</ele>
        <time>2011-02-05T14:10:21Z</time>
      </trkpt>
      <trkpt lat="43.76553" lon="6.9936">
        <ele>712.954834</ele>
        <time>2011-02-05T14:10:29Z</time>
      </trkpt>
      <trkpt lat="43.76541" lon="6.99354">
        <ele>711.0322266</ele>
        <time>2011-02-05T14:10:37Z</time>
      </trkpt>
      <trkpt lat="43.76552" lon="6.99361">
        <ele>710.5515137</ele>
        <time>2011-02-05T14:10:40Z</time>
      </trkpt>
      <trkpt lat="43.76556" lon="6.99361">
        <ele>708.1484375</ele>
        <time>2011-02-05T14:10:44Z</time>
      </trkpt>
      <trkpt lat="43.76556" lon="6.99361">
        <ele>707.1870117</ele>
        <time>2011-02-05T14:10:52Z</time>
      </trkpt>
      <trkpt lat="43.76566" lon="6.99344">
        <ele>706.2255859</ele>
        <time>2011-02-05T14:11:04Z</time>
      </trkpt>
      <trkpt lat="43.7657" lon="6.99348">
        <ele>705.7451172</ele>
        <time>2011-02-05T14:11:15Z</time>
      </trkpt>
      <trkpt lat="43.76568" lon="6.99344">
        <ele>705.2644043</ele>
        <time>2011-02-05T14:11:17Z</time>
      </trkpt>
      <trkpt lat="43.76563" lon="6.99341">
        <ele>703.8225098</ele>
        <time>2011-02-05T14:11:20Z</time>
      </trkpt>
      <trkpt lat="43.76556" lon="6.99331">
        <ele>701.8999023</ele>
        <time>2011-02-05T14:11:28Z</time>
      </trkpt>
      <trkpt lat="43.76556" lon="6.9933">
        <ele>701.8999023</ele>
        <time>2011-02-05T14:11:33Z</time>
      </trkpt>
      <trkpt lat="43.7655" lon="6.99323">
        <ele>701.8999023</ele>
        <time>2011-02-05T14:11:37Z</time>
      </trkpt>
      <trkpt lat="43.76542" lon="6.99316">
        <ele>700.4580078</ele>
        <time>2011-02-05T14:11:39Z</time>
      </trkpt>
      <trkpt lat="43.76534" lon="6.9931">
        <ele>699.015625</ele>
        <time>2011-02-05T14:11:41Z</time>
      </trkpt>
      <trkpt lat="43.76527" lon="6.99305">
        <ele>697.0930176</ele>
        <time>2011-02-05T14:11:43Z</time>
      </trkpt>
      <trkpt lat="43.76523" lon="6.99302">
        <ele>693.7285156</ele>
        <time>2011-02-05T14:11:45Z</time>
      </trkpt>
      <trkpt lat="43.76519" lon="6.99299">
        <ele>693.7285156</ele>
        <time>2011-02-05T14:11:46Z</time>
      </trkpt>
      <trkpt lat="43.76503" lon="6.99288">
        <ele>690.8444824</ele>
        <time>2011-02-05T14:11:50Z</time>
      </trkpt>
      <trkpt lat="43.76497" lon="6.99283">
        <ele>686.9992676</ele>
        <time>2011-02-05T14:11:52Z</time>
      </trkpt>
      <trkpt lat="43.76494" lon="6.9928">
        <ele>686.9992676</ele>
        <time>2011-02-05T14:11:53Z</time>
      </trkpt>
      <trkpt lat="43.76482" lon="6.99294">
        <ele>685.0769043</ele>
        <time>2011-02-05T14:11:55Z</time>
      </trkpt>
      <trkpt lat="43.76476" lon="6.99292">
        <ele>683.6345215</ele>
        <time>2011-02-05T14:11:57Z</time>
      </trkpt>
      <trkpt lat="43.7647" lon="6.99289">
        <ele>679.7893066</ele>
        <time>2011-02-05T14:11:59Z</time>
      </trkpt>
      <trkpt lat="43.76468" lon="6.99287">
        <ele>679.7893066</ele>
        <time>2011-02-05T14:12:00Z</time>
      </trkpt>
      <trkpt lat="43.76465" lon="6.99285">
        <ele>678.3474121</ele>
        <time>2011-02-05T14:12:02Z</time>
      </trkpt>
      <trkpt lat="43.76471" lon="6.99278">
        <ele>676.9055176</ele>
        <time>2011-02-05T14:12:05Z</time>
      </trkpt>
      <trkpt lat="43.76485" lon="6.99256">
        <ele>674.0214844</ele>
        <time>2011-02-05T14:12:08Z</time>
      </trkpt>
      <trkpt lat="43.76479" lon="6.99264">
        <ele>672.5795898</ele>
        <time>2011-02-05T14:12:11Z</time>
      </trkpt>
      <trkpt lat="43.76476" lon="6.99257">
        <ele>670.6569824</ele>
        <time>2011-02-05T14:12:13Z</time>
      </trkpt>
      <trkpt lat="43.76472" lon="6.9925">
        <ele>666.3308105</ele>
        <time>2011-02-05T14:12:15Z</time>
      </trkpt>
      <trkpt lat="43.7647" lon="6.99247">
        <ele>666.3308105</ele>
        <time>2011-02-05T14:12:16Z</time>
      </trkpt>
      <trkpt lat="43.76462" lon="6.99243">
        <ele>663.9274902</ele>
        <time>2011-02-05T14:12:18Z</time>
      </trkpt>
      <trkpt lat="43.76455" lon="6.99241">
        <ele>662.005127</ele>
        <time>2011-02-05T14:12:20Z</time>
      </trkpt>
      <trkpt lat="43.76456" lon="6.99236">
        <ele>660.0822754</ele>
        <time>2011-02-05T14:12:23Z</time>
      </trkpt>
      <trkpt lat="43.76462" lon="6.9923">
        <ele>659.1210938</ele>
        <time>2011-02-05T14:12:25Z</time>
      </trkpt>
      <trkpt lat="43.76465" lon="6.99227">
        <ele>657.6791992</ele>
        <time>2011-02-05T14:12:26Z</time>
      </trkpt>
      <trkpt lat="43.76469" lon="6.99217">
        <ele>654.3146973</ele>
        <time>2011-02-05T14:12:29Z</time>
      </trkpt>
      <trkpt lat="43.76471" lon="6.99213">
        <ele>654.3146973</ele>
        <time>2011-02-05T14:12:30Z</time>
      </trkpt>
      <trkpt lat="43.76475" lon="6.99207">
        <ele>651.4304199</ele>
        <time>2011-02-05T14:12:32Z</time>
      </trkpt>
      <trkpt lat="43.76476" lon="6.99205">
        <ele>649.5078125</ele>
        <time>2011-02-05T14:12:33Z</time>
      </trkpt>
      <trkpt lat="43.76471" lon="6.99187">
        <ele>645.6625977</ele>
        <time>2011-02-05T14:12:36Z</time>
      </trkpt>
      <trkpt lat="43.76472" lon="6.99184">
        <ele>645.6625977</ele>
        <time>2011-02-05T14:12:37Z</time>
      </trkpt>
      <trkpt lat="43.76471" lon="6.99177">
        <ele>643.2592773</ele>
        <time>2011-02-05T14:12:39Z</time>
      </trkpt>
      <trkpt lat="43.76471" lon="6.99174">
        <ele>640.855957</ele>
        <time>2011-02-05T14:12:40Z</time>
      </trkpt>
      <trkpt lat="43.76466" lon="6.99172">
        <ele>638.4528809</ele>
        <time>2011-02-05T14:12:43Z</time>
      </trkpt>
      <trkpt lat="43.76462" lon="6.99167">
        <ele>637.0107422</ele>
        <time>2011-02-05T14:12:47Z</time>
      </trkpt>
      <trkpt lat="43.76464" lon="6.99164">
        <ele>636.0495605</ele>
        <time>2011-02-05T14:13:07Z</time>
      </trkpt>
      <trkpt lat="43.76464" lon="6.99161">
        <ele>635.0881348</ele>
        <time>2011-02-05T14:13:22Z</time>
      </trkpt>
      <trkpt lat="43.76468" lon="6.99151">
        <ele>634.126709</ele>
        <time>2011-02-05T14:13:28Z</time>
      </trkpt>
      <trkpt lat="43.76467" lon="6.99144">
        <ele>632.6848145</ele>
        <time>2011-02-05T14:13:32Z</time>
      </trkpt>
      <trkpt lat="43.76476" lon="6.99132">
        <ele>632.2041016</ele>
        <time>2011-02-05T14:13:36Z</time>
      </trkpt>
      <trkpt lat="43.76481" lon="6.99133">
        <ele>631.7233887</ele>
        <time>2011-02-05T14:13:38Z</time>
      </trkpt>
      <trkpt lat="43.76483" lon="6.99132">
        <ele>630.762207</ele>
        <time>2011-02-05T14:13:40Z</time>
      </trkpt>
      <trkpt lat="43.76477" lon="6.99134">
        <ele>630.762207</ele>
        <time>2011-02-05T14:13:42Z</time>
      </trkpt>
      <trkpt lat="43.76471" lon="6.99132">
        <ele>629.3200684</ele>
        <time>2011-02-05T14:13:44Z</time>
      </trkpt>
      <trkpt lat="43.76467" lon="6.99131">
        <ele>627.3977051</ele>
        <time>2011-02-05T14:13:46Z</time>
      </trkpt>
      <trkpt lat="43.76462" lon="6.9913">
        <ele>624.9943848</ele>
        <time>2011-02-05T14:13:48Z</time>
      </trkpt>
      <trkpt lat="43.76453" lon="6.99128">
        <ele>623.0717773</ele>
        <time>2011-02-05T14:13:51Z</time>
      </trkpt>
      <trkpt lat="43.76452" lon="6.99128">
        <ele>622.1103516</ele>
        <time>2011-02-05T14:13:52Z</time>
      </trkpt>
      <trkpt lat="43.76446" lon="6.99127">
        <ele>620.668457</ele>
        <time>2011-02-05T14:13:55Z</time>
      </trkpt>
      <trkpt lat="43.76444" lon="6.99126">
        <ele>618.2648926</ele>
        <time>2011-02-05T14:13:56Z</time>
      </trkpt>
      <trkpt lat="43.7644" lon="6.99126">
        <ele>617.3037109</ele>
        <time>2011-02-05T14:13:58Z</time>
      </trkpt>
      <trkpt lat="43.76437" lon="6.99124">
        <ele>615.8618164</ele>
        <time>2011-02-05T14:14:00Z</time>
      </trkpt>
      <trkpt lat="43.76436" lon="6.99123">
        <ele>614.4196777</ele>
        <time>2011-02-05T14:14:02Z</time>
      </trkpt>
      <trkpt lat="43.76436" lon="6.99123">
        <ele>612.9777832</ele>
        <time>2011-02-05T14:14:04Z</time>
      </trkpt>
      <trkpt lat="43.7643" lon="6.99108">
        <ele>610.5744629</ele>
        <time>2011-02-05T14:14:09Z</time>
      </trkpt>
      <trkpt lat="43.76425" lon="6.99102">
        <ele>607.6906738</ele>
        <time>2011-02-05T14:14:12Z</time>
      </trkpt>
      <trkpt lat="43.7642" lon="6.99101">
        <ele>604.8066406</ele>
        <time>2011-02-05T14:14:24Z</time>
      </trkpt>
      <trkpt lat="43.76422" lon="6.99098">
        <ele>605.2873535</ele>
        <time>2011-02-05T14:14:46Z</time>
      </trkpt>
      <trkpt lat="43.76424" lon="6.99096">
        <ele>604.3261719</ele>
        <time>2011-02-05T14:14:49Z</time>
      </trkpt>
      <trkpt lat="43.76426" lon="6.99099">
        <ele>605.2873535</ele>
        <time>2011-02-05T14:14:58Z</time>
      </trkpt>
      <trkpt lat="43.76427" lon="6.99098">
        <ele>604.3261719</ele>
        <time>2011-02-05T14:16:16Z</time>
      </trkpt>
      <trkpt lat="43.76427" lon="6.99088">
        <ele>603.8452148</ele>
        <time>2011-02-05T14:16:28Z</time>
      </trkpt>
      <trkpt lat="43.76427" lon="6.99087">
        <ele>602.8837891</ele>
        <time>2011-02-05T14:16:35Z</time>
      </trkpt>
      <trkpt lat="43.76433" lon="6.99072">
        <ele>600.9611816</ele>
        <time>2011-02-05T14:16:40Z</time>
      </trkpt>
      <trkpt lat="43.76429" lon="6.99062">
        <ele>598.5578613</ele>
        <time>2011-02-05T14:16:45Z</time>
      </trkpt>
      <trkpt lat="43.76427" lon="6.99047">
        <ele>596.635498</ele>
        <time>2011-02-05T14:16:47Z</time>
      </trkpt>
      <trkpt lat="43.76432" lon="6.99038">
        <ele>593.270752</ele>
        <time>2011-02-05T14:16:49Z</time>
      </trkpt>
      <trkpt lat="43.76421" lon="6.99038">
        <ele>589.90625</ele>
        <time>2011-02-05T14:16:55Z</time>
      </trkpt>
      <trkpt lat="43.76418" lon="6.99037">
        <ele>588.4643555</ele>
        <time>2011-02-05T14:16:57Z</time>
      </trkpt>
      <trkpt lat="43.76416" lon="6.99034">
        <ele>587.9833984</ele>
        <time>2011-02-05T14:16:59Z</time>
      </trkpt>
      <trkpt lat="43.76404" lon="6.99034">
        <ele>585.5800781</ele>
        <time>2011-02-05T14:17:03Z</time>
      </trkpt>
      <trkpt lat="43.76398" lon="6.99041">
        <ele>582.2155762</ele>
        <time>2011-02-05T14:17:06Z</time>
      </trkpt>
      <trkpt lat="43.76394" lon="6.99046">
        <ele>580.7736816</ele>
        <time>2011-02-05T14:17:08Z</time>
      </trkpt>
      <trkpt lat="43.76391" lon="6.99051">
        <ele>579.331543</ele>
        <time>2011-02-05T14:17:10Z</time>
      </trkpt>
      <trkpt lat="43.76389" lon="6.99053">
        <ele>577.8896484</ele>
        <time>2011-02-05T14:17:11Z</time>
      </trkpt>
      <trkpt lat="43.76386" lon="6.99054">
        <ele>575.967041</ele>
        <time>2011-02-05T14:17:13Z</time>
      </trkpt>
      <trkpt lat="43.76382" lon="6.99046">
        <ele>574.5251465</ele>
        <time>2011-02-05T14:17:16Z</time>
      </trkpt>
      <trkpt lat="43.7638" lon="6.99039">
        <ele>573.083252</ele>
        <time>2011-02-05T14:17:18Z</time>
      </trkpt>
      <trkpt lat="43.76379" lon="6.99034">
        <ele>572.1218262</ele>
        <time>2011-02-05T14:17:20Z</time>
      </trkpt>
      <trkpt lat="43.76379" lon="6.99024">
        <ele>569.237793</ele>
        <time>2011-02-05T14:17:26Z</time>
      </trkpt>
      <trkpt lat="43.76381" lon="6.99015">
        <ele>567.3151855</ele>
        <time>2011-02-05T14:17:30Z</time>
      </trkpt>
      <trkpt lat="43.76383" lon="6.99001">
        <ele>565.3925781</ele>
        <time>2011-02-05T14:17:34Z</time>
      </trkpt>
      <trkpt lat="43.76385" lon="6.98996">
        <ele>563.9504395</ele>
        <time>2011-02-05T14:17:36Z</time>
      </trkpt>
      <trkpt lat="43.76383" lon="6.98995">
        <ele>562.9892578</ele>
        <time>2011-02-05T14:17:38Z</time>
      </trkpt>
      <trkpt lat="43.76382" lon="6.98993">
        <ele>562.0280762</ele>
        <time>2011-02-05T14:17:40Z</time>
      </trkpt>
      <trkpt lat="43.76379" lon="6.9899">
        <ele>560.5859375</ele>
        <time>2011-02-05T14:17:43Z</time>
      </trkpt>
      <trkpt lat="43.76371" lon="6.99002">
        <ele>559.144043</ele>
        <time>2011-02-05T14:17:47Z</time>
      </trkpt>
      <trkpt lat="43.76362" lon="6.9897">
        <ele>556.2600098</ele>
        <time>2011-02-05T14:17:50Z</time>
      </trkpt>
      <trkpt lat="43.76369" lon="6.9899">
        <ele>554.8178711</ele>
        <time>2011-02-05T14:17:57Z</time>
      </trkpt>
      <trkpt lat="43.76368" lon="6.9899">
        <ele>554.3374023</ele>
        <time>2011-02-05T14:18:04Z</time>
      </trkpt>
      <trkpt lat="43.76364" lon="6.98996">
        <ele>553.8566895</ele>
        <time>2011-02-05T14:18:08Z</time>
      </trkpt>
      <trkpt lat="43.76358" lon="6.98995">
        <ele>550.9726563</ele>
        <time>2011-02-05T14:18:11Z</time>
      </trkpt>
      <trkpt lat="43.76349" lon="6.98998">
        <ele>549.5307617</ele>
        <time>2011-02-05T14:18:13Z</time>
      </trkpt>
      <trkpt lat="43.76345" lon="6.99002">
        <ele>548.0888672</ele>
        <time>2011-02-05T14:18:14Z</time>
      </trkpt>
      <trkpt lat="43.7634" lon="6.99006">
        <ele>544.7242432</ele>
        <time>2011-02-05T14:18:17Z</time>
      </trkpt>
      <trkpt lat="43.7634" lon="6.99006">
        <ele>544.7242432</ele>
        <time>2011-02-05T14:18:18Z</time>
      </trkpt>
      <trkpt lat="43.7634" lon="6.99006">
        <ele>544.7242432</ele>
        <time>2011-02-05T14:18:42Z</time>
      </trkpt>
      <trkpt lat="43.7634" lon="6.99006">
        <ele>544.2436523</ele>
        <time>2011-02-05T14:18:44Z</time>
      </trkpt>
      <trkpt lat="43.76337" lon="6.99007">
        <ele>544.2436523</ele>
        <time>2011-02-05T14:18:46Z</time>
      </trkpt>
      <trkpt lat="43.76332" lon="6.99016">
        <ele>539.9176025</ele>
        <time>2011-02-05T14:18:49Z</time>
      </trkpt>
      <trkpt lat="43.76331" lon="6.99016">
        <ele>539.9176025</ele>
        <time>2011-02-05T14:18:50Z</time>
      </trkpt>
      <trkpt lat="43.76326" lon="6.99027">
        <ele>537.9949951</ele>
        <time>2011-02-05T14:19:03Z</time>
      </trkpt>
      <trkpt lat="43.76324" lon="6.99025">
        <ele>538.475708</ele>
        <time>2011-02-05T14:19:26Z</time>
      </trkpt>
      <trkpt lat="43.76327" lon="6.99023">
        <ele>538.475708</ele>
        <time>2011-02-05T14:19:32Z</time>
      </trkpt>
      <trkpt lat="43.76328" lon="6.99017">
        <ele>538.9562988</ele>
        <time>2011-02-05T14:19:43Z</time>
      </trkpt>
      <trkpt lat="43.76329" lon="6.99017">
        <ele>537.9949951</ele>
        <time>2011-02-05T14:20:26Z</time>
      </trkpt>
      <trkpt lat="43.76331" lon="6.99023">
        <ele>538.475708</ele>
        <time>2011-02-05T14:20:45Z</time>
      </trkpt>
      <trkpt lat="43.76327" lon="6.99029">
        <ele>537.9949951</ele>
        <time>2011-02-05T14:21:01Z</time>
      </trkpt>
      <trkpt lat="43.76325" lon="6.9903">
        <ele>537.9949951</ele>
        <time>2011-02-05T14:21:54Z</time>
      </trkpt>
      <trkpt lat="43.76324" lon="6.9903">
        <ele>537.5142822</ele>
        <time>2011-02-05T14:21:57Z</time>
      </trkpt>
      <trkpt lat="43.76322" lon="6.99046">
        <ele>537.5142822</ele>
        <time>2011-02-05T14:22:02Z</time>
      </trkpt>
      <trkpt lat="43.76312" lon="6.99062">
        <ele>535.5915527</ele>
        <time>2011-02-05T14:22:06Z</time>
      </trkpt>
      <trkpt lat="43.76309" lon="6.99067">
        <ele>533.1883545</ele>
        <time>2011-02-05T14:22:08Z</time>
      </trkpt>
      <trkpt lat="43.76309" lon="6.99067">
        <ele>532.2270508</ele>
        <time>2011-02-05T14:22:11Z</time>
      </trkpt>
      <trkpt lat="43.76304" lon="6.99072">
        <ele>530.3044434</ele>
        <time>2011-02-05T14:22:25Z</time>
      </trkpt>
      <trkpt lat="43.76304" lon="6.99072">
        <ele>530.3044434</ele>
        <time>2011-02-05T14:23:46Z</time>
      </trkpt>
      <trkpt lat="43.76294" lon="6.99076">
        <ele>529.8237305</ele>
        <time>2011-02-05T14:23:51Z</time>
      </trkpt>
      <trkpt lat="43.76282" lon="6.99101">
        <ele>530.7851563</ele>
        <time>2011-02-05T14:23:59Z</time>
      </trkpt>
      <trkpt lat="43.76267" lon="6.99127">
        <ele>532.7077637</ele>
        <time>2011-02-05T14:24:13Z</time>
      </trkpt>
      <trkpt lat="43.76267" lon="6.99127">
        <ele>532.7077637</ele>
        <time>2011-02-05T14:24:14Z</time>
      </trkpt>
      <trkpt lat="43.76258" lon="6.99138">
        <ele>534.1496582</ele>
        <time>2011-02-05T14:24:20Z</time>
      </trkpt>
      <trkpt lat="43.76256" lon="6.9914">
        <ele>534.6303711</ele>
        <time>2011-02-05T14:24:22Z</time>
      </trkpt>
      <trkpt lat="43.76252" lon="6.99144">
        <ele>535.5915527</ele>
        <time>2011-02-05T14:24:25Z</time>
      </trkpt>
      <trkpt lat="43.7625" lon="6.99146">
        <ele>535.5915527</ele>
        <time>2011-02-05T14:24:27Z</time>
      </trkpt>
      <trkpt lat="43.76247" lon="6.99149">
        <ele>536.5531006</ele>
        <time>2011-02-05T14:24:30Z</time>
      </trkpt>
      <trkpt lat="43.76222" lon="6.99177">
        <ele>538.475708</ele>
        <time>2011-02-05T14:24:47Z</time>
      </trkpt>
      <trkpt lat="43.76191" lon="6.99207">
        <ele>537.5142822</ele>
        <time>2011-02-05T14:24:59Z</time>
      </trkpt>
      <trkpt lat="43.76178" lon="6.99221">
        <ele>538.9562988</ele>
        <time>2011-02-05T14:25:07Z</time>
      </trkpt>
      <trkpt lat="43.76174" lon="6.99237">
        <ele>540.8789063</ele>
        <time>2011-02-05T14:25:15Z</time>
      </trkpt>
      <trkpt lat="43.76169" lon="6.99253">
        <ele>543.7628174</ele>
        <time>2011-02-05T14:25:27Z</time>
      </trkpt>
      <trkpt lat="43.76167" lon="6.9926">
        <ele>547.1274414</ele>
        <time>2011-02-05T14:25:40Z</time>
      </trkpt>
      <trkpt lat="43.76149" lon="6.99278">
        <ele>548.0888672</ele>
        <time>2011-02-05T14:25:45Z</time>
      </trkpt>
      <trkpt lat="43.76148" lon="6.99279">
        <ele>551.4533691</ele>
        <time>2011-02-05T14:25:59Z</time>
      </trkpt>
      <trkpt lat="43.76118" lon="6.99296">
        <ele>554.8178711</ele>
        <time>2011-02-05T14:26:12Z</time>
      </trkpt>
      <trkpt lat="43.76112" lon="6.99299">
        <ele>557.2214355</ele>
        <time>2011-02-05T14:26:25Z</time>
      </trkpt>
      <trkpt lat="43.76091" lon="6.99308">
        <ele>560.1052246</ele>
        <time>2011-02-05T14:26:33Z</time>
      </trkpt>
      <trkpt lat="43.76078" lon="6.99312">
        <ele>562.0280762</ele>
        <time>2011-02-05T14:26:47Z</time>
      </trkpt>
      <trkpt lat="43.76078" lon="6.99312">
        <ele>563.4699707</ele>
        <time>2011-02-05T14:27:02Z</time>
      </trkpt>
      <trkpt lat="43.76078" lon="6.99312">
        <ele>563.4699707</ele>
        <time>2011-02-05T14:27:07Z</time>
      </trkpt>
      <trkpt lat="43.7606" lon="6.99316">
        <ele>565.873291</ele>
        <time>2011-02-05T14:27:20Z</time>
      </trkpt>
      <trkpt lat="43.7606" lon="6.99316">
        <ele>567.3151855</ele>
        <time>2011-02-05T14:27:29Z</time>
      </trkpt>
      <trkpt lat="43.76042" lon="6.99321">
        <ele>570.6796875</ele>
        <time>2011-02-05T14:27:44Z</time>
      </trkpt>
      <trkpt lat="43.76042" lon="6.99321">
        <ele>571.1604004</ele>
        <time>2011-02-05T14:27:52Z</time>
      </trkpt>
      <trkpt lat="43.76028" lon="6.99331">
        <ele>572.6025391</ele>
        <time>2011-02-05T14:27:57Z</time>
      </trkpt>
      <trkpt lat="43.76025" lon="6.99335">
        <ele>573.083252</ele>
        <time>2011-02-05T14:28:01Z</time>
      </trkpt>
      <trkpt lat="43.76002" lon="6.99339">
        <ele>575.4863281</ele>
        <time>2011-02-05T14:28:14Z</time>
      </trkpt>
      <trkpt lat="43.75995" lon="6.99337">
        <ele>575.4863281</ele>
        <time>2011-02-05T14:28:18Z</time>
      </trkpt>
      <trkpt lat="43.75985" lon="6.9933">
        <ele>578.3703613</ele>
        <time>2011-02-05T14:28:27Z</time>
      </trkpt>
      <trkpt lat="43.75974" lon="6.99327">
        <ele>579.331543</ele>
        <time>2011-02-05T14:28:32Z</time>
      </trkpt>
      <trkpt lat="43.75956" lon="6.99348">
        <ele>577.4091797</ele>
        <time>2011-02-05T14:28:42Z</time>
      </trkpt>
      <trkpt lat="43.75951" lon="6.99356">
        <ele>576.9284668</ele>
        <time>2011-02-05T14:30:52Z</time>
      </trkpt>
      <trkpt lat="43.7593" lon="6.9937">
        <ele>575.967041</ele>
        <time>2011-02-05T14:31:02Z</time>
      </trkpt>
      <trkpt lat="43.75917" lon="6.9937">
        <ele>575.967041</ele>
        <time>2011-02-05T14:31:08Z</time>
      </trkpt>
      <trkpt lat="43.75885" lon="6.99353">
        <ele>580.7736816</ele>
        <time>2011-02-05T14:31:22Z</time>
      </trkpt>
      <trkpt lat="43.75863" lon="6.99348">
        <ele>579.331543</ele>
        <time>2011-02-05T14:31:29Z</time>
      </trkpt>
      <trkpt lat="43.75847" lon="6.99354">
        <ele>577.8896484</ele>
        <time>2011-02-05T14:31:32Z</time>
      </trkpt>
      <trkpt lat="43.75815" lon="6.99365">
        <ele>575.967041</ele>
        <time>2011-02-05T14:31:38Z</time>
      </trkpt>
      <trkpt lat="43.75764" lon="6.99369">
        <ele>574.5251465</ele>
        <time>2011-02-05T14:31:49Z</time>
      </trkpt>
      <trkpt lat="43.75749" lon="6.99375">
        <ele>574.5251465</ele>
        <time>2011-02-05T14:31:53Z</time>
      </trkpt>
      <trkpt lat="43.75725" lon="6.99403">
        <ele>576.4477539</ele>
        <time>2011-02-05T14:31:59Z</time>
      </trkpt>
      <trkpt lat="43.75684" lon="6.99458">
        <ele>575.967041</ele>
        <time>2011-02-05T14:32:10Z</time>
      </trkpt>
      <trkpt lat="43.75667" lon="6.9948">
        <ele>574.0444336</ele>
        <time>2011-02-05T14:32:14Z</time>
      </trkpt>
      <trkpt lat="43.75657" lon="6.99487">
        <ele>572.6025391</ele>
        <time>2011-02-05T14:32:16Z</time>
      </trkpt>
      <trkpt lat="43.75648" lon="6.99497">
        <ele>570.6796875</ele>
        <time>2011-02-05T14:32:18Z</time>
      </trkpt>
      <trkpt lat="43.75642" lon="6.99513">
        <ele>567.7956543</ele>
        <time>2011-02-05T14:32:20Z</time>
      </trkpt>
      <trkpt lat="43.75634" lon="6.99539">
        <ele>566.3537598</ele>
        <time>2011-02-05T14:32:23Z</time>
      </trkpt>
      <trkpt lat="43.75613" lon="6.99582">
        <ele>563.9504395</ele>
        <time>2011-02-05T14:32:28Z</time>
      </trkpt>
      <trkpt lat="43.75604" lon="6.99595">
        <ele>563.4699707</ele>
        <time>2011-02-05T14:32:30Z</time>
      </trkpt>
      <trkpt lat="43.75578" lon="6.99615">
        <ele>562.9892578</ele>
        <time>2011-02-05T14:32:35Z</time>
      </trkpt>
      <trkpt lat="43.75561" lon="6.99621">
        <ele>563.9504395</ele>
        <time>2011-02-05T14:32:39Z</time>
      </trkpt>
      <trkpt lat="43.75541" lon="6.99664">
        <ele>566.3537598</ele>
        <time>2011-02-05T14:32:44Z</time>
      </trkpt>
      <trkpt lat="43.75547" lon="6.99698">
        <ele>565.3925781</ele>
        <time>2011-02-05T14:32:49Z</time>
      </trkpt>
      <trkpt lat="43.7555" lon="6.99712">
        <ele>564.4311523</ele>
        <time>2011-02-05T14:32:51Z</time>
      </trkpt>
      <trkpt lat="43.75552" lon="6.9972">
        <ele>563.9504395</ele>
        <time>2011-02-05T14:32:52Z</time>
      </trkpt>
      <trkpt lat="43.75552" lon="6.99764">
        <ele>560.5859375</ele>
        <time>2011-02-05T14:32:57Z</time>
      </trkpt>
      <trkpt lat="43.75552" lon="6.99774">
        <ele>560.5859375</ele>
        <time>2011-02-05T14:32:58Z</time>
      </trkpt>
      <trkpt lat="43.75548" lon="6.99817">
        <ele>558.6633301</ele>
        <time>2011-02-05T14:33:02Z</time>
      </trkpt>
      <trkpt lat="43.75537" lon="6.99848">
        <ele>556.2600098</ele>
        <time>2011-02-05T14:33:05Z</time>
      </trkpt>
      <trkpt lat="43.75532" lon="6.99856">
        <ele>554.8178711</ele>
        <time>2011-02-05T14:33:06Z</time>
      </trkpt>
      <trkpt lat="43.75509" lon="6.9987">
        <ele>555.298584</ele>
        <time>2011-02-05T14:33:10Z</time>
      </trkpt>
      <trkpt lat="43.755" lon="6.99877">
        <ele>556.7407227</ele>
        <time>2011-02-05T14:33:12Z</time>
      </trkpt>
      <trkpt lat="43.75493" lon="6.99884">
        <ele>557.2214355</ele>
        <time>2011-02-05T14:33:14Z</time>
      </trkpt>
      <trkpt lat="43.75479" lon="6.99901">
        <ele>561.0666504</ele>
        <time>2011-02-05T14:33:20Z</time>
      </trkpt>
      <trkpt lat="43.75477" lon="6.99904">
        <ele>561.0666504</ele>
        <time>2011-02-05T14:33:21Z</time>
      </trkpt>
      <trkpt lat="43.75457" lon="6.99916">
        <ele>563.4699707</ele>
        <time>2011-02-05T14:33:29Z</time>
      </trkpt>
      <trkpt lat="43.75454" lon="6.99918">
        <ele>562.5085449</ele>
        <time>2011-02-05T14:33:41Z</time>
      </trkpt>
      <trkpt lat="43.75436" lon="6.99936">
        <ele>562.0280762</ele>
        <time>2011-02-05T14:34:30Z</time>
      </trkpt>
      <trkpt lat="43.7543" lon="6.99944">
        <ele>562.5085449</ele>
        <time>2011-02-05T14:34:32Z</time>
      </trkpt>
      <trkpt lat="43.75423" lon="6.99959">
        <ele>561.5473633</ele>
        <time>2011-02-05T14:34:35Z</time>
      </trkpt>
      <trkpt lat="43.75413" lon="6.99988">
        <ele>559.6247559</ele>
        <time>2011-02-05T14:34:39Z</time>
      </trkpt>
      <trkpt lat="43.75398" lon="6.99999">
        <ele>558.1828613</ele>
        <time>2011-02-05T14:34:42Z</time>
      </trkpt>
      <trkpt lat="43.75387" lon="6.99997">
        <ele>555.7792969</ele>
        <time>2011-02-05T14:34:44Z</time>
      </trkpt>
      <trkpt lat="43.75377" lon="6.99996">
        <ele>553.3759766</ele>
        <time>2011-02-05T14:34:46Z</time>
      </trkpt>
      <trkpt lat="43.75367" lon="6.99993">
        <ele>550.0114746</ele>
        <time>2011-02-05T14:34:48Z</time>
      </trkpt>
      <trkpt lat="43.75363" lon="6.99992">
        <ele>550.0114746</ele>
        <time>2011-02-05T14:34:49Z</time>
      </trkpt>
      <trkpt lat="43.75375" lon="7.00005">
        <ele>549.0500488</ele>
        <time>2011-02-05T14:34:56Z</time>
      </trkpt>
      <trkpt lat="43.7539" lon="7.00018">
        <ele>550.0114746</ele>
        <time>2011-02-05T14:35:02Z</time>
      </trkpt>
      <trkpt lat="43.75397" lon="7.0004">
        <ele>550.9726563</ele>
        <time>2011-02-05T14:35:08Z</time>
      </trkpt>
      <trkpt lat="43.75395" lon="7.00114">
        <ele>553.8566895</ele>
        <time>2011-02-05T14:35:25Z</time>
      </trkpt>
      <trkpt lat="43.75407" lon="7.00185">
        <ele>556.2600098</ele>
        <time>2011-02-05T14:35:43Z</time>
      </trkpt>
      <trkpt lat="43.75432" lon="7.00228">
        <ele>557.7021484</ele>
        <time>2011-02-05T14:35:57Z</time>
      </trkpt>
      <trkpt lat="43.75438" lon="7.00237">
        <ele>558.1828613</ele>
        <time>2011-02-05T14:36:00Z</time>
      </trkpt>
      <trkpt lat="43.75436" lon="7.00299">
        <ele>561.0666504</ele>
        <time>2011-02-05T14:36:17Z</time>
      </trkpt>
      <trkpt lat="43.75407" lon="7.00367">
        <ele>563.4699707</ele>
        <time>2011-02-05T14:36:37Z</time>
      </trkpt>
      <trkpt lat="43.75392" lon="7.0042">
        <ele>565.3925781</ele>
        <time>2011-02-05T14:36:51Z</time>
      </trkpt>
      <trkpt lat="43.75361" lon="7.00482">
        <ele>568.2763672</ele>
        <time>2011-02-05T14:37:10Z</time>
      </trkpt>
      <trkpt lat="43.75321" lon="7.00546">
        <ele>571.6408691</ele>
        <time>2011-02-05T14:37:31Z</time>
      </trkpt>
      <trkpt lat="43.75279" lon="7.00588">
        <ele>574.0444336</ele>
        <time>2011-02-05T14:37:49Z</time>
      </trkpt>
      <trkpt lat="43.75225" lon="7.00619">
        <ele>576.9284668</ele>
        <time>2011-02-05T14:38:09Z</time>
      </trkpt>
      <trkpt lat="43.75169" lon="7.00648">
        <ele>579.8122559</ele>
        <time>2011-02-05T14:38:28Z</time>
      </trkpt>
      <trkpt lat="43.75121" lon="7.00674">
        <ele>583.1767578</ele>
        <time>2011-02-05T14:38:45Z</time>
      </trkpt>
      <trkpt lat="43.75065" lon="7.00689">
        <ele>585.5800781</ele>
        <time>2011-02-05T14:39:03Z</time>
      </trkpt>
      <trkpt lat="43.75021" lon="7.00699">
        <ele>587.5026855</ele>
        <time>2011-02-05T14:39:17Z</time>
      </trkpt>
      <trkpt lat="43.74955" lon="7.00703">
        <ele>590.8674316</ele>
        <time>2011-02-05T14:39:38Z</time>
      </trkpt>
      <trkpt lat="43.74918" lon="7.00718">
        <ele>592.7902832</ele>
        <time>2011-02-05T14:39:51Z</time>
      </trkpt>
      <trkpt lat="43.74872" lon="7.00731">
        <ele>594.7126465</ele>
        <time>2011-02-05T14:40:07Z</time>
      </trkpt>
      <trkpt lat="43.74853" lon="7.00772">
        <ele>596.635498</ele>
        <time>2011-02-05T14:40:19Z</time>
      </trkpt>
      <trkpt lat="43.74849" lon="7.00819">
        <ele>597.5966797</ele>
        <time>2011-02-05T14:40:31Z</time>
      </trkpt>
      <trkpt lat="43.74801" lon="7.00833">
        <ele>599.5192871</ele>
        <time>2011-02-05T14:40:46Z</time>
      </trkpt>
      <trkpt lat="43.74761" lon="7.00826">
        <ele>600.9611816</ele>
        <time>2011-02-05T14:40:59Z</time>
      </trkpt>
      <trkpt lat="43.74708" lon="7.00871">
        <ele>604.8066406</ele>
        <time>2011-02-05T14:41:19Z</time>
      </trkpt>
      <trkpt lat="43.74665" lon="7.00916">
        <ele>608.1713867</ele>
        <time>2011-02-05T14:41:36Z</time>
      </trkpt>
      <trkpt lat="43.74625" lon="7.00946">
        <ele>610.5744629</ele>
        <time>2011-02-05T14:41:52Z</time>
      </trkpt>
      <trkpt lat="43.74575" lon="7.00961">
        <ele>613.9389648</ele>
        <time>2011-02-05T14:42:07Z</time>
      </trkpt>
      <trkpt lat="43.7453" lon="7.00931">
        <ele>617.3037109</ele>
        <time>2011-02-05T14:42:22Z</time>
      </trkpt>
      <trkpt lat="43.74484" lon="7.0092">
        <ele>619.7070313</ele>
        <time>2011-02-05T14:42:34Z</time>
      </trkpt>
      <trkpt lat="43.74428" lon="7.00917">
        <ele>623.0717773</ele>
        <time>2011-02-05T14:42:49Z</time>
      </trkpt>
      <trkpt lat="43.74389" lon="7.0091">
        <ele>626.9169922</ele>
        <time>2011-02-05T14:43:00Z</time>
      </trkpt>
      <trkpt lat="43.74366" lon="7.00911">
        <ele>630.2814941</ele>
        <time>2011-02-05T14:43:09Z</time>
      </trkpt>
      <trkpt lat="43.74358" lon="7.00908">
        <ele>630.2814941</ele>
        <time>2011-02-05T14:43:13Z</time>
      </trkpt>
      <trkpt lat="43.74355" lon="7.00879">
        <ele>630.2814941</ele>
        <time>2011-02-05T14:43:26Z</time>
      </trkpt>
      <trkpt lat="43.74354" lon="7.00878">
        <ele>629.8007813</ele>
        <time>2011-02-05T14:43:41Z</time>
      </trkpt>
      <trkpt lat="43.74356" lon="7.0088">
        <ele>629.3200684</ele>
        <time>2011-02-05T14:43:57Z</time>
      </trkpt>
      <trkpt lat="43.74356" lon="7.00879">
        <ele>629.8007813</ele>
        <time>2011-02-05T14:44:06Z</time>
      </trkpt>
      <trkpt lat="43.74356" lon="7.00879">
        <ele>629.3200684</ele>
        <time>2011-02-05T14:44:25Z</time>
      </trkpt>
    </trkseg>
  </trk>
</gpx>